<?xml version="1.0" encoding="UTF-8" standalone="no" ?>
<gpx xmlns="http://www.topografix.com/GPX/1/1" xmlns:xsi="http://www.w3.org/2001/XMLSchema-instance" xsi:schemaLocation="http://www.topografix.com/GPX/1/1 http://www.topografix.com/GPX/1/1/gpx.xsd" version="1.1" creator="VisuGPX - https://www.visugpx.com">
  <metadata>
    <name>François 11km</name>
  </metadata>
  <wpt lat="46.37297" lon="-0.34386">
    <ele>36.1</ele>
  </wpt>
  <wpt lat="46.38304" lon="-0.3297">
    <ele>40.3</ele>
  </wpt>
  <wpt lat="46.38342" lon="-0.32954">
    <ele>38.1</ele>
  </wpt>
  <wpt lat="46.3824" lon="-0.33484">
    <ele>38.6</ele>
  </wpt>
  <wpt lat="46.39017" lon="-0.34249">
    <ele>44.5</ele>
  </wpt>
  <wpt lat="46.39165" lon="-0.34195">
    <ele>44</ele>
  </wpt>
  <wpt lat="46.3943" lon="-0.34242">
    <ele>46.1</ele>
  </wpt>
  <wpt lat="46.3951" lon="-0.34217">
    <ele>53.2</ele>
  </wpt>
  <wpt lat="46.39456" lon="-0.34278">
    <ele>51.1</ele>
  </wpt>
  <wpt lat="46.39013" lon="-0.35536">
    <ele>62.9</ele>
  </wpt>
  <wpt lat="46.38541" lon="-0.36351">
    <ele>38.1</ele>
  </wpt>
  <trk>
    <name><![CDATA[François 11km_1]]></name>
    <trkseg>
      <trkpt lat="46.37247" lon="-0.34387">
        <ele>89</ele>
        <time>2012-10-26T14:25:13Z</time>
      </trkpt>
      <trkpt lat="46.37248" lon="-0.34385">
        <ele>89</ele>
        <time>2012-10-26T14:25:18Z</time>
      </trkpt>
      <trkpt lat="46.37247" lon="-0.34385">
        <ele>88</ele>
        <time>2012-10-26T14:25:23Z</time>
      </trkpt>
      <trkpt lat="46.37248" lon="-0.34384">
        <ele>88</ele>
        <time>2012-10-26T14:25:53Z</time>
      </trkpt>
      <trkpt lat="46.37248" lon="-0.34386">
        <ele>89</ele>
        <time>2012-10-26T14:25:58Z</time>
      </trkpt>
      <trkpt lat="46.37251" lon="-0.34389">
        <ele>89</ele>
        <time>2012-10-26T14:26:03Z</time>
      </trkpt>
      <trkpt lat="46.37249" lon="-0.34392">
        <ele>91</ele>
        <time>2012-10-26T14:26:08Z</time>
      </trkpt>
      <trkpt lat="46.3725" lon="-0.34396">
        <ele>94</ele>
        <time>2012-10-26T14:26:13Z</time>
      </trkpt>
      <trkpt lat="46.37253" lon="-0.34398">
        <ele>94</ele>
        <time>2012-10-26T14:26:18Z</time>
      </trkpt>
      <trkpt lat="46.37263" lon="-0.34396">
        <ele>92</ele>
        <time>2012-10-26T14:26:23Z</time>
      </trkpt>
      <trkpt lat="46.37271" lon="-0.34391">
        <ele>91</ele>
        <time>2012-10-26T14:26:28Z</time>
      </trkpt>
      <trkpt lat="46.37277" lon="-0.34389">
        <ele>90</ele>
        <time>2012-10-26T14:26:33Z</time>
      </trkpt>
      <trkpt lat="46.37282" lon="-0.34386">
        <ele>89</ele>
        <time>2012-10-26T14:26:38Z</time>
      </trkpt>
      <trkpt lat="46.37289" lon="-0.34382">
        <ele>92</ele>
        <time>2012-10-26T14:26:43Z</time>
      </trkpt>
      <trkpt lat="46.37294" lon="-0.34381">
        <ele>93</ele>
        <time>2012-10-26T14:26:48Z</time>
      </trkpt>
      <trkpt lat="46.37296" lon="-0.34385">
        <ele>91</ele>
        <time>2012-10-26T14:26:53Z</time>
      </trkpt>
      <trkpt lat="46.37297" lon="-0.34386">
        <ele>88</ele>
        <time>2012-10-26T14:26:58Z</time>
      </trkpt>
      <trkpt lat="46.37298" lon="-0.34386">
        <ele>89</ele>
        <time>2012-10-26T14:27:13Z</time>
      </trkpt>
      <trkpt lat="46.37297" lon="-0.34386">
        <ele>88</ele>
        <time>2012-10-26T14:27:18Z</time>
      </trkpt>
      <trkpt lat="46.37297" lon="-0.34387">
        <ele>88</ele>
        <time>2012-10-26T14:27:33Z</time>
      </trkpt>
      <trkpt lat="46.373" lon="-0.34382">
        <ele>91</ele>
        <time>2012-10-26T14:28:28Z</time>
      </trkpt>
      <trkpt lat="46.37299" lon="-0.34382">
        <ele>93</ele>
        <time>2012-10-26T14:28:33Z</time>
      </trkpt>
      <trkpt lat="46.37299" lon="-0.34377">
        <ele>97</ele>
        <time>2012-10-26T14:28:38Z</time>
      </trkpt>
      <trkpt lat="46.37303" lon="-0.34378">
        <ele>96</ele>
        <time>2012-10-26T14:28:43Z</time>
      </trkpt>
      <trkpt lat="46.37305" lon="-0.34377">
        <ele>95</ele>
        <time>2012-10-26T14:28:48Z</time>
      </trkpt>
      <trkpt lat="46.37311" lon="-0.34372">
        <ele>95</ele>
        <time>2012-10-26T14:28:53Z</time>
      </trkpt>
      <trkpt lat="46.37314" lon="-0.34371">
        <ele>97</ele>
        <time>2012-10-26T14:28:58Z</time>
      </trkpt>
      <trkpt lat="46.37316" lon="-0.34371">
        <ele>97</ele>
        <time>2012-10-26T14:29:03Z</time>
      </trkpt>
      <trkpt lat="46.37316" lon="-0.34369">
        <ele>97</ele>
        <time>2012-10-26T14:29:08Z</time>
      </trkpt>
      <trkpt lat="46.37317" lon="-0.34366">
        <ele>94</ele>
        <time>2012-10-26T14:29:13Z</time>
      </trkpt>
      <trkpt lat="46.37327" lon="-0.34359">
        <ele>91</ele>
        <time>2012-10-26T14:29:18Z</time>
      </trkpt>
      <trkpt lat="46.37331" lon="-0.34354">
        <ele>88</ele>
        <time>2012-10-26T14:29:23Z</time>
      </trkpt>
      <trkpt lat="46.3734" lon="-0.34344">
        <ele>87</ele>
        <time>2012-10-26T14:29:28Z</time>
      </trkpt>
      <trkpt lat="46.37346" lon="-0.34341">
        <ele>91</ele>
        <time>2012-10-26T14:29:33Z</time>
      </trkpt>
      <trkpt lat="46.37352" lon="-0.34335">
        <ele>91</ele>
        <time>2012-10-26T14:29:38Z</time>
      </trkpt>
      <trkpt lat="46.37358" lon="-0.34331">
        <ele>92</ele>
        <time>2012-10-26T14:29:43Z</time>
      </trkpt>
      <trkpt lat="46.37362" lon="-0.34326">
        <ele>89</ele>
        <time>2012-10-26T14:29:48Z</time>
      </trkpt>
      <trkpt lat="46.37367" lon="-0.34322">
        <ele>89</ele>
        <time>2012-10-26T14:29:53Z</time>
      </trkpt>
      <trkpt lat="46.37374" lon="-0.34317">
        <ele>91</ele>
        <time>2012-10-26T14:29:58Z</time>
      </trkpt>
      <trkpt lat="46.3738" lon="-0.34313">
        <ele>92</ele>
        <time>2012-10-26T14:30:03Z</time>
      </trkpt>
      <trkpt lat="46.37383" lon="-0.34308">
        <ele>92</ele>
        <time>2012-10-26T14:30:08Z</time>
      </trkpt>
      <trkpt lat="46.37389" lon="-0.34303">
        <ele>92</ele>
        <time>2012-10-26T14:30:13Z</time>
      </trkpt>
      <trkpt lat="46.37395" lon="-0.34298">
        <ele>92</ele>
        <time>2012-10-26T14:30:18Z</time>
      </trkpt>
      <trkpt lat="46.37397" lon="-0.34292">
        <ele>93</ele>
        <time>2012-10-26T14:30:23Z</time>
      </trkpt>
      <trkpt lat="46.374" lon="-0.34284">
        <ele>93</ele>
        <time>2012-10-26T14:30:28Z</time>
      </trkpt>
      <trkpt lat="46.37404" lon="-0.34277">
        <ele>92</ele>
        <time>2012-10-26T14:30:33Z</time>
      </trkpt>
      <trkpt lat="46.37407" lon="-0.34269">
        <ele>92</ele>
        <time>2012-10-26T14:30:38Z</time>
      </trkpt>
      <trkpt lat="46.37411" lon="-0.34261">
        <ele>99</ele>
        <time>2012-10-26T14:30:43Z</time>
      </trkpt>
      <trkpt lat="46.37414" lon="-0.34253">
        <ele>98</ele>
        <time>2012-10-26T14:30:48Z</time>
      </trkpt>
      <trkpt lat="46.37415" lon="-0.34249">
        <ele>97</ele>
        <time>2012-10-26T14:30:53Z</time>
      </trkpt>
      <trkpt lat="46.37417" lon="-0.34245">
        <ele>96</ele>
        <time>2012-10-26T14:30:58Z</time>
      </trkpt>
      <trkpt lat="46.37417" lon="-0.34245">
        <ele>97</ele>
        <time>2012-10-26T14:31:03Z</time>
      </trkpt>
      <trkpt lat="46.37418" lon="-0.34239">
        <ele>96</ele>
        <time>2012-10-26T14:31:18Z</time>
      </trkpt>
      <trkpt lat="46.37422" lon="-0.3423">
        <ele>96</ele>
        <time>2012-10-26T14:31:23Z</time>
      </trkpt>
      <trkpt lat="46.37424" lon="-0.34224">
        <ele>96</ele>
        <time>2012-10-26T14:31:28Z</time>
      </trkpt>
      <trkpt lat="46.37425" lon="-0.34217">
        <ele>96</ele>
        <time>2012-10-26T14:31:33Z</time>
      </trkpt>
      <trkpt lat="46.37426" lon="-0.34211">
        <ele>94</ele>
        <time>2012-10-26T14:31:38Z</time>
      </trkpt>
      <trkpt lat="46.37427" lon="-0.34204">
        <ele>91</ele>
        <time>2012-10-26T14:31:43Z</time>
      </trkpt>
      <trkpt lat="46.37428" lon="-0.34197">
        <ele>92</ele>
        <time>2012-10-26T14:31:48Z</time>
      </trkpt>
      <trkpt lat="46.37429" lon="-0.3419">
        <ele>92</ele>
        <time>2012-10-26T14:31:53Z</time>
      </trkpt>
      <trkpt lat="46.37431" lon="-0.3418">
        <ele>92</ele>
        <time>2012-10-26T14:31:58Z</time>
      </trkpt>
      <trkpt lat="46.37432" lon="-0.34172">
        <ele>91</ele>
        <time>2012-10-26T14:32:03Z</time>
      </trkpt>
      <trkpt lat="46.37435" lon="-0.34163">
        <ele>88</ele>
        <time>2012-10-26T14:32:08Z</time>
      </trkpt>
      <trkpt lat="46.37436" lon="-0.34156">
        <ele>88</ele>
        <time>2012-10-26T14:32:13Z</time>
      </trkpt>
      <trkpt lat="46.37435" lon="-0.34147">
        <ele>85</ele>
        <time>2012-10-26T14:32:18Z</time>
      </trkpt>
      <trkpt lat="46.37436" lon="-0.34139">
        <ele>85</ele>
        <time>2012-10-26T14:32:23Z</time>
      </trkpt>
      <trkpt lat="46.37437" lon="-0.34131">
        <ele>85</ele>
        <time>2012-10-26T14:32:28Z</time>
      </trkpt>
      <trkpt lat="46.37437" lon="-0.34121">
        <ele>84</ele>
        <time>2012-10-26T14:32:33Z</time>
      </trkpt>
      <trkpt lat="46.37435" lon="-0.34111">
        <ele>85</ele>
        <time>2012-10-26T14:32:38Z</time>
      </trkpt>
      <trkpt lat="46.37434" lon="-0.34107">
        <ele>86</ele>
        <time>2012-10-26T14:32:43Z</time>
      </trkpt>
      <trkpt lat="46.37434" lon="-0.34093">
        <ele>87</ele>
        <time>2012-10-26T14:32:48Z</time>
      </trkpt>
      <trkpt lat="46.37432" lon="-0.34078">
        <ele>87</ele>
        <time>2012-10-26T14:32:53Z</time>
      </trkpt>
      <trkpt lat="46.37431" lon="-0.34069">
        <ele>89</ele>
        <time>2012-10-26T14:32:58Z</time>
      </trkpt>
      <trkpt lat="46.37429" lon="-0.34057">
        <ele>91</ele>
        <time>2012-10-26T14:33:03Z</time>
      </trkpt>
      <trkpt lat="46.37426" lon="-0.34049">
        <ele>91</ele>
        <time>2012-10-26T14:33:08Z</time>
      </trkpt>
      <trkpt lat="46.37425" lon="-0.34036">
        <ele>93</ele>
        <time>2012-10-26T14:33:13Z</time>
      </trkpt>
      <trkpt lat="46.37426" lon="-0.34029">
        <ele>93</ele>
        <time>2012-10-26T14:33:18Z</time>
      </trkpt>
      <trkpt lat="46.37423" lon="-0.3402">
        <ele>95</ele>
        <time>2012-10-26T14:33:23Z</time>
      </trkpt>
      <trkpt lat="46.37422" lon="-0.34015">
        <ele>96</ele>
        <time>2012-10-26T14:33:28Z</time>
      </trkpt>
      <trkpt lat="46.3742" lon="-0.34007">
        <ele>96</ele>
        <time>2012-10-26T14:33:33Z</time>
      </trkpt>
      <trkpt lat="46.37418" lon="-0.33999">
        <ele>96</ele>
        <time>2012-10-26T14:33:38Z</time>
      </trkpt>
      <trkpt lat="46.37417" lon="-0.33993">
        <ele>96</ele>
        <time>2012-10-26T14:33:43Z</time>
      </trkpt>
      <trkpt lat="46.37413" lon="-0.33984">
        <ele>95</ele>
        <time>2012-10-26T14:33:48Z</time>
      </trkpt>
      <trkpt lat="46.37414" lon="-0.33979">
        <ele>95</ele>
        <time>2012-10-26T14:33:53Z</time>
      </trkpt>
      <trkpt lat="46.3741" lon="-0.33971">
        <ele>93</ele>
        <time>2012-10-26T14:33:58Z</time>
      </trkpt>
      <trkpt lat="46.37408" lon="-0.33965">
        <ele>91</ele>
        <time>2012-10-26T14:34:03Z</time>
      </trkpt>
      <trkpt lat="46.37408" lon="-0.33955">
        <ele>91</ele>
        <time>2012-10-26T14:34:08Z</time>
      </trkpt>
      <trkpt lat="46.37405" lon="-0.33946">
        <ele>91</ele>
        <time>2012-10-26T14:34:13Z</time>
      </trkpt>
      <trkpt lat="46.37404" lon="-0.3394">
        <ele>91</ele>
        <time>2012-10-26T14:34:18Z</time>
      </trkpt>
      <trkpt lat="46.37402" lon="-0.33933">
        <ele>91</ele>
        <time>2012-10-26T14:34:23Z</time>
      </trkpt>
      <trkpt lat="46.374" lon="-0.33925">
        <ele>90</ele>
        <time>2012-10-26T14:34:28Z</time>
      </trkpt>
      <trkpt lat="46.37401" lon="-0.33918">
        <ele>91</ele>
        <time>2012-10-26T14:34:33Z</time>
      </trkpt>
      <trkpt lat="46.37399" lon="-0.33909">
        <ele>91</ele>
        <time>2012-10-26T14:34:38Z</time>
      </trkpt>
      <trkpt lat="46.37401" lon="-0.33899">
        <ele>89</ele>
        <time>2012-10-26T14:34:43Z</time>
      </trkpt>
      <trkpt lat="46.37403" lon="-0.33888">
        <ele>87</ele>
        <time>2012-10-26T14:34:48Z</time>
      </trkpt>
      <trkpt lat="46.37403" lon="-0.33877">
        <ele>86</ele>
        <time>2012-10-26T14:34:53Z</time>
      </trkpt>
      <trkpt lat="46.37405" lon="-0.33868">
        <ele>86</ele>
        <time>2012-10-26T14:34:58Z</time>
      </trkpt>
      <trkpt lat="46.37407" lon="-0.3386">
        <ele>86</ele>
        <time>2012-10-26T14:35:03Z</time>
      </trkpt>
      <trkpt lat="46.3741" lon="-0.33854">
        <ele>84</ele>
        <time>2012-10-26T14:35:08Z</time>
      </trkpt>
      <trkpt lat="46.37415" lon="-0.33848">
        <ele>84</ele>
        <time>2012-10-26T14:35:13Z</time>
      </trkpt>
      <trkpt lat="46.37418" lon="-0.33838">
        <ele>84</ele>
        <time>2012-10-26T14:35:18Z</time>
      </trkpt>
      <trkpt lat="46.37424" lon="-0.33834">
        <ele>87</ele>
        <time>2012-10-26T14:35:23Z</time>
      </trkpt>
      <trkpt lat="46.37428" lon="-0.33826">
        <ele>88</ele>
        <time>2012-10-26T14:35:28Z</time>
      </trkpt>
      <trkpt lat="46.37434" lon="-0.33821">
        <ele>89</ele>
        <time>2012-10-26T14:35:33Z</time>
      </trkpt>
      <trkpt lat="46.3744" lon="-0.33818">
        <ele>88</ele>
        <time>2012-10-26T14:35:38Z</time>
      </trkpt>
      <trkpt lat="46.37442" lon="-0.33812">
        <ele>86</ele>
        <time>2012-10-26T14:35:43Z</time>
      </trkpt>
      <trkpt lat="46.37447" lon="-0.33808">
        <ele>87</ele>
        <time>2012-10-26T14:35:48Z</time>
      </trkpt>
      <trkpt lat="46.37452" lon="-0.33802">
        <ele>88</ele>
        <time>2012-10-26T14:35:53Z</time>
      </trkpt>
      <trkpt lat="46.37459" lon="-0.33796">
        <ele>88</ele>
        <time>2012-10-26T14:35:58Z</time>
      </trkpt>
      <trkpt lat="46.37465" lon="-0.33791">
        <ele>89</ele>
        <time>2012-10-26T14:36:03Z</time>
      </trkpt>
      <trkpt lat="46.37469" lon="-0.33786">
        <ele>88</ele>
        <time>2012-10-26T14:36:08Z</time>
      </trkpt>
      <trkpt lat="46.37474" lon="-0.33782">
        <ele>88</ele>
        <time>2012-10-26T14:36:13Z</time>
      </trkpt>
      <trkpt lat="46.37478" lon="-0.33777">
        <ele>89</ele>
        <time>2012-10-26T14:36:18Z</time>
      </trkpt>
      <trkpt lat="46.37482" lon="-0.3377">
        <ele>89</ele>
        <time>2012-10-26T14:36:23Z</time>
      </trkpt>
      <trkpt lat="46.37488" lon="-0.33769">
        <ele>87</ele>
        <time>2012-10-26T14:36:28Z</time>
      </trkpt>
      <trkpt lat="46.37493" lon="-0.33765">
        <ele>88</ele>
        <time>2012-10-26T14:36:33Z</time>
      </trkpt>
      <trkpt lat="46.37492" lon="-0.33764">
        <ele>86</ele>
        <time>2012-10-26T14:36:38Z</time>
      </trkpt>
      <trkpt lat="46.37495" lon="-0.33758">
        <ele>88</ele>
        <time>2012-10-26T14:36:43Z</time>
      </trkpt>
      <trkpt lat="46.37502" lon="-0.33752">
        <ele>91</ele>
        <time>2012-10-26T14:36:48Z</time>
      </trkpt>
      <trkpt lat="46.37509" lon="-0.33746">
        <ele>90</ele>
        <time>2012-10-26T14:36:53Z</time>
      </trkpt>
      <trkpt lat="46.37515" lon="-0.33744">
        <ele>91</ele>
        <time>2012-10-26T14:36:58Z</time>
      </trkpt>
      <trkpt lat="46.37521" lon="-0.33743">
        <ele>90</ele>
        <time>2012-10-26T14:37:03Z</time>
      </trkpt>
      <trkpt lat="46.37525" lon="-0.3374">
        <ele>89</ele>
        <time>2012-10-26T14:37:08Z</time>
      </trkpt>
      <trkpt lat="46.37531" lon="-0.33737">
        <ele>89</ele>
        <time>2012-10-26T14:37:13Z</time>
      </trkpt>
      <trkpt lat="46.37536" lon="-0.33733">
        <ele>89</ele>
        <time>2012-10-26T14:37:18Z</time>
      </trkpt>
      <trkpt lat="46.37539" lon="-0.33729">
        <ele>90</ele>
        <time>2012-10-26T14:37:23Z</time>
      </trkpt>
      <trkpt lat="46.37544" lon="-0.33722">
        <ele>90</ele>
        <time>2012-10-26T14:37:28Z</time>
      </trkpt>
      <trkpt lat="46.37549" lon="-0.33717">
        <ele>90</ele>
        <time>2012-10-26T14:37:33Z</time>
      </trkpt>
      <trkpt lat="46.3755" lon="-0.33715">
        <ele>91</ele>
        <time>2012-10-26T14:37:38Z</time>
      </trkpt>
      <trkpt lat="46.37553" lon="-0.33706">
        <ele>89</ele>
        <time>2012-10-26T14:37:43Z</time>
      </trkpt>
      <trkpt lat="46.37556" lon="-0.337">
        <ele>88</ele>
        <time>2012-10-26T14:37:48Z</time>
      </trkpt>
      <trkpt lat="46.37564" lon="-0.33691">
        <ele>89</ele>
        <time>2012-10-26T14:37:53Z</time>
      </trkpt>
      <trkpt lat="46.37572" lon="-0.33684">
        <ele>90</ele>
        <time>2012-10-26T14:37:58Z</time>
      </trkpt>
      <trkpt lat="46.37576" lon="-0.33678">
        <ele>90</ele>
        <time>2012-10-26T14:38:03Z</time>
      </trkpt>
      <trkpt lat="46.37579" lon="-0.33673">
        <ele>87</ele>
        <time>2012-10-26T14:38:08Z</time>
      </trkpt>
      <trkpt lat="46.37584" lon="-0.33667">
        <ele>86</ele>
        <time>2012-10-26T14:38:13Z</time>
      </trkpt>
      <trkpt lat="46.37589" lon="-0.33661">
        <ele>88</ele>
        <time>2012-10-26T14:38:18Z</time>
      </trkpt>
      <trkpt lat="46.37595" lon="-0.33654">
        <ele>88</ele>
        <time>2012-10-26T14:38:23Z</time>
      </trkpt>
      <trkpt lat="46.37603" lon="-0.33647">
        <ele>89</ele>
        <time>2012-10-26T14:38:28Z</time>
      </trkpt>
      <trkpt lat="46.37609" lon="-0.33643">
        <ele>89</ele>
        <time>2012-10-26T14:38:33Z</time>
      </trkpt>
      <trkpt lat="46.37613" lon="-0.33639">
        <ele>89</ele>
        <time>2012-10-26T14:38:38Z</time>
      </trkpt>
      <trkpt lat="46.37618" lon="-0.33634">
        <ele>88</ele>
        <time>2012-10-26T14:38:43Z</time>
      </trkpt>
      <trkpt lat="46.37624" lon="-0.33629">
        <ele>88</ele>
        <time>2012-10-26T14:38:48Z</time>
      </trkpt>
      <trkpt lat="46.37628" lon="-0.33625">
        <ele>88</ele>
        <time>2012-10-26T14:38:53Z</time>
      </trkpt>
      <trkpt lat="46.37634" lon="-0.33619">
        <ele>87</ele>
        <time>2012-10-26T14:38:58Z</time>
      </trkpt>
      <trkpt lat="46.37639" lon="-0.33613">
        <ele>88</ele>
        <time>2012-10-26T14:39:03Z</time>
      </trkpt>
      <trkpt lat="46.37642" lon="-0.33609">
        <ele>87</ele>
        <time>2012-10-26T14:39:08Z</time>
      </trkpt>
      <trkpt lat="46.37645" lon="-0.33603">
        <ele>86</ele>
        <time>2012-10-26T14:39:13Z</time>
      </trkpt>
      <trkpt lat="46.3765" lon="-0.33597">
        <ele>86</ele>
        <time>2012-10-26T14:39:18Z</time>
      </trkpt>
      <trkpt lat="46.37654" lon="-0.33591">
        <ele>87</ele>
        <time>2012-10-26T14:39:23Z</time>
      </trkpt>
      <trkpt lat="46.37658" lon="-0.33583">
        <ele>87</ele>
        <time>2012-10-26T14:39:28Z</time>
      </trkpt>
      <trkpt lat="46.37664" lon="-0.33576">
        <ele>88</ele>
        <time>2012-10-26T14:39:33Z</time>
      </trkpt>
      <trkpt lat="46.3767" lon="-0.33571">
        <ele>88</ele>
        <time>2012-10-26T14:39:38Z</time>
      </trkpt>
      <trkpt lat="46.37673" lon="-0.33565">
        <ele>86</ele>
        <time>2012-10-26T14:39:43Z</time>
      </trkpt>
      <trkpt lat="46.37677" lon="-0.3356">
        <ele>85</ele>
        <time>2012-10-26T14:39:48Z</time>
      </trkpt>
      <trkpt lat="46.37681" lon="-0.33554">
        <ele>85</ele>
        <time>2012-10-26T14:39:53Z</time>
      </trkpt>
      <trkpt lat="46.37684" lon="-0.3355">
        <ele>85</ele>
        <time>2012-10-26T14:39:58Z</time>
      </trkpt>
      <trkpt lat="46.3769" lon="-0.33545">
        <ele>85</ele>
        <time>2012-10-26T14:40:03Z</time>
      </trkpt>
      <trkpt lat="46.37693" lon="-0.33539">
        <ele>85</ele>
        <time>2012-10-26T14:40:08Z</time>
      </trkpt>
      <trkpt lat="46.37698" lon="-0.33534">
        <ele>86</ele>
        <time>2012-10-26T14:40:13Z</time>
      </trkpt>
      <trkpt lat="46.37703" lon="-0.33529">
        <ele>86</ele>
        <time>2012-10-26T14:40:18Z</time>
      </trkpt>
      <trkpt lat="46.37709" lon="-0.33521">
        <ele>87</ele>
        <time>2012-10-26T14:40:23Z</time>
      </trkpt>
      <trkpt lat="46.37716" lon="-0.33516">
        <ele>90</ele>
        <time>2012-10-26T14:40:28Z</time>
      </trkpt>
      <trkpt lat="46.37723" lon="-0.33513">
        <ele>91</ele>
        <time>2012-10-26T14:40:33Z</time>
      </trkpt>
      <trkpt lat="46.37727" lon="-0.33508">
        <ele>89</ele>
        <time>2012-10-26T14:40:38Z</time>
      </trkpt>
      <trkpt lat="46.37731" lon="-0.33503">
        <ele>89</ele>
        <time>2012-10-26T14:40:43Z</time>
      </trkpt>
      <trkpt lat="46.37736" lon="-0.33498">
        <ele>87</ele>
        <time>2012-10-26T14:40:48Z</time>
      </trkpt>
      <trkpt lat="46.37738" lon="-0.33493">
        <ele>85</ele>
        <time>2012-10-26T14:40:53Z</time>
      </trkpt>
      <trkpt lat="46.37744" lon="-0.33487">
        <ele>84</ele>
        <time>2012-10-26T14:40:58Z</time>
      </trkpt>
      <trkpt lat="46.37752" lon="-0.33484">
        <ele>85</ele>
        <time>2012-10-26T14:41:03Z</time>
      </trkpt>
      <trkpt lat="46.37758" lon="-0.33479">
        <ele>87</ele>
        <time>2012-10-26T14:41:08Z</time>
      </trkpt>
      <trkpt lat="46.37761" lon="-0.33475">
        <ele>87</ele>
        <time>2012-10-26T14:41:13Z</time>
      </trkpt>
      <trkpt lat="46.37764" lon="-0.33471">
        <ele>87</ele>
        <time>2012-10-26T14:41:18Z</time>
      </trkpt>
      <trkpt lat="46.3777" lon="-0.33466">
        <ele>92</ele>
        <time>2012-10-26T14:41:23Z</time>
      </trkpt>
      <trkpt lat="46.37777" lon="-0.33461">
        <ele>94</ele>
        <time>2012-10-26T14:41:28Z</time>
      </trkpt>
      <trkpt lat="46.37778" lon="-0.33459">
        <ele>94</ele>
        <time>2012-10-26T14:41:33Z</time>
      </trkpt>
      <trkpt lat="46.37781" lon="-0.33453">
        <ele>91</ele>
        <time>2012-10-26T14:41:38Z</time>
      </trkpt>
      <trkpt lat="46.37785" lon="-0.3345">
        <ele>91</ele>
        <time>2012-10-26T14:41:43Z</time>
      </trkpt>
      <trkpt lat="46.37787" lon="-0.33447">
        <ele>91</ele>
        <time>2012-10-26T14:41:48Z</time>
      </trkpt>
      <trkpt lat="46.37794" lon="-0.33437">
        <ele>89</ele>
        <time>2012-10-26T14:41:53Z</time>
      </trkpt>
      <trkpt lat="46.378" lon="-0.33429">
        <ele>89</ele>
        <time>2012-10-26T14:41:58Z</time>
      </trkpt>
      <trkpt lat="46.37808" lon="-0.33424">
        <ele>90</ele>
        <time>2012-10-26T14:42:03Z</time>
      </trkpt>
      <trkpt lat="46.37813" lon="-0.33417">
        <ele>90</ele>
        <time>2012-10-26T14:42:08Z</time>
      </trkpt>
      <trkpt lat="46.37817" lon="-0.33414">
        <ele>87</ele>
        <time>2012-10-26T14:42:13Z</time>
      </trkpt>
      <trkpt lat="46.37823" lon="-0.33408">
        <ele>87</ele>
        <time>2012-10-26T14:42:18Z</time>
      </trkpt>
      <trkpt lat="46.37828" lon="-0.33404">
        <ele>86</ele>
        <time>2012-10-26T14:42:23Z</time>
      </trkpt>
      <trkpt lat="46.37832" lon="-0.33399">
        <ele>86</ele>
        <time>2012-10-26T14:42:28Z</time>
      </trkpt>
      <trkpt lat="46.37838" lon="-0.33394">
        <ele>86</ele>
        <time>2012-10-26T14:42:33Z</time>
      </trkpt>
      <trkpt lat="46.37842" lon="-0.33388">
        <ele>88</ele>
        <time>2012-10-26T14:42:38Z</time>
      </trkpt>
      <trkpt lat="46.37848" lon="-0.33381">
        <ele>88</ele>
        <time>2012-10-26T14:42:43Z</time>
      </trkpt>
      <trkpt lat="46.37851" lon="-0.33378">
        <ele>90</ele>
        <time>2012-10-26T14:42:48Z</time>
      </trkpt>
      <trkpt lat="46.37855" lon="-0.33372">
        <ele>88</ele>
        <time>2012-10-26T14:42:53Z</time>
      </trkpt>
      <trkpt lat="46.37859" lon="-0.33367">
        <ele>88</ele>
        <time>2012-10-26T14:42:58Z</time>
      </trkpt>
      <trkpt lat="46.37867" lon="-0.33367">
        <ele>88</ele>
        <time>2012-10-26T14:43:03Z</time>
      </trkpt>
      <trkpt lat="46.37873" lon="-0.3336">
        <ele>88</ele>
        <time>2012-10-26T14:43:08Z</time>
      </trkpt>
      <trkpt lat="46.37878" lon="-0.33354">
        <ele>89</ele>
        <time>2012-10-26T14:43:13Z</time>
      </trkpt>
      <trkpt lat="46.37885" lon="-0.33349">
        <ele>91</ele>
        <time>2012-10-26T14:43:18Z</time>
      </trkpt>
      <trkpt lat="46.3789" lon="-0.33343">
        <ele>90</ele>
        <time>2012-10-26T14:43:23Z</time>
      </trkpt>
      <trkpt lat="46.37892" lon="-0.33339">
        <ele>89</ele>
        <time>2012-10-26T14:43:28Z</time>
      </trkpt>
      <trkpt lat="46.37899" lon="-0.33336">
        <ele>91</ele>
        <time>2012-10-26T14:43:33Z</time>
      </trkpt>
      <trkpt lat="46.37905" lon="-0.33332">
        <ele>91</ele>
        <time>2012-10-26T14:43:38Z</time>
      </trkpt>
      <trkpt lat="46.3791" lon="-0.33328">
        <ele>91</ele>
        <time>2012-10-26T14:43:43Z</time>
      </trkpt>
      <trkpt lat="46.37915" lon="-0.33323">
        <ele>90</ele>
        <time>2012-10-26T14:43:48Z</time>
      </trkpt>
      <trkpt lat="46.3792" lon="-0.33319">
        <ele>90</ele>
        <time>2012-10-26T14:43:53Z</time>
      </trkpt>
      <trkpt lat="46.37926" lon="-0.33317">
        <ele>88</ele>
        <time>2012-10-26T14:43:58Z</time>
      </trkpt>
      <trkpt lat="46.37932" lon="-0.33311">
        <ele>89</ele>
        <time>2012-10-26T14:44:03Z</time>
      </trkpt>
      <trkpt lat="46.37937" lon="-0.33306">
        <ele>90</ele>
        <time>2012-10-26T14:44:08Z</time>
      </trkpt>
      <trkpt lat="46.37943" lon="-0.33303">
        <ele>89</ele>
        <time>2012-10-26T14:44:13Z</time>
      </trkpt>
      <trkpt lat="46.37947" lon="-0.333">
        <ele>89</ele>
        <time>2012-10-26T14:44:18Z</time>
      </trkpt>
      <trkpt lat="46.37952" lon="-0.33298">
        <ele>87</ele>
        <time>2012-10-26T14:44:23Z</time>
      </trkpt>
      <trkpt lat="46.37956" lon="-0.33293">
        <ele>87</ele>
        <time>2012-10-26T14:44:28Z</time>
      </trkpt>
      <trkpt lat="46.37962" lon="-0.33288">
        <ele>88</ele>
        <time>2012-10-26T14:44:33Z</time>
      </trkpt>
      <trkpt lat="46.37966" lon="-0.33281">
        <ele>87</ele>
        <time>2012-10-26T14:44:38Z</time>
      </trkpt>
      <trkpt lat="46.37972" lon="-0.33278">
        <ele>87</ele>
        <time>2012-10-26T14:44:43Z</time>
      </trkpt>
      <trkpt lat="46.37977" lon="-0.33273">
        <ele>85</ele>
        <time>2012-10-26T14:44:48Z</time>
      </trkpt>
      <trkpt lat="46.37982" lon="-0.33268">
        <ele>85</ele>
        <time>2012-10-26T14:44:53Z</time>
      </trkpt>
      <trkpt lat="46.37989" lon="-0.33265">
        <ele>87</ele>
        <time>2012-10-26T14:44:58Z</time>
      </trkpt>
      <trkpt lat="46.37995" lon="-0.33262">
        <ele>88</ele>
        <time>2012-10-26T14:45:03Z</time>
      </trkpt>
      <trkpt lat="46.38002" lon="-0.33257">
        <ele>91</ele>
        <time>2012-10-26T14:45:08Z</time>
      </trkpt>
      <trkpt lat="46.38007" lon="-0.33251">
        <ele>92</ele>
        <time>2012-10-26T14:45:13Z</time>
      </trkpt>
      <trkpt lat="46.38013" lon="-0.33249">
        <ele>90</ele>
        <time>2012-10-26T14:45:18Z</time>
      </trkpt>
      <trkpt lat="46.38018" lon="-0.33243">
        <ele>91</ele>
        <time>2012-10-26T14:45:23Z</time>
      </trkpt>
      <trkpt lat="46.38022" lon="-0.33239">
        <ele>91</ele>
        <time>2012-10-26T14:45:28Z</time>
      </trkpt>
      <trkpt lat="46.38025" lon="-0.33234">
        <ele>89</ele>
        <time>2012-10-26T14:45:33Z</time>
      </trkpt>
      <trkpt lat="46.38035" lon="-0.33229">
        <ele>90</ele>
        <time>2012-10-26T14:45:38Z</time>
      </trkpt>
      <trkpt lat="46.38039" lon="-0.33225">
        <ele>89</ele>
        <time>2012-10-26T14:45:43Z</time>
      </trkpt>
      <trkpt lat="46.38043" lon="-0.33218">
        <ele>89</ele>
        <time>2012-10-26T14:45:48Z</time>
      </trkpt>
      <trkpt lat="46.38048" lon="-0.33215">
        <ele>89</ele>
        <time>2012-10-26T14:45:53Z</time>
      </trkpt>
      <trkpt lat="46.38054" lon="-0.33212">
        <ele>90</ele>
        <time>2012-10-26T14:45:58Z</time>
      </trkpt>
      <trkpt lat="46.38059" lon="-0.33207">
        <ele>91</ele>
        <time>2012-10-26T14:46:03Z</time>
      </trkpt>
      <trkpt lat="46.38063" lon="-0.33204">
        <ele>89</ele>
        <time>2012-10-26T14:46:08Z</time>
      </trkpt>
      <trkpt lat="46.38068" lon="-0.33198">
        <ele>88</ele>
        <time>2012-10-26T14:46:13Z</time>
      </trkpt>
      <trkpt lat="46.38074" lon="-0.33197">
        <ele>88</ele>
        <time>2012-10-26T14:46:18Z</time>
      </trkpt>
      <trkpt lat="46.38078" lon="-0.33191">
        <ele>88</ele>
        <time>2012-10-26T14:46:23Z</time>
      </trkpt>
      <trkpt lat="46.38082" lon="-0.33188">
        <ele>88</ele>
        <time>2012-10-26T14:46:28Z</time>
      </trkpt>
      <trkpt lat="46.38088" lon="-0.33182">
        <ele>90</ele>
        <time>2012-10-26T14:46:33Z</time>
      </trkpt>
      <trkpt lat="46.38095" lon="-0.33175">
        <ele>92</ele>
        <time>2012-10-26T14:46:38Z</time>
      </trkpt>
      <trkpt lat="46.38101" lon="-0.33171">
        <ele>91</ele>
        <time>2012-10-26T14:46:43Z</time>
      </trkpt>
      <trkpt lat="46.38105" lon="-0.33167">
        <ele>90</ele>
        <time>2012-10-26T14:46:48Z</time>
      </trkpt>
      <trkpt lat="46.38111" lon="-0.33171">
        <ele>85</ele>
        <time>2012-10-26T14:46:53Z</time>
      </trkpt>
      <trkpt lat="46.38116" lon="-0.33162">
        <ele>88</ele>
        <time>2012-10-26T14:46:58Z</time>
      </trkpt>
      <trkpt lat="46.3812" lon="-0.33155">
        <ele>89</ele>
        <time>2012-10-26T14:47:03Z</time>
      </trkpt>
      <trkpt lat="46.38125" lon="-0.3315">
        <ele>88</ele>
        <time>2012-10-26T14:47:08Z</time>
      </trkpt>
      <trkpt lat="46.38129" lon="-0.33147">
        <ele>84</ele>
        <time>2012-10-26T14:47:13Z</time>
      </trkpt>
      <trkpt lat="46.38135" lon="-0.33141">
        <ele>87</ele>
        <time>2012-10-26T14:47:18Z</time>
      </trkpt>
      <trkpt lat="46.38138" lon="-0.3314">
        <ele>87</ele>
        <time>2012-10-26T14:47:23Z</time>
      </trkpt>
      <trkpt lat="46.38147" lon="-0.33134">
        <ele>87</ele>
        <time>2012-10-26T14:47:28Z</time>
      </trkpt>
      <trkpt lat="46.38153" lon="-0.3313">
        <ele>88</ele>
        <time>2012-10-26T14:47:33Z</time>
      </trkpt>
      <trkpt lat="46.38157" lon="-0.33124">
        <ele>88</ele>
        <time>2012-10-26T14:47:38Z</time>
      </trkpt>
      <trkpt lat="46.38163" lon="-0.33117">
        <ele>88</ele>
        <time>2012-10-26T14:47:43Z</time>
      </trkpt>
      <trkpt lat="46.38169" lon="-0.33114">
        <ele>88</ele>
        <time>2012-10-26T14:47:48Z</time>
      </trkpt>
      <trkpt lat="46.38175" lon="-0.3311">
        <ele>88</ele>
        <time>2012-10-26T14:47:53Z</time>
      </trkpt>
      <trkpt lat="46.38178" lon="-0.33109">
        <ele>86</ele>
        <time>2012-10-26T14:47:58Z</time>
      </trkpt>
      <trkpt lat="46.3818" lon="-0.33103">
        <ele>89</ele>
        <time>2012-10-26T14:48:03Z</time>
      </trkpt>
      <trkpt lat="46.38185" lon="-0.33098">
        <ele>88</ele>
        <time>2012-10-26T14:48:08Z</time>
      </trkpt>
      <trkpt lat="46.38188" lon="-0.33095">
        <ele>88</ele>
        <time>2012-10-26T14:48:13Z</time>
      </trkpt>
      <trkpt lat="46.38191" lon="-0.3309">
        <ele>86</ele>
        <time>2012-10-26T14:48:18Z</time>
      </trkpt>
      <trkpt lat="46.382" lon="-0.33085">
        <ele>90</ele>
        <time>2012-10-26T14:48:23Z</time>
      </trkpt>
      <trkpt lat="46.38204" lon="-0.33078">
        <ele>88</ele>
        <time>2012-10-26T14:48:28Z</time>
      </trkpt>
      <trkpt lat="46.38206" lon="-0.33075">
        <ele>92</ele>
        <time>2012-10-26T14:48:33Z</time>
      </trkpt>
      <trkpt lat="46.38213" lon="-0.33066">
        <ele>91</ele>
        <time>2012-10-26T14:48:38Z</time>
      </trkpt>
      <trkpt lat="46.38218" lon="-0.33062">
        <ele>91</ele>
        <time>2012-10-26T14:48:43Z</time>
      </trkpt>
      <trkpt lat="46.38225" lon="-0.33055">
        <ele>93</ele>
        <time>2012-10-26T14:48:48Z</time>
      </trkpt>
      <trkpt lat="46.38228" lon="-0.33049">
        <ele>92</ele>
        <time>2012-10-26T14:48:53Z</time>
      </trkpt>
      <trkpt lat="46.38232" lon="-0.33044">
        <ele>90</ele>
        <time>2012-10-26T14:48:58Z</time>
      </trkpt>
      <trkpt lat="46.38234" lon="-0.33043">
        <ele>90</ele>
        <time>2012-10-26T14:49:03Z</time>
      </trkpt>
      <trkpt lat="46.38236" lon="-0.33041">
        <ele>89</ele>
        <time>2012-10-26T14:49:08Z</time>
      </trkpt>
      <trkpt lat="46.38238" lon="-0.33038">
        <ele>89</ele>
        <time>2012-10-26T14:49:13Z</time>
      </trkpt>
      <trkpt lat="46.38241" lon="-0.33036">
        <ele>89</ele>
        <time>2012-10-26T14:49:18Z</time>
      </trkpt>
      <trkpt lat="46.38242" lon="-0.33034">
        <ele>89</ele>
        <time>2012-10-26T14:49:23Z</time>
      </trkpt>
      <trkpt lat="46.38246" lon="-0.33031">
        <ele>91</ele>
        <time>2012-10-26T14:49:28Z</time>
      </trkpt>
      <trkpt lat="46.38251" lon="-0.33027">
        <ele>90</ele>
        <time>2012-10-26T14:49:33Z</time>
      </trkpt>
      <trkpt lat="46.38264" lon="-0.33015">
        <ele>89</ele>
        <time>2012-10-26T14:49:38Z</time>
      </trkpt>
      <trkpt lat="46.38264" lon="-0.3301">
        <ele>86</ele>
        <time>2012-10-26T14:49:43Z</time>
      </trkpt>
      <trkpt lat="46.38268" lon="-0.33004">
        <ele>86</ele>
        <time>2012-10-26T14:49:48Z</time>
      </trkpt>
      <trkpt lat="46.38272" lon="-0.33002">
        <ele>86</ele>
        <time>2012-10-26T14:49:53Z</time>
      </trkpt>
      <trkpt lat="46.38274" lon="-0.32999">
        <ele>87</ele>
        <time>2012-10-26T14:49:58Z</time>
      </trkpt>
      <trkpt lat="46.38288" lon="-0.32984">
        <ele>85</ele>
        <time>2012-10-26T14:50:03Z</time>
      </trkpt>
      <trkpt lat="46.38296" lon="-0.32977">
        <ele>87</ele>
        <time>2012-10-26T14:50:08Z</time>
      </trkpt>
      <trkpt lat="46.38303" lon="-0.32971">
        <ele>89</ele>
        <time>2012-10-26T14:50:13Z</time>
      </trkpt>
      <trkpt lat="46.38304" lon="-0.32969">
        <ele>88</ele>
        <time>2012-10-26T14:50:18Z</time>
      </trkpt>
      <trkpt lat="46.38308" lon="-0.32968">
        <ele>90</ele>
        <time>2012-10-26T14:50:23Z</time>
      </trkpt>
      <trkpt lat="46.38311" lon="-0.32966">
        <ele>91</ele>
        <time>2012-10-26T14:50:28Z</time>
      </trkpt>
      <trkpt lat="46.38311" lon="-0.32965">
        <ele>90</ele>
        <time>2012-10-26T14:50:33Z</time>
      </trkpt>
      <trkpt lat="46.38311" lon="-0.32964">
        <ele>91</ele>
        <time>2012-10-26T14:50:38Z</time>
      </trkpt>
      <trkpt lat="46.38313" lon="-0.32957">
        <ele>91</ele>
        <time>2012-10-26T14:51:18Z</time>
      </trkpt>
      <trkpt lat="46.38316" lon="-0.32946">
        <ele>94</ele>
        <time>2012-10-26T14:51:23Z</time>
      </trkpt>
      <trkpt lat="46.38323" lon="-0.32942">
        <ele>94</ele>
        <time>2012-10-26T14:51:28Z</time>
      </trkpt>
      <trkpt lat="46.38327" lon="-0.32936">
        <ele>93</ele>
        <time>2012-10-26T14:51:33Z</time>
      </trkpt>
      <trkpt lat="46.38328" lon="-0.32931">
        <ele>90</ele>
        <time>2012-10-26T14:51:38Z</time>
      </trkpt>
      <trkpt lat="46.38332" lon="-0.32924">
        <ele>91</ele>
        <time>2012-10-26T14:51:43Z</time>
      </trkpt>
      <trkpt lat="46.38337" lon="-0.32918">
        <ele>91</ele>
        <time>2012-10-26T14:51:48Z</time>
      </trkpt>
      <trkpt lat="46.3834" lon="-0.32917">
        <ele>89</ele>
        <time>2012-10-26T14:51:53Z</time>
      </trkpt>
      <trkpt lat="46.38342" lon="-0.32913">
        <ele>87</ele>
        <time>2012-10-26T14:51:58Z</time>
      </trkpt>
      <trkpt lat="46.38346" lon="-0.32921">
        <ele>81</ele>
        <time>2012-10-26T14:52:03Z</time>
      </trkpt>
      <trkpt lat="46.38347" lon="-0.32924">
        <ele>83</ele>
        <time>2012-10-26T14:52:08Z</time>
      </trkpt>
      <trkpt lat="46.38348" lon="-0.32926">
        <ele>84</ele>
        <time>2012-10-26T14:52:13Z</time>
      </trkpt>
      <trkpt lat="46.38348" lon="-0.32928">
        <ele>85</ele>
        <time>2012-10-26T14:52:23Z</time>
      </trkpt>
      <trkpt lat="46.3835" lon="-0.32935">
        <ele>85</ele>
        <time>2012-10-26T14:52:33Z</time>
      </trkpt>
      <trkpt lat="46.38352" lon="-0.32936">
        <ele>86</ele>
        <time>2012-10-26T14:52:38Z</time>
      </trkpt>
      <trkpt lat="46.38355" lon="-0.32942">
        <ele>86</ele>
        <time>2012-10-26T14:52:48Z</time>
      </trkpt>
      <trkpt lat="46.3835" lon="-0.32948">
        <ele>86</ele>
        <time>2012-10-26T14:52:53Z</time>
      </trkpt>
      <trkpt lat="46.38346" lon="-0.32952">
        <ele>89</ele>
        <time>2012-10-26T14:52:58Z</time>
      </trkpt>
      <trkpt lat="46.38343" lon="-0.32952">
        <ele>88</ele>
        <time>2012-10-26T14:53:03Z</time>
      </trkpt>
      <trkpt lat="46.38341" lon="-0.32953">
        <ele>87</ele>
        <time>2012-10-26T14:53:08Z</time>
      </trkpt>
      <trkpt lat="46.3834" lon="-0.32954">
        <ele>86</ele>
        <time>2012-10-26T14:53:13Z</time>
      </trkpt>
      <trkpt lat="46.38341" lon="-0.32954">
        <ele>86</ele>
        <time>2012-10-26T14:53:18Z</time>
      </trkpt>
      <trkpt lat="46.38342" lon="-0.32955">
        <ele>87</ele>
        <time>2012-10-26T14:53:23Z</time>
      </trkpt>
      <trkpt lat="46.38344" lon="-0.32955">
        <ele>87</ele>
        <time>2012-10-26T14:53:28Z</time>
      </trkpt>
      <trkpt lat="46.38344" lon="-0.32955">
        <ele>87</ele>
        <time>2012-10-26T14:53:33Z</time>
      </trkpt>
      <trkpt lat="46.38343" lon="-0.32951">
        <ele>86</ele>
        <time>2012-10-26T14:53:38Z</time>
      </trkpt>
      <trkpt lat="46.38344" lon="-0.32951">
        <ele>85</ele>
        <time>2012-10-26T14:53:43Z</time>
      </trkpt>
      <trkpt lat="46.38344" lon="-0.32951">
        <ele>85</ele>
        <time>2012-10-26T14:53:48Z</time>
      </trkpt>
      <trkpt lat="46.38347" lon="-0.32948">
        <ele>86</ele>
        <time>2012-10-26T14:54:33Z</time>
      </trkpt>
      <trkpt lat="46.38352" lon="-0.32945">
        <ele>85</ele>
        <time>2012-10-26T14:54:38Z</time>
      </trkpt>
      <trkpt lat="46.38354" lon="-0.32946">
        <ele>85</ele>
        <time>2012-10-26T14:54:43Z</time>
      </trkpt>
      <trkpt lat="46.38356" lon="-0.3295">
        <ele>85</ele>
        <time>2012-10-26T14:54:48Z</time>
      </trkpt>
      <trkpt lat="46.38362" lon="-0.32954">
        <ele>84</ele>
        <time>2012-10-26T14:54:53Z</time>
      </trkpt>
      <trkpt lat="46.38364" lon="-0.32961">
        <ele>84</ele>
        <time>2012-10-26T14:54:58Z</time>
      </trkpt>
      <trkpt lat="46.38365" lon="-0.3297">
        <ele>84</ele>
        <time>2012-10-26T14:55:03Z</time>
      </trkpt>
      <trkpt lat="46.38364" lon="-0.32977">
        <ele>84</ele>
        <time>2012-10-26T14:55:08Z</time>
      </trkpt>
      <trkpt lat="46.38362" lon="-0.32985">
        <ele>86</ele>
        <time>2012-10-26T14:55:13Z</time>
      </trkpt>
      <trkpt lat="46.38361" lon="-0.32993">
        <ele>90</ele>
        <time>2012-10-26T14:55:18Z</time>
      </trkpt>
      <trkpt lat="46.3836" lon="-0.33001">
        <ele>90</ele>
        <time>2012-10-26T14:55:23Z</time>
      </trkpt>
      <trkpt lat="46.38357" lon="-0.33009">
        <ele>89</ele>
        <time>2012-10-26T14:55:28Z</time>
      </trkpt>
      <trkpt lat="46.38355" lon="-0.33016">
        <ele>88</ele>
        <time>2012-10-26T14:55:33Z</time>
      </trkpt>
      <trkpt lat="46.38354" lon="-0.33023">
        <ele>89</ele>
        <time>2012-10-26T14:55:38Z</time>
      </trkpt>
      <trkpt lat="46.38353" lon="-0.3303">
        <ele>88</ele>
        <time>2012-10-26T14:55:43Z</time>
      </trkpt>
      <trkpt lat="46.38351" lon="-0.33039">
        <ele>89</ele>
        <time>2012-10-26T14:55:48Z</time>
      </trkpt>
      <trkpt lat="46.3835" lon="-0.33048">
        <ele>91</ele>
        <time>2012-10-26T14:55:53Z</time>
      </trkpt>
      <trkpt lat="46.38349" lon="-0.33057">
        <ele>91</ele>
        <time>2012-10-26T14:55:58Z</time>
      </trkpt>
      <trkpt lat="46.38348" lon="-0.33064">
        <ele>90</ele>
        <time>2012-10-26T14:56:03Z</time>
      </trkpt>
      <trkpt lat="46.38348" lon="-0.33072">
        <ele>91</ele>
        <time>2012-10-26T14:56:08Z</time>
      </trkpt>
      <trkpt lat="46.38348" lon="-0.3308">
        <ele>91</ele>
        <time>2012-10-26T14:56:13Z</time>
      </trkpt>
      <trkpt lat="46.38347" lon="-0.33087">
        <ele>89</ele>
        <time>2012-10-26T14:56:18Z</time>
      </trkpt>
      <trkpt lat="46.38347" lon="-0.33096">
        <ele>89</ele>
        <time>2012-10-26T14:56:23Z</time>
      </trkpt>
      <trkpt lat="46.38346" lon="-0.33105">
        <ele>89</ele>
        <time>2012-10-26T14:56:28Z</time>
      </trkpt>
      <trkpt lat="46.38343" lon="-0.33114">
        <ele>90</ele>
        <time>2012-10-26T14:56:33Z</time>
      </trkpt>
      <trkpt lat="46.38345" lon="-0.33119">
        <ele>89</ele>
        <time>2012-10-26T14:56:38Z</time>
      </trkpt>
      <trkpt lat="46.38344" lon="-0.33126">
        <ele>89</ele>
        <time>2012-10-26T14:56:43Z</time>
      </trkpt>
      <trkpt lat="46.38344" lon="-0.33134">
        <ele>89</ele>
        <time>2012-10-26T14:56:48Z</time>
      </trkpt>
      <trkpt lat="46.38342" lon="-0.33145">
        <ele>89</ele>
        <time>2012-10-26T14:56:53Z</time>
      </trkpt>
      <trkpt lat="46.3834" lon="-0.33155">
        <ele>90</ele>
        <time>2012-10-26T14:56:58Z</time>
      </trkpt>
      <trkpt lat="46.38339" lon="-0.33166">
        <ele>89</ele>
        <time>2012-10-26T14:57:03Z</time>
      </trkpt>
      <trkpt lat="46.38338" lon="-0.33173">
        <ele>88</ele>
        <time>2012-10-26T14:57:08Z</time>
      </trkpt>
      <trkpt lat="46.38338" lon="-0.33179">
        <ele>89</ele>
        <time>2012-10-26T14:57:13Z</time>
      </trkpt>
      <trkpt lat="46.38337" lon="-0.3319">
        <ele>88</ele>
        <time>2012-10-26T14:57:18Z</time>
      </trkpt>
      <trkpt lat="46.38338" lon="-0.332">
        <ele>87</ele>
        <time>2012-10-26T14:57:23Z</time>
      </trkpt>
      <trkpt lat="46.38339" lon="-0.33208">
        <ele>87</ele>
        <time>2012-10-26T14:57:28Z</time>
      </trkpt>
      <trkpt lat="46.3834" lon="-0.33214">
        <ele>87</ele>
        <time>2012-10-26T14:57:33Z</time>
      </trkpt>
      <trkpt lat="46.38335" lon="-0.33221">
        <ele>87</ele>
        <time>2012-10-26T14:57:38Z</time>
      </trkpt>
      <trkpt lat="46.38333" lon="-0.3323">
        <ele>87</ele>
        <time>2012-10-26T14:57:43Z</time>
      </trkpt>
      <trkpt lat="46.38327" lon="-0.33238">
        <ele>91</ele>
        <time>2012-10-26T14:57:48Z</time>
      </trkpt>
      <trkpt lat="46.38324" lon="-0.33245">
        <ele>92</ele>
        <time>2012-10-26T14:57:53Z</time>
      </trkpt>
      <trkpt lat="46.38321" lon="-0.33252">
        <ele>91</ele>
        <time>2012-10-26T14:57:58Z</time>
      </trkpt>
      <trkpt lat="46.38318" lon="-0.33257">
        <ele>89</ele>
        <time>2012-10-26T14:58:03Z</time>
      </trkpt>
      <trkpt lat="46.38317" lon="-0.33259">
        <ele>90</ele>
        <time>2012-10-26T14:58:08Z</time>
      </trkpt>
      <trkpt lat="46.38316" lon="-0.33263">
        <ele>90</ele>
        <time>2012-10-26T14:58:13Z</time>
      </trkpt>
      <trkpt lat="46.38312" lon="-0.33271">
        <ele>91</ele>
        <time>2012-10-26T14:58:18Z</time>
      </trkpt>
      <trkpt lat="46.38308" lon="-0.33278">
        <ele>90</ele>
        <time>2012-10-26T14:58:23Z</time>
      </trkpt>
      <trkpt lat="46.38304" lon="-0.33285">
        <ele>90</ele>
        <time>2012-10-26T14:58:28Z</time>
      </trkpt>
      <trkpt lat="46.383" lon="-0.33291">
        <ele>89</ele>
        <time>2012-10-26T14:58:33Z</time>
      </trkpt>
      <trkpt lat="46.38296" lon="-0.33299">
        <ele>89</ele>
        <time>2012-10-26T14:58:38Z</time>
      </trkpt>
      <trkpt lat="46.38292" lon="-0.33308">
        <ele>89</ele>
        <time>2012-10-26T14:58:43Z</time>
      </trkpt>
      <trkpt lat="46.38289" lon="-0.33317">
        <ele>90</ele>
        <time>2012-10-26T14:58:48Z</time>
      </trkpt>
      <trkpt lat="46.38285" lon="-0.33324">
        <ele>91</ele>
        <time>2012-10-26T14:58:53Z</time>
      </trkpt>
      <trkpt lat="46.38281" lon="-0.33333">
        <ele>92</ele>
        <time>2012-10-26T14:58:58Z</time>
      </trkpt>
      <trkpt lat="46.38277" lon="-0.33341">
        <ele>93</ele>
        <time>2012-10-26T14:59:03Z</time>
      </trkpt>
      <trkpt lat="46.38274" lon="-0.33349">
        <ele>94</ele>
        <time>2012-10-26T14:59:08Z</time>
      </trkpt>
      <trkpt lat="46.38272" lon="-0.33356">
        <ele>93</ele>
        <time>2012-10-26T14:59:13Z</time>
      </trkpt>
      <trkpt lat="46.38269" lon="-0.33363">
        <ele>93</ele>
        <time>2012-10-26T14:59:18Z</time>
      </trkpt>
      <trkpt lat="46.38268" lon="-0.33369">
        <ele>92</ele>
        <time>2012-10-26T14:59:23Z</time>
      </trkpt>
      <trkpt lat="46.38265" lon="-0.33377">
        <ele>91</ele>
        <time>2012-10-26T14:59:28Z</time>
      </trkpt>
      <trkpt lat="46.38262" lon="-0.33384">
        <ele>88</ele>
        <time>2012-10-26T14:59:33Z</time>
      </trkpt>
      <trkpt lat="46.3826" lon="-0.33391">
        <ele>88</ele>
        <time>2012-10-26T14:59:38Z</time>
      </trkpt>
      <trkpt lat="46.38257" lon="-0.33398">
        <ele>88</ele>
        <time>2012-10-26T14:59:43Z</time>
      </trkpt>
      <trkpt lat="46.38255" lon="-0.33405">
        <ele>88</ele>
        <time>2012-10-26T14:59:48Z</time>
      </trkpt>
      <trkpt lat="46.38252" lon="-0.33412">
        <ele>88</ele>
        <time>2012-10-26T14:59:53Z</time>
      </trkpt>
      <trkpt lat="46.38251" lon="-0.33421">
        <ele>91</ele>
        <time>2012-10-26T14:59:58Z</time>
      </trkpt>
      <trkpt lat="46.38246" lon="-0.33426">
        <ele>94</ele>
        <time>2012-10-26T15:00:03Z</time>
      </trkpt>
      <trkpt lat="46.38245" lon="-0.33436">
        <ele>94</ele>
        <time>2012-10-26T15:00:08Z</time>
      </trkpt>
      <trkpt lat="46.38242" lon="-0.33445">
        <ele>96</ele>
        <time>2012-10-26T15:00:13Z</time>
      </trkpt>
      <trkpt lat="46.38237" lon="-0.33454">
        <ele>100</ele>
        <time>2012-10-26T15:00:18Z</time>
      </trkpt>
      <trkpt lat="46.38238" lon="-0.3346">
        <ele>98</ele>
        <time>2012-10-26T15:00:23Z</time>
      </trkpt>
      <trkpt lat="46.38236" lon="-0.33467">
        <ele>99</ele>
        <time>2012-10-26T15:00:28Z</time>
      </trkpt>
      <trkpt lat="46.38236" lon="-0.33478">
        <ele>98</ele>
        <time>2012-10-26T15:00:33Z</time>
      </trkpt>
      <trkpt lat="46.38237" lon="-0.33484">
        <ele>97</ele>
        <time>2012-10-26T15:00:38Z</time>
      </trkpt>
      <trkpt lat="46.38243" lon="-0.33485">
        <ele>95</ele>
        <time>2012-10-26T15:00:43Z</time>
      </trkpt>
      <trkpt lat="46.38245" lon="-0.33486">
        <ele>95</ele>
        <time>2012-10-26T15:00:48Z</time>
      </trkpt>
      <trkpt lat="46.38244" lon="-0.33486">
        <ele>95</ele>
        <time>2012-10-26T15:00:53Z</time>
      </trkpt>
      <trkpt lat="46.38246" lon="-0.33488">
        <ele>94</ele>
        <time>2012-10-26T15:01:03Z</time>
      </trkpt>
      <trkpt lat="46.3825" lon="-0.33491">
        <ele>94</ele>
        <time>2012-10-26T15:01:08Z</time>
      </trkpt>
      <trkpt lat="46.38249" lon="-0.33494">
        <ele>94</ele>
        <time>2012-10-26T15:01:18Z</time>
      </trkpt>
      <trkpt lat="46.38247" lon="-0.33496">
        <ele>93</ele>
        <time>2012-10-26T15:01:23Z</time>
      </trkpt>
      <trkpt lat="46.38247" lon="-0.33497">
        <ele>93</ele>
        <time>2012-10-26T15:01:33Z</time>
      </trkpt>
      <trkpt lat="46.38247" lon="-0.33498">
        <ele>93</ele>
        <time>2012-10-26T15:01:43Z</time>
      </trkpt>
      <trkpt lat="46.38246" lon="-0.33501">
        <ele>94</ele>
        <time>2012-10-26T15:01:48Z</time>
      </trkpt>
      <trkpt lat="46.38251" lon="-0.33501">
        <ele>92</ele>
        <time>2012-10-26T15:01:53Z</time>
      </trkpt>
      <trkpt lat="46.38254" lon="-0.33506">
        <ele>92</ele>
        <time>2012-10-26T15:01:58Z</time>
      </trkpt>
      <trkpt lat="46.38258" lon="-0.33508">
        <ele>91</ele>
        <time>2012-10-26T15:02:03Z</time>
      </trkpt>
      <trkpt lat="46.38263" lon="-0.33512">
        <ele>92</ele>
        <time>2012-10-26T15:02:08Z</time>
      </trkpt>
      <trkpt lat="46.38268" lon="-0.33517">
        <ele>92</ele>
        <time>2012-10-26T15:02:13Z</time>
      </trkpt>
      <trkpt lat="46.38273" lon="-0.33524">
        <ele>92</ele>
        <time>2012-10-26T15:02:18Z</time>
      </trkpt>
      <trkpt lat="46.38276" lon="-0.3353">
        <ele>92</ele>
        <time>2012-10-26T15:02:23Z</time>
      </trkpt>
      <trkpt lat="46.38281" lon="-0.33535">
        <ele>93</ele>
        <time>2012-10-26T15:02:28Z</time>
      </trkpt>
      <trkpt lat="46.38286" lon="-0.33538">
        <ele>91</ele>
        <time>2012-10-26T15:02:33Z</time>
      </trkpt>
      <trkpt lat="46.38289" lon="-0.33543">
        <ele>93</ele>
        <time>2012-10-26T15:02:38Z</time>
      </trkpt>
      <trkpt lat="46.38292" lon="-0.33546">
        <ele>92</ele>
        <time>2012-10-26T15:02:43Z</time>
      </trkpt>
      <trkpt lat="46.38296" lon="-0.33551">
        <ele>91</ele>
        <time>2012-10-26T15:02:48Z</time>
      </trkpt>
      <trkpt lat="46.38298" lon="-0.33556">
        <ele>92</ele>
        <time>2012-10-26T15:02:53Z</time>
      </trkpt>
      <trkpt lat="46.38301" lon="-0.3356">
        <ele>91</ele>
        <time>2012-10-26T15:02:58Z</time>
      </trkpt>
      <trkpt lat="46.38299" lon="-0.33565">
        <ele>97</ele>
        <time>2012-10-26T15:03:03Z</time>
      </trkpt>
      <trkpt lat="46.38304" lon="-0.33572">
        <ele>97</ele>
        <time>2012-10-26T15:03:08Z</time>
      </trkpt>
      <trkpt lat="46.38308" lon="-0.33577">
        <ele>97</ele>
        <time>2012-10-26T15:03:13Z</time>
      </trkpt>
      <trkpt lat="46.38309" lon="-0.33579">
        <ele>99</ele>
        <time>2012-10-26T15:03:18Z</time>
      </trkpt>
      <trkpt lat="46.38311" lon="-0.33581">
        <ele>101</ele>
        <time>2012-10-26T15:03:23Z</time>
      </trkpt>
      <trkpt lat="46.38311" lon="-0.33583">
        <ele>102</ele>
        <time>2012-10-26T15:03:28Z</time>
      </trkpt>
      <trkpt lat="46.38314" lon="-0.33584">
        <ele>102</ele>
        <time>2012-10-26T15:03:33Z</time>
      </trkpt>
      <trkpt lat="46.38315" lon="-0.33584">
        <ele>103</ele>
        <time>2012-10-26T15:03:38Z</time>
      </trkpt>
      <trkpt lat="46.38318" lon="-0.33588">
        <ele>101</ele>
        <time>2012-10-26T15:03:43Z</time>
      </trkpt>
      <trkpt lat="46.38323" lon="-0.33591">
        <ele>100</ele>
        <time>2012-10-26T15:03:48Z</time>
      </trkpt>
      <trkpt lat="46.38328" lon="-0.33594">
        <ele>99</ele>
        <time>2012-10-26T15:03:53Z</time>
      </trkpt>
      <trkpt lat="46.3833" lon="-0.33596">
        <ele>99</ele>
        <time>2012-10-26T15:03:58Z</time>
      </trkpt>
      <trkpt lat="46.38331" lon="-0.33596">
        <ele>100</ele>
        <time>2012-10-26T15:04:03Z</time>
      </trkpt>
      <trkpt lat="46.38334" lon="-0.33601">
        <ele>100</ele>
        <time>2012-10-26T15:04:13Z</time>
      </trkpt>
      <trkpt lat="46.38338" lon="-0.33603">
        <ele>100</ele>
        <time>2012-10-26T15:04:18Z</time>
      </trkpt>
      <trkpt lat="46.38338" lon="-0.33606">
        <ele>101</ele>
        <time>2012-10-26T15:04:23Z</time>
      </trkpt>
      <trkpt lat="46.38339" lon="-0.33605">
        <ele>100</ele>
        <time>2012-10-26T15:04:28Z</time>
      </trkpt>
      <trkpt lat="46.38341" lon="-0.33608">
        <ele>99</ele>
        <time>2012-10-26T15:04:38Z</time>
      </trkpt>
      <trkpt lat="46.38348" lon="-0.33614">
        <ele>99</ele>
        <time>2012-10-26T15:04:43Z</time>
      </trkpt>
      <trkpt lat="46.38352" lon="-0.33616">
        <ele>98</ele>
        <time>2012-10-26T15:04:48Z</time>
      </trkpt>
      <trkpt lat="46.3835" lon="-0.33618">
        <ele>98</ele>
        <time>2012-10-26T15:04:53Z</time>
      </trkpt>
      <trkpt lat="46.38347" lon="-0.33626">
        <ele>101</ele>
        <time>2012-10-26T15:04:58Z</time>
      </trkpt>
      <trkpt lat="46.38346" lon="-0.33633">
        <ele>100</ele>
        <time>2012-10-26T15:05:03Z</time>
      </trkpt>
      <trkpt lat="46.38344" lon="-0.33639">
        <ele>100</ele>
        <time>2012-10-26T15:05:08Z</time>
      </trkpt>
      <trkpt lat="46.38344" lon="-0.33646">
        <ele>96</ele>
        <time>2012-10-26T15:05:13Z</time>
      </trkpt>
      <trkpt lat="46.38341" lon="-0.33654">
        <ele>100</ele>
        <time>2012-10-26T15:05:18Z</time>
      </trkpt>
      <trkpt lat="46.38338" lon="-0.3366">
        <ele>101</ele>
        <time>2012-10-26T15:05:23Z</time>
      </trkpt>
      <trkpt lat="46.38337" lon="-0.33664">
        <ele>99</ele>
        <time>2012-10-26T15:05:28Z</time>
      </trkpt>
      <trkpt lat="46.38335" lon="-0.33671">
        <ele>98</ele>
        <time>2012-10-26T15:05:33Z</time>
      </trkpt>
      <trkpt lat="46.38335" lon="-0.33677">
        <ele>98</ele>
        <time>2012-10-26T15:05:38Z</time>
      </trkpt>
      <trkpt lat="46.38334" lon="-0.33683">
        <ele>96</ele>
        <time>2012-10-26T15:05:43Z</time>
      </trkpt>
      <trkpt lat="46.38334" lon="-0.33689">
        <ele>92</ele>
        <time>2012-10-26T15:05:48Z</time>
      </trkpt>
      <trkpt lat="46.38333" lon="-0.33697">
        <ele>93</ele>
        <time>2012-10-26T15:05:53Z</time>
      </trkpt>
      <trkpt lat="46.38331" lon="-0.33703">
        <ele>94</ele>
        <time>2012-10-26T15:05:58Z</time>
      </trkpt>
      <trkpt lat="46.3833" lon="-0.3371">
        <ele>93</ele>
        <time>2012-10-26T15:06:03Z</time>
      </trkpt>
      <trkpt lat="46.38329" lon="-0.33715">
        <ele>90</ele>
        <time>2012-10-26T15:06:08Z</time>
      </trkpt>
      <trkpt lat="46.38327" lon="-0.33723">
        <ele>92</ele>
        <time>2012-10-26T15:06:13Z</time>
      </trkpt>
      <trkpt lat="46.38326" lon="-0.33729">
        <ele>90</ele>
        <time>2012-10-26T15:06:18Z</time>
      </trkpt>
      <trkpt lat="46.38325" lon="-0.33736">
        <ele>91</ele>
        <time>2012-10-26T15:06:23Z</time>
      </trkpt>
      <trkpt lat="46.38323" lon="-0.33743">
        <ele>92</ele>
        <time>2012-10-26T15:06:28Z</time>
      </trkpt>
      <trkpt lat="46.38323" lon="-0.3375">
        <ele>93</ele>
        <time>2012-10-26T15:06:33Z</time>
      </trkpt>
      <trkpt lat="46.38319" lon="-0.33756">
        <ele>95</ele>
        <time>2012-10-26T15:06:38Z</time>
      </trkpt>
      <trkpt lat="46.3832" lon="-0.33763">
        <ele>98</ele>
        <time>2012-10-26T15:06:43Z</time>
      </trkpt>
      <trkpt lat="46.3832" lon="-0.33772">
        <ele>98</ele>
        <time>2012-10-26T15:06:48Z</time>
      </trkpt>
      <trkpt lat="46.3832" lon="-0.33781">
        <ele>99</ele>
        <time>2012-10-26T15:06:53Z</time>
      </trkpt>
      <trkpt lat="46.38319" lon="-0.33789">
        <ele>99</ele>
        <time>2012-10-26T15:06:58Z</time>
      </trkpt>
      <trkpt lat="46.3832" lon="-0.33797">
        <ele>100</ele>
        <time>2012-10-26T15:07:03Z</time>
      </trkpt>
      <trkpt lat="46.38321" lon="-0.33804">
        <ele>101</ele>
        <time>2012-10-26T15:07:08Z</time>
      </trkpt>
      <trkpt lat="46.38323" lon="-0.33812">
        <ele>104</ele>
        <time>2012-10-26T15:07:13Z</time>
      </trkpt>
      <trkpt lat="46.38326" lon="-0.33819">
        <ele>103</ele>
        <time>2012-10-26T15:07:18Z</time>
      </trkpt>
      <trkpt lat="46.38327" lon="-0.33826">
        <ele>104</ele>
        <time>2012-10-26T15:07:23Z</time>
      </trkpt>
      <trkpt lat="46.38328" lon="-0.33832">
        <ele>104</ele>
        <time>2012-10-26T15:07:28Z</time>
      </trkpt>
      <trkpt lat="46.38328" lon="-0.33838">
        <ele>104</ele>
        <time>2012-10-26T15:07:33Z</time>
      </trkpt>
      <trkpt lat="46.38328" lon="-0.33845">
        <ele>104</ele>
        <time>2012-10-26T15:07:38Z</time>
      </trkpt>
      <trkpt lat="46.38328" lon="-0.33846">
        <ele>104</ele>
        <time>2012-10-26T15:07:43Z</time>
      </trkpt>
      <trkpt lat="46.38327" lon="-0.33847">
        <ele>104</ele>
        <time>2012-10-26T15:07:48Z</time>
      </trkpt>
      <trkpt lat="46.38327" lon="-0.33846">
        <ele>105</ele>
        <time>2012-10-26T15:07:53Z</time>
      </trkpt>
      <trkpt lat="46.38327" lon="-0.33849">
        <ele>106</ele>
        <time>2012-10-26T15:07:58Z</time>
      </trkpt>
      <trkpt lat="46.38327" lon="-0.33848">
        <ele>106</ele>
        <time>2012-10-26T15:08:03Z</time>
      </trkpt>
      <trkpt lat="46.38327" lon="-0.33851">
        <ele>106</ele>
        <time>2012-10-26T15:08:08Z</time>
      </trkpt>
      <trkpt lat="46.38328" lon="-0.33859">
        <ele>107</ele>
        <time>2012-10-26T15:08:13Z</time>
      </trkpt>
      <trkpt lat="46.38328" lon="-0.33858">
        <ele>107</ele>
        <time>2012-10-26T15:08:18Z</time>
      </trkpt>
      <trkpt lat="46.38332" lon="-0.33861">
        <ele>108</ele>
        <time>2012-10-26T15:08:23Z</time>
      </trkpt>
      <trkpt lat="46.38328" lon="-0.33871">
        <ele>108</ele>
        <time>2012-10-26T15:08:28Z</time>
      </trkpt>
      <trkpt lat="46.38324" lon="-0.33878">
        <ele>108</ele>
        <time>2012-10-26T15:08:33Z</time>
      </trkpt>
      <trkpt lat="46.38322" lon="-0.33885">
        <ele>108</ele>
        <time>2012-10-26T15:08:38Z</time>
      </trkpt>
      <trkpt lat="46.38319" lon="-0.33894">
        <ele>108</ele>
        <time>2012-10-26T15:08:43Z</time>
      </trkpt>
      <trkpt lat="46.3832" lon="-0.33899">
        <ele>108</ele>
        <time>2012-10-26T15:08:53Z</time>
      </trkpt>
      <trkpt lat="46.38317" lon="-0.33905">
        <ele>112</ele>
        <time>2012-10-26T15:08:58Z</time>
      </trkpt>
      <trkpt lat="46.38316" lon="-0.3391">
        <ele>110</ele>
        <time>2012-10-26T15:09:03Z</time>
      </trkpt>
      <trkpt lat="46.38315" lon="-0.33918">
        <ele>110</ele>
        <time>2012-10-26T15:09:08Z</time>
      </trkpt>
      <trkpt lat="46.38312" lon="-0.33926">
        <ele>113</ele>
        <time>2012-10-26T15:09:13Z</time>
      </trkpt>
      <trkpt lat="46.38309" lon="-0.33931">
        <ele>115</ele>
        <time>2012-10-26T15:09:18Z</time>
      </trkpt>
      <trkpt lat="46.38308" lon="-0.33936">
        <ele>116</ele>
        <time>2012-10-26T15:09:23Z</time>
      </trkpt>
      <trkpt lat="46.38308" lon="-0.33943">
        <ele>110</ele>
        <time>2012-10-26T15:09:28Z</time>
      </trkpt>
      <trkpt lat="46.38306" lon="-0.33948">
        <ele>110</ele>
        <time>2012-10-26T15:09:33Z</time>
      </trkpt>
      <trkpt lat="46.38305" lon="-0.33955">
        <ele>112</ele>
        <time>2012-10-26T15:09:38Z</time>
      </trkpt>
      <trkpt lat="46.38305" lon="-0.33965">
        <ele>112</ele>
        <time>2012-10-26T15:09:43Z</time>
      </trkpt>
      <trkpt lat="46.38306" lon="-0.33976">
        <ele>114</ele>
        <time>2012-10-26T15:09:48Z</time>
      </trkpt>
      <trkpt lat="46.38305" lon="-0.33986">
        <ele>115</ele>
        <time>2012-10-26T15:09:53Z</time>
      </trkpt>
      <trkpt lat="46.38305" lon="-0.33999">
        <ele>118</ele>
        <time>2012-10-26T15:09:58Z</time>
      </trkpt>
      <trkpt lat="46.38307" lon="-0.34008">
        <ele>120</ele>
        <time>2012-10-26T15:10:03Z</time>
      </trkpt>
      <trkpt lat="46.38312" lon="-0.34016">
        <ele>119</ele>
        <time>2012-10-26T15:10:08Z</time>
      </trkpt>
      <trkpt lat="46.38311" lon="-0.34024">
        <ele>121</ele>
        <time>2012-10-26T15:10:13Z</time>
      </trkpt>
      <trkpt lat="46.38313" lon="-0.3403">
        <ele>122</ele>
        <time>2012-10-26T15:10:18Z</time>
      </trkpt>
      <trkpt lat="46.38318" lon="-0.3403">
        <ele>118</ele>
        <time>2012-10-26T15:10:23Z</time>
      </trkpt>
      <trkpt lat="46.38324" lon="-0.34028">
        <ele>117</ele>
        <time>2012-10-26T15:10:28Z</time>
      </trkpt>
      <trkpt lat="46.38331" lon="-0.34027">
        <ele>118</ele>
        <time>2012-10-26T15:10:33Z</time>
      </trkpt>
      <trkpt lat="46.38337" lon="-0.34026">
        <ele>118</ele>
        <time>2012-10-26T15:10:38Z</time>
      </trkpt>
      <trkpt lat="46.38343" lon="-0.34028">
        <ele>118</ele>
        <time>2012-10-26T15:10:43Z</time>
      </trkpt>
      <trkpt lat="46.38349" lon="-0.34028">
        <ele>118</ele>
        <time>2012-10-26T15:10:48Z</time>
      </trkpt>
      <trkpt lat="46.38353" lon="-0.34028">
        <ele>117</ele>
        <time>2012-10-26T15:10:53Z</time>
      </trkpt>
      <trkpt lat="46.38359" lon="-0.34028">
        <ele>116</ele>
        <time>2012-10-26T15:10:58Z</time>
      </trkpt>
      <trkpt lat="46.38366" lon="-0.34029">
        <ele>114</ele>
        <time>2012-10-26T15:11:03Z</time>
      </trkpt>
      <trkpt lat="46.38371" lon="-0.34029">
        <ele>114</ele>
        <time>2012-10-26T15:11:08Z</time>
      </trkpt>
      <trkpt lat="46.38377" lon="-0.3403">
        <ele>114</ele>
        <time>2012-10-26T15:11:13Z</time>
      </trkpt>
      <trkpt lat="46.38384" lon="-0.34029">
        <ele>115</ele>
        <time>2012-10-26T15:11:18Z</time>
      </trkpt>
      <trkpt lat="46.3839" lon="-0.34029">
        <ele>115</ele>
        <time>2012-10-26T15:11:23Z</time>
      </trkpt>
      <trkpt lat="46.38393" lon="-0.3403">
        <ele>116</ele>
        <time>2012-10-26T15:11:28Z</time>
      </trkpt>
      <trkpt lat="46.38397" lon="-0.34029">
        <ele>117</ele>
        <time>2012-10-26T15:11:33Z</time>
      </trkpt>
      <trkpt lat="46.38397" lon="-0.34033">
        <ele>116</ele>
        <time>2012-10-26T15:11:38Z</time>
      </trkpt>
      <trkpt lat="46.38397" lon="-0.34043">
        <ele>118</ele>
        <time>2012-10-26T15:11:43Z</time>
      </trkpt>
      <trkpt lat="46.38399" lon="-0.34048">
        <ele>118</ele>
        <time>2012-10-26T15:11:48Z</time>
      </trkpt>
      <trkpt lat="46.38404" lon="-0.34051">
        <ele>107</ele>
        <time>2012-10-26T15:11:53Z</time>
      </trkpt>
      <trkpt lat="46.38404" lon="-0.34058">
        <ele>107</ele>
        <time>2012-10-26T15:11:58Z</time>
      </trkpt>
      <trkpt lat="46.38406" lon="-0.3406">
        <ele>103</ele>
        <time>2012-10-26T15:12:03Z</time>
      </trkpt>
      <trkpt lat="46.38406" lon="-0.3407">
        <ele>105</ele>
        <time>2012-10-26T15:12:08Z</time>
      </trkpt>
      <trkpt lat="46.38408" lon="-0.34076">
        <ele>106</ele>
        <time>2012-10-26T15:12:13Z</time>
      </trkpt>
      <trkpt lat="46.38413" lon="-0.34077">
        <ele>107</ele>
        <time>2012-10-26T15:12:18Z</time>
      </trkpt>
      <trkpt lat="46.38417" lon="-0.34076">
        <ele>108</ele>
        <time>2012-10-26T15:12:23Z</time>
      </trkpt>
      <trkpt lat="46.38423" lon="-0.34077">
        <ele>110</ele>
        <time>2012-10-26T15:12:28Z</time>
      </trkpt>
      <trkpt lat="46.38429" lon="-0.34076">
        <ele>112</ele>
        <time>2012-10-26T15:12:33Z</time>
      </trkpt>
      <trkpt lat="46.38431" lon="-0.34076">
        <ele>114</ele>
        <time>2012-10-26T15:12:38Z</time>
      </trkpt>
      <trkpt lat="46.38434" lon="-0.34077">
        <ele>113</ele>
        <time>2012-10-26T15:12:43Z</time>
      </trkpt>
      <trkpt lat="46.38442" lon="-0.34075">
        <ele>111</ele>
        <time>2012-10-26T15:12:48Z</time>
      </trkpt>
      <trkpt lat="46.38447" lon="-0.34074">
        <ele>112</ele>
        <time>2012-10-26T15:12:53Z</time>
      </trkpt>
      <trkpt lat="46.38453" lon="-0.34074">
        <ele>112</ele>
        <time>2012-10-26T15:12:58Z</time>
      </trkpt>
      <trkpt lat="46.38459" lon="-0.34075">
        <ele>114</ele>
        <time>2012-10-26T15:13:03Z</time>
      </trkpt>
      <trkpt lat="46.38464" lon="-0.34078">
        <ele>115</ele>
        <time>2012-10-26T15:13:08Z</time>
      </trkpt>
      <trkpt lat="46.38469" lon="-0.3408">
        <ele>114</ele>
        <time>2012-10-26T15:13:13Z</time>
      </trkpt>
      <trkpt lat="46.38473" lon="-0.34079">
        <ele>112</ele>
        <time>2012-10-26T15:13:18Z</time>
      </trkpt>
      <trkpt lat="46.3848" lon="-0.34081">
        <ele>111</ele>
        <time>2012-10-26T15:13:23Z</time>
      </trkpt>
      <trkpt lat="46.38484" lon="-0.34082">
        <ele>111</ele>
        <time>2012-10-26T15:13:28Z</time>
      </trkpt>
      <trkpt lat="46.38491" lon="-0.34086">
        <ele>111</ele>
        <time>2012-10-26T15:13:33Z</time>
      </trkpt>
      <trkpt lat="46.38492" lon="-0.34086">
        <ele>112</ele>
        <time>2012-10-26T15:13:38Z</time>
      </trkpt>
      <trkpt lat="46.38493" lon="-0.34086">
        <ele>112</ele>
        <time>2012-10-26T15:13:43Z</time>
      </trkpt>
      <trkpt lat="46.38493" lon="-0.34086">
        <ele>112</ele>
        <time>2012-10-26T15:13:48Z</time>
      </trkpt>
      <trkpt lat="46.38494" lon="-0.34086">
        <ele>112</ele>
        <time>2012-10-26T15:13:53Z</time>
      </trkpt>
      <trkpt lat="46.38501" lon="-0.34088">
        <ele>113</ele>
        <time>2012-10-26T15:13:58Z</time>
      </trkpt>
      <trkpt lat="46.38507" lon="-0.34089">
        <ele>114</ele>
        <time>2012-10-26T15:14:03Z</time>
      </trkpt>
      <trkpt lat="46.3851" lon="-0.34086">
        <ele>114</ele>
        <time>2012-10-26T15:14:08Z</time>
      </trkpt>
      <trkpt lat="46.38514" lon="-0.34083">
        <ele>114</ele>
        <time>2012-10-26T15:14:13Z</time>
      </trkpt>
      <trkpt lat="46.38519" lon="-0.3408">
        <ele>113</ele>
        <time>2012-10-26T15:14:18Z</time>
      </trkpt>
      <trkpt lat="46.38523" lon="-0.34078">
        <ele>113</ele>
        <time>2012-10-26T15:14:23Z</time>
      </trkpt>
      <trkpt lat="46.38528" lon="-0.34076">
        <ele>114</ele>
        <time>2012-10-26T15:14:28Z</time>
      </trkpt>
      <trkpt lat="46.38531" lon="-0.34076">
        <ele>114</ele>
        <time>2012-10-26T15:14:33Z</time>
      </trkpt>
      <trkpt lat="46.38536" lon="-0.34076">
        <ele>114</ele>
        <time>2012-10-26T15:14:38Z</time>
      </trkpt>
      <trkpt lat="46.38541" lon="-0.34081">
        <ele>113</ele>
        <time>2012-10-26T15:14:43Z</time>
      </trkpt>
      <trkpt lat="46.38545" lon="-0.34088">
        <ele>114</ele>
        <time>2012-10-26T15:14:48Z</time>
      </trkpt>
      <trkpt lat="46.38549" lon="-0.34093">
        <ele>109</ele>
        <time>2012-10-26T15:14:53Z</time>
      </trkpt>
      <trkpt lat="46.38551" lon="-0.34099">
        <ele>108</ele>
        <time>2012-10-26T15:14:58Z</time>
      </trkpt>
      <trkpt lat="46.38553" lon="-0.34105">
        <ele>107</ele>
        <time>2012-10-26T15:15:03Z</time>
      </trkpt>
      <trkpt lat="46.38554" lon="-0.34111">
        <ele>109</ele>
        <time>2012-10-26T15:15:08Z</time>
      </trkpt>
      <trkpt lat="46.38556" lon="-0.34117">
        <ele>110</ele>
        <time>2012-10-26T15:15:13Z</time>
      </trkpt>
      <trkpt lat="46.38558" lon="-0.34124">
        <ele>111</ele>
        <time>2012-10-26T15:15:18Z</time>
      </trkpt>
      <trkpt lat="46.3856" lon="-0.34129">
        <ele>112</ele>
        <time>2012-10-26T15:15:23Z</time>
      </trkpt>
      <trkpt lat="46.38563" lon="-0.34138">
        <ele>113</ele>
        <time>2012-10-26T15:15:28Z</time>
      </trkpt>
      <trkpt lat="46.38566" lon="-0.34142">
        <ele>113</ele>
        <time>2012-10-26T15:15:33Z</time>
      </trkpt>
      <trkpt lat="46.3857" lon="-0.34146">
        <ele>114</ele>
        <time>2012-10-26T15:15:38Z</time>
      </trkpt>
      <trkpt lat="46.38575" lon="-0.34149">
        <ele>115</ele>
        <time>2012-10-26T15:15:43Z</time>
      </trkpt>
      <trkpt lat="46.38581" lon="-0.34148">
        <ele>115</ele>
        <time>2012-10-26T15:15:48Z</time>
      </trkpt>
      <trkpt lat="46.38587" lon="-0.34145">
        <ele>115</ele>
        <time>2012-10-26T15:15:53Z</time>
      </trkpt>
      <trkpt lat="46.38592" lon="-0.34141">
        <ele>116</ele>
        <time>2012-10-26T15:15:58Z</time>
      </trkpt>
      <trkpt lat="46.38598" lon="-0.34139">
        <ele>116</ele>
        <time>2012-10-26T15:16:03Z</time>
      </trkpt>
      <trkpt lat="46.38604" lon="-0.34137">
        <ele>115</ele>
        <time>2012-10-26T15:16:08Z</time>
      </trkpt>
      <trkpt lat="46.38609" lon="-0.34135">
        <ele>116</ele>
        <time>2012-10-26T15:16:13Z</time>
      </trkpt>
      <trkpt lat="46.38614" lon="-0.34133">
        <ele>116</ele>
        <time>2012-10-26T15:16:18Z</time>
      </trkpt>
      <trkpt lat="46.3862" lon="-0.3413">
        <ele>118</ele>
        <time>2012-10-26T15:16:23Z</time>
      </trkpt>
      <trkpt lat="46.38624" lon="-0.34127">
        <ele>117</ele>
        <time>2012-10-26T15:16:28Z</time>
      </trkpt>
      <trkpt lat="46.38629" lon="-0.34125">
        <ele>118</ele>
        <time>2012-10-26T15:16:33Z</time>
      </trkpt>
      <trkpt lat="46.38634" lon="-0.34123">
        <ele>117</ele>
        <time>2012-10-26T15:16:38Z</time>
      </trkpt>
      <trkpt lat="46.3864" lon="-0.3412">
        <ele>118</ele>
        <time>2012-10-26T15:16:43Z</time>
      </trkpt>
      <trkpt lat="46.38646" lon="-0.34118">
        <ele>117</ele>
        <time>2012-10-26T15:16:48Z</time>
      </trkpt>
      <trkpt lat="46.38652" lon="-0.34116">
        <ele>117</ele>
        <time>2012-10-26T15:16:53Z</time>
      </trkpt>
      <trkpt lat="46.38657" lon="-0.34114">
        <ele>117</ele>
        <time>2012-10-26T15:16:58Z</time>
      </trkpt>
      <trkpt lat="46.38663" lon="-0.34112">
        <ele>117</ele>
        <time>2012-10-26T15:17:03Z</time>
      </trkpt>
      <trkpt lat="46.38668" lon="-0.34109">
        <ele>116</ele>
        <time>2012-10-26T15:17:08Z</time>
      </trkpt>
      <trkpt lat="46.38673" lon="-0.34106">
        <ele>116</ele>
        <time>2012-10-26T15:17:13Z</time>
      </trkpt>
      <trkpt lat="46.38679" lon="-0.34104">
        <ele>116</ele>
        <time>2012-10-26T15:17:18Z</time>
      </trkpt>
      <trkpt lat="46.38685" lon="-0.34102">
        <ele>115</ele>
        <time>2012-10-26T15:17:23Z</time>
      </trkpt>
      <trkpt lat="46.3869" lon="-0.34099">
        <ele>115</ele>
        <time>2012-10-26T15:17:28Z</time>
      </trkpt>
      <trkpt lat="46.38696" lon="-0.34096">
        <ele>115</ele>
        <time>2012-10-26T15:17:33Z</time>
      </trkpt>
      <trkpt lat="46.38702" lon="-0.34094">
        <ele>115</ele>
        <time>2012-10-26T15:17:38Z</time>
      </trkpt>
      <trkpt lat="46.38708" lon="-0.34091">
        <ele>115</ele>
        <time>2012-10-26T15:17:43Z</time>
      </trkpt>
      <trkpt lat="46.38713" lon="-0.34089">
        <ele>115</ele>
        <time>2012-10-26T15:17:48Z</time>
      </trkpt>
      <trkpt lat="46.38718" lon="-0.34087">
        <ele>115</ele>
        <time>2012-10-26T15:17:53Z</time>
      </trkpt>
      <trkpt lat="46.38724" lon="-0.34084">
        <ele>115</ele>
        <time>2012-10-26T15:17:58Z</time>
      </trkpt>
      <trkpt lat="46.38729" lon="-0.34081">
        <ele>115</ele>
        <time>2012-10-26T15:18:03Z</time>
      </trkpt>
      <trkpt lat="46.38734" lon="-0.3408">
        <ele>114</ele>
        <time>2012-10-26T15:18:08Z</time>
      </trkpt>
      <trkpt lat="46.38741" lon="-0.34078">
        <ele>116</ele>
        <time>2012-10-26T15:18:13Z</time>
      </trkpt>
      <trkpt lat="46.38746" lon="-0.34075">
        <ele>115</ele>
        <time>2012-10-26T15:18:18Z</time>
      </trkpt>
      <trkpt lat="46.3875" lon="-0.34074">
        <ele>114</ele>
        <time>2012-10-26T15:18:23Z</time>
      </trkpt>
      <trkpt lat="46.38757" lon="-0.34073">
        <ele>114</ele>
        <time>2012-10-26T15:18:28Z</time>
      </trkpt>
      <trkpt lat="46.3876" lon="-0.34074">
        <ele>114</ele>
        <time>2012-10-26T15:18:33Z</time>
      </trkpt>
      <trkpt lat="46.38759" lon="-0.34074">
        <ele>114</ele>
        <time>2012-10-26T15:18:38Z</time>
      </trkpt>
      <trkpt lat="46.38766" lon="-0.34075">
        <ele>116</ele>
        <time>2012-10-26T15:18:43Z</time>
      </trkpt>
      <trkpt lat="46.38773" lon="-0.34077">
        <ele>115</ele>
        <time>2012-10-26T15:18:48Z</time>
      </trkpt>
      <trkpt lat="46.38776" lon="-0.34079">
        <ele>114</ele>
        <time>2012-10-26T15:18:53Z</time>
      </trkpt>
      <trkpt lat="46.3878" lon="-0.34083">
        <ele>113</ele>
        <time>2012-10-26T15:18:58Z</time>
      </trkpt>
      <trkpt lat="46.38783" lon="-0.34087">
        <ele>113</ele>
        <time>2012-10-26T15:19:03Z</time>
      </trkpt>
      <trkpt lat="46.38791" lon="-0.34092">
        <ele>113</ele>
        <time>2012-10-26T15:19:08Z</time>
      </trkpt>
      <trkpt lat="46.38797" lon="-0.34095">
        <ele>112</ele>
        <time>2012-10-26T15:19:13Z</time>
      </trkpt>
      <trkpt lat="46.38803" lon="-0.34099">
        <ele>111</ele>
        <time>2012-10-26T15:19:18Z</time>
      </trkpt>
      <trkpt lat="46.38809" lon="-0.34103">
        <ele>112</ele>
        <time>2012-10-26T15:19:23Z</time>
      </trkpt>
      <trkpt lat="46.38816" lon="-0.34108">
        <ele>113</ele>
        <time>2012-10-26T15:19:28Z</time>
      </trkpt>
      <trkpt lat="46.38821" lon="-0.34113">
        <ele>113</ele>
        <time>2012-10-26T15:19:33Z</time>
      </trkpt>
      <trkpt lat="46.38826" lon="-0.34117">
        <ele>113</ele>
        <time>2012-10-26T15:19:38Z</time>
      </trkpt>
      <trkpt lat="46.38831" lon="-0.34119">
        <ele>111</ele>
        <time>2012-10-26T15:19:43Z</time>
      </trkpt>
      <trkpt lat="46.38834" lon="-0.34124">
        <ele>111</ele>
        <time>2012-10-26T15:19:48Z</time>
      </trkpt>
      <trkpt lat="46.38839" lon="-0.34127">
        <ele>111</ele>
        <time>2012-10-26T15:19:53Z</time>
      </trkpt>
      <trkpt lat="46.38842" lon="-0.3413">
        <ele>111</ele>
        <time>2012-10-26T15:19:58Z</time>
      </trkpt>
      <trkpt lat="46.38847" lon="-0.34132">
        <ele>111</ele>
        <time>2012-10-26T15:20:03Z</time>
      </trkpt>
      <trkpt lat="46.38852" lon="-0.34138">
        <ele>109</ele>
        <time>2012-10-26T15:20:08Z</time>
      </trkpt>
      <trkpt lat="46.38858" lon="-0.34141">
        <ele>110</ele>
        <time>2012-10-26T15:20:13Z</time>
      </trkpt>
      <trkpt lat="46.38864" lon="-0.34144">
        <ele>110</ele>
        <time>2012-10-26T15:20:18Z</time>
      </trkpt>
      <trkpt lat="46.38868" lon="-0.34148">
        <ele>109</ele>
        <time>2012-10-26T15:20:23Z</time>
      </trkpt>
      <trkpt lat="46.38871" lon="-0.3415">
        <ele>109</ele>
        <time>2012-10-26T15:20:28Z</time>
      </trkpt>
      <trkpt lat="46.38877" lon="-0.34154">
        <ele>110</ele>
        <time>2012-10-26T15:20:33Z</time>
      </trkpt>
      <trkpt lat="46.38883" lon="-0.34155">
        <ele>108</ele>
        <time>2012-10-26T15:20:38Z</time>
      </trkpt>
      <trkpt lat="46.38885" lon="-0.34155">
        <ele>108</ele>
        <time>2012-10-26T15:20:43Z</time>
      </trkpt>
      <trkpt lat="46.38886" lon="-0.34155">
        <ele>107</ele>
        <time>2012-10-26T15:20:48Z</time>
      </trkpt>
      <trkpt lat="46.38891" lon="-0.34159">
        <ele>107</ele>
        <time>2012-10-26T15:20:53Z</time>
      </trkpt>
      <trkpt lat="46.38898" lon="-0.34163">
        <ele>107</ele>
        <time>2012-10-26T15:20:58Z</time>
      </trkpt>
      <trkpt lat="46.38912" lon="-0.34165">
        <ele>106</ele>
        <time>2012-10-26T15:21:03Z</time>
      </trkpt>
      <trkpt lat="46.38921" lon="-0.34167">
        <ele>106</ele>
        <time>2012-10-26T15:21:08Z</time>
      </trkpt>
      <trkpt lat="46.38924" lon="-0.34169">
        <ele>103</ele>
        <time>2012-10-26T15:21:13Z</time>
      </trkpt>
      <trkpt lat="46.3893" lon="-0.34171">
        <ele>102</ele>
        <time>2012-10-26T15:21:18Z</time>
      </trkpt>
      <trkpt lat="46.38937" lon="-0.3417">
        <ele>105</ele>
        <time>2012-10-26T15:21:23Z</time>
      </trkpt>
      <trkpt lat="46.38943" lon="-0.34171">
        <ele>104</ele>
        <time>2012-10-26T15:21:28Z</time>
      </trkpt>
      <trkpt lat="46.3895" lon="-0.34173">
        <ele>104</ele>
        <time>2012-10-26T15:21:33Z</time>
      </trkpt>
      <trkpt lat="46.38952" lon="-0.34174">
        <ele>103</ele>
        <time>2012-10-26T15:21:38Z</time>
      </trkpt>
      <trkpt lat="46.38956" lon="-0.34176">
        <ele>103</ele>
        <time>2012-10-26T15:21:43Z</time>
      </trkpt>
      <trkpt lat="46.38959" lon="-0.34178">
        <ele>103</ele>
        <time>2012-10-26T15:21:48Z</time>
      </trkpt>
      <trkpt lat="46.38962" lon="-0.34182">
        <ele>103</ele>
        <time>2012-10-26T15:21:53Z</time>
      </trkpt>
      <trkpt lat="46.38968" lon="-0.34188">
        <ele>103</ele>
        <time>2012-10-26T15:21:58Z</time>
      </trkpt>
      <trkpt lat="46.38971" lon="-0.34196">
        <ele>104</ele>
        <time>2012-10-26T15:22:03Z</time>
      </trkpt>
      <trkpt lat="46.38974" lon="-0.34203">
        <ele>102</ele>
        <time>2012-10-26T15:22:08Z</time>
      </trkpt>
      <trkpt lat="46.38977" lon="-0.34211">
        <ele>101</ele>
        <time>2012-10-26T15:22:13Z</time>
      </trkpt>
      <trkpt lat="46.38978" lon="-0.34216">
        <ele>98</ele>
        <time>2012-10-26T15:22:18Z</time>
      </trkpt>
      <trkpt lat="46.3898" lon="-0.34223">
        <ele>99</ele>
        <time>2012-10-26T15:22:23Z</time>
      </trkpt>
      <trkpt lat="46.38984" lon="-0.3423">
        <ele>100</ele>
        <time>2012-10-26T15:22:28Z</time>
      </trkpt>
      <trkpt lat="46.38983" lon="-0.34239">
        <ele>99</ele>
        <time>2012-10-26T15:22:33Z</time>
      </trkpt>
      <trkpt lat="46.38983" lon="-0.3425">
        <ele>103</ele>
        <time>2012-10-26T15:22:38Z</time>
      </trkpt>
      <trkpt lat="46.38986" lon="-0.34255">
        <ele>103</ele>
        <time>2012-10-26T15:22:43Z</time>
      </trkpt>
      <trkpt lat="46.38992" lon="-0.34254">
        <ele>101</ele>
        <time>2012-10-26T15:22:48Z</time>
      </trkpt>
      <trkpt lat="46.38996" lon="-0.34254">
        <ele>99</ele>
        <time>2012-10-26T15:22:53Z</time>
      </trkpt>
      <trkpt lat="46.39007" lon="-0.34252">
        <ele>98</ele>
        <time>2012-10-26T15:22:58Z</time>
      </trkpt>
      <trkpt lat="46.39013" lon="-0.34249">
        <ele>95</ele>
        <time>2012-10-26T15:23:03Z</time>
      </trkpt>
      <trkpt lat="46.39018" lon="-0.34249">
        <ele>95</ele>
        <time>2012-10-26T15:23:08Z</time>
      </trkpt>
      <trkpt lat="46.39017" lon="-0.34249">
        <ele>95</ele>
        <time>2012-10-26T15:23:13Z</time>
      </trkpt>
      <trkpt lat="46.39017" lon="-0.34248">
        <ele>95</ele>
        <time>2012-10-26T15:23:18Z</time>
      </trkpt>
      <trkpt lat="46.39019" lon="-0.34246">
        <ele>93</ele>
        <time>2012-10-26T15:23:28Z</time>
      </trkpt>
      <trkpt lat="46.39023" lon="-0.34244">
        <ele>94</ele>
        <time>2012-10-26T15:23:33Z</time>
      </trkpt>
      <trkpt lat="46.39025" lon="-0.34244">
        <ele>94</ele>
        <time>2012-10-26T15:23:38Z</time>
      </trkpt>
      <trkpt lat="46.39026" lon="-0.34243">
        <ele>95</ele>
        <time>2012-10-26T15:23:43Z</time>
      </trkpt>
      <trkpt lat="46.39032" lon="-0.34242">
        <ele>96</ele>
        <time>2012-10-26T15:23:48Z</time>
      </trkpt>
      <trkpt lat="46.39035" lon="-0.34241">
        <ele>96</ele>
        <time>2012-10-26T15:23:53Z</time>
      </trkpt>
      <trkpt lat="46.39039" lon="-0.3424">
        <ele>97</ele>
        <time>2012-10-26T15:23:58Z</time>
      </trkpt>
      <trkpt lat="46.39042" lon="-0.34238">
        <ele>97</ele>
        <time>2012-10-26T15:24:03Z</time>
      </trkpt>
      <trkpt lat="46.39046" lon="-0.34237">
        <ele>96</ele>
        <time>2012-10-26T15:24:08Z</time>
      </trkpt>
      <trkpt lat="46.39051" lon="-0.34235">
        <ele>96</ele>
        <time>2012-10-26T15:24:13Z</time>
      </trkpt>
      <trkpt lat="46.39052" lon="-0.34235">
        <ele>96</ele>
        <time>2012-10-26T15:24:18Z</time>
      </trkpt>
      <trkpt lat="46.39055" lon="-0.34232">
        <ele>96</ele>
        <time>2012-10-26T15:24:23Z</time>
      </trkpt>
      <trkpt lat="46.39063" lon="-0.34228">
        <ele>97</ele>
        <time>2012-10-26T15:24:28Z</time>
      </trkpt>
      <trkpt lat="46.39069" lon="-0.34227">
        <ele>94</ele>
        <time>2012-10-26T15:24:33Z</time>
      </trkpt>
      <trkpt lat="46.3908" lon="-0.34223">
        <ele>91</ele>
        <time>2012-10-26T15:24:38Z</time>
      </trkpt>
      <trkpt lat="46.39088" lon="-0.34219">
        <ele>91</ele>
        <time>2012-10-26T15:24:43Z</time>
      </trkpt>
      <trkpt lat="46.39096" lon="-0.34214">
        <ele>91</ele>
        <time>2012-10-26T15:24:48Z</time>
      </trkpt>
      <trkpt lat="46.39104" lon="-0.34209">
        <ele>92</ele>
        <time>2012-10-26T15:24:53Z</time>
      </trkpt>
      <trkpt lat="46.39113" lon="-0.34207">
        <ele>96</ele>
        <time>2012-10-26T15:24:58Z</time>
      </trkpt>
      <trkpt lat="46.39117" lon="-0.34202">
        <ele>94</ele>
        <time>2012-10-26T15:25:03Z</time>
      </trkpt>
      <trkpt lat="46.39119" lon="-0.34199">
        <ele>95</ele>
        <time>2012-10-26T15:25:08Z</time>
      </trkpt>
      <trkpt lat="46.39126" lon="-0.34195">
        <ele>95</ele>
        <time>2012-10-26T15:25:13Z</time>
      </trkpt>
      <trkpt lat="46.3913" lon="-0.34193">
        <ele>97</ele>
        <time>2012-10-26T15:25:18Z</time>
      </trkpt>
      <trkpt lat="46.39135" lon="-0.34193">
        <ele>99</ele>
        <time>2012-10-26T15:25:23Z</time>
      </trkpt>
      <trkpt lat="46.39142" lon="-0.34193">
        <ele>96</ele>
        <time>2012-10-26T15:25:28Z</time>
      </trkpt>
      <trkpt lat="46.39147" lon="-0.34192">
        <ele>95</ele>
        <time>2012-10-26T15:25:33Z</time>
      </trkpt>
      <trkpt lat="46.39154" lon="-0.34193">
        <ele>94</ele>
        <time>2012-10-26T15:25:38Z</time>
      </trkpt>
      <trkpt lat="46.39162" lon="-0.34196">
        <ele>96</ele>
        <time>2012-10-26T15:25:43Z</time>
      </trkpt>
      <trkpt lat="46.39165" lon="-0.34195">
        <ele>95</ele>
        <time>2012-10-26T15:25:48Z</time>
      </trkpt>
      <trkpt lat="46.39165" lon="-0.34196">
        <ele>95</ele>
        <time>2012-10-26T15:25:53Z</time>
      </trkpt>
      <trkpt lat="46.39164" lon="-0.34195">
        <ele>94</ele>
        <time>2012-10-26T15:25:58Z</time>
      </trkpt>
      <trkpt lat="46.39165" lon="-0.34194">
        <ele>94</ele>
        <time>2012-10-26T15:26:03Z</time>
      </trkpt>
      <trkpt lat="46.39165" lon="-0.34193">
        <ele>94</ele>
        <time>2012-10-26T15:26:18Z</time>
      </trkpt>
      <trkpt lat="46.39165" lon="-0.34193">
        <ele>93</ele>
        <time>2012-10-26T15:26:33Z</time>
      </trkpt>
      <trkpt lat="46.39165" lon="-0.34192">
        <ele>93</ele>
        <time>2012-10-26T15:26:38Z</time>
      </trkpt>
      <trkpt lat="46.39164" lon="-0.34192">
        <ele>93</ele>
        <time>2012-10-26T15:26:43Z</time>
      </trkpt>
      <trkpt lat="46.39167" lon="-0.34194">
        <ele>92</ele>
        <time>2012-10-26T15:26:48Z</time>
      </trkpt>
      <trkpt lat="46.39173" lon="-0.34193">
        <ele>91</ele>
        <time>2012-10-26T15:26:53Z</time>
      </trkpt>
      <trkpt lat="46.3918" lon="-0.34195">
        <ele>90</ele>
        <time>2012-10-26T15:26:58Z</time>
      </trkpt>
      <trkpt lat="46.39186" lon="-0.34195">
        <ele>89</ele>
        <time>2012-10-26T15:27:03Z</time>
      </trkpt>
      <trkpt lat="46.39192" lon="-0.34196">
        <ele>90</ele>
        <time>2012-10-26T15:27:08Z</time>
      </trkpt>
      <trkpt lat="46.39198" lon="-0.34197">
        <ele>91</ele>
        <time>2012-10-26T15:27:13Z</time>
      </trkpt>
      <trkpt lat="46.39203" lon="-0.34199">
        <ele>91</ele>
        <time>2012-10-26T15:27:18Z</time>
      </trkpt>
      <trkpt lat="46.39209" lon="-0.34201">
        <ele>91</ele>
        <time>2012-10-26T15:27:23Z</time>
      </trkpt>
      <trkpt lat="46.39214" lon="-0.34204">
        <ele>90</ele>
        <time>2012-10-26T15:27:28Z</time>
      </trkpt>
      <trkpt lat="46.39218" lon="-0.34208">
        <ele>91</ele>
        <time>2012-10-26T15:27:33Z</time>
      </trkpt>
      <trkpt lat="46.39221" lon="-0.34211">
        <ele>90</ele>
        <time>2012-10-26T15:27:38Z</time>
      </trkpt>
      <trkpt lat="46.39225" lon="-0.34212">
        <ele>89</ele>
        <time>2012-10-26T15:27:43Z</time>
      </trkpt>
      <trkpt lat="46.3923" lon="-0.34214">
        <ele>88</ele>
        <time>2012-10-26T15:27:48Z</time>
      </trkpt>
      <trkpt lat="46.39235" lon="-0.34216">
        <ele>88</ele>
        <time>2012-10-26T15:27:53Z</time>
      </trkpt>
      <trkpt lat="46.39239" lon="-0.3422">
        <ele>89</ele>
        <time>2012-10-26T15:27:58Z</time>
      </trkpt>
      <trkpt lat="46.39245" lon="-0.34221">
        <ele>90</ele>
        <time>2012-10-26T15:28:03Z</time>
      </trkpt>
      <trkpt lat="46.39251" lon="-0.34222">
        <ele>89</ele>
        <time>2012-10-26T15:28:08Z</time>
      </trkpt>
      <trkpt lat="46.39257" lon="-0.34224">
        <ele>89</ele>
        <time>2012-10-26T15:28:13Z</time>
      </trkpt>
      <trkpt lat="46.39262" lon="-0.34225">
        <ele>90</ele>
        <time>2012-10-26T15:28:18Z</time>
      </trkpt>
      <trkpt lat="46.39268" lon="-0.34226">
        <ele>91</ele>
        <time>2012-10-26T15:28:23Z</time>
      </trkpt>
      <trkpt lat="46.39273" lon="-0.34227">
        <ele>91</ele>
        <time>2012-10-26T15:28:28Z</time>
      </trkpt>
      <trkpt lat="46.39278" lon="-0.34227">
        <ele>90</ele>
        <time>2012-10-26T15:28:33Z</time>
      </trkpt>
      <trkpt lat="46.39283" lon="-0.34228">
        <ele>91</ele>
        <time>2012-10-26T15:28:38Z</time>
      </trkpt>
      <trkpt lat="46.39288" lon="-0.34228">
        <ele>92</ele>
        <time>2012-10-26T15:28:43Z</time>
      </trkpt>
      <trkpt lat="46.39295" lon="-0.34228">
        <ele>93</ele>
        <time>2012-10-26T15:28:48Z</time>
      </trkpt>
      <trkpt lat="46.39302" lon="-0.34228">
        <ele>93</ele>
        <time>2012-10-26T15:28:53Z</time>
      </trkpt>
      <trkpt lat="46.39306" lon="-0.34228">
        <ele>94</ele>
        <time>2012-10-26T15:28:58Z</time>
      </trkpt>
      <trkpt lat="46.39312" lon="-0.3423">
        <ele>94</ele>
        <time>2012-10-26T15:29:03Z</time>
      </trkpt>
      <trkpt lat="46.39318" lon="-0.34229">
        <ele>95</ele>
        <time>2012-10-26T15:29:08Z</time>
      </trkpt>
      <trkpt lat="46.39324" lon="-0.34229">
        <ele>96</ele>
        <time>2012-10-26T15:29:13Z</time>
      </trkpt>
      <trkpt lat="46.3933" lon="-0.34229">
        <ele>96</ele>
        <time>2012-10-26T15:29:18Z</time>
      </trkpt>
      <trkpt lat="46.39336" lon="-0.34229">
        <ele>97</ele>
        <time>2012-10-26T15:29:23Z</time>
      </trkpt>
      <trkpt lat="46.39341" lon="-0.34228">
        <ele>96</ele>
        <time>2012-10-26T15:29:28Z</time>
      </trkpt>
      <trkpt lat="46.39346" lon="-0.34228">
        <ele>96</ele>
        <time>2012-10-26T15:29:33Z</time>
      </trkpt>
      <trkpt lat="46.39349" lon="-0.34223">
        <ele>96</ele>
        <time>2012-10-26T15:29:38Z</time>
      </trkpt>
      <trkpt lat="46.39349" lon="-0.34215">
        <ele>96</ele>
        <time>2012-10-26T15:29:43Z</time>
      </trkpt>
      <trkpt lat="46.39349" lon="-0.34207">
        <ele>96</ele>
        <time>2012-10-26T15:29:48Z</time>
      </trkpt>
      <trkpt lat="46.39352" lon="-0.342">
        <ele>99</ele>
        <time>2012-10-26T15:29:53Z</time>
      </trkpt>
      <trkpt lat="46.39351" lon="-0.34193">
        <ele>98</ele>
        <time>2012-10-26T15:29:58Z</time>
      </trkpt>
      <trkpt lat="46.39354" lon="-0.34187">
        <ele>99</ele>
        <time>2012-10-26T15:30:03Z</time>
      </trkpt>
      <trkpt lat="46.39356" lon="-0.34179">
        <ele>101</ele>
        <time>2012-10-26T15:30:08Z</time>
      </trkpt>
      <trkpt lat="46.39361" lon="-0.34179">
        <ele>100</ele>
        <time>2012-10-26T15:30:13Z</time>
      </trkpt>
      <trkpt lat="46.39365" lon="-0.34183">
        <ele>99</ele>
        <time>2012-10-26T15:30:18Z</time>
      </trkpt>
      <trkpt lat="46.3937" lon="-0.34186">
        <ele>99</ele>
        <time>2012-10-26T15:30:23Z</time>
      </trkpt>
      <trkpt lat="46.39375" lon="-0.3419">
        <ele>98</ele>
        <time>2012-10-26T15:30:28Z</time>
      </trkpt>
      <trkpt lat="46.39379" lon="-0.34192">
        <ele>98</ele>
        <time>2012-10-26T15:30:33Z</time>
      </trkpt>
      <trkpt lat="46.39384" lon="-0.34196">
        <ele>98</ele>
        <time>2012-10-26T15:30:38Z</time>
      </trkpt>
      <trkpt lat="46.39389" lon="-0.34199">
        <ele>97</ele>
        <time>2012-10-26T15:30:43Z</time>
      </trkpt>
      <trkpt lat="46.39396" lon="-0.34201">
        <ele>98</ele>
        <time>2012-10-26T15:30:48Z</time>
      </trkpt>
      <trkpt lat="46.39399" lon="-0.34204">
        <ele>98</ele>
        <time>2012-10-26T15:30:53Z</time>
      </trkpt>
      <trkpt lat="46.39402" lon="-0.34206">
        <ele>98</ele>
        <time>2012-10-26T15:30:58Z</time>
      </trkpt>
      <trkpt lat="46.39404" lon="-0.34209">
        <ele>98</ele>
        <time>2012-10-26T15:31:03Z</time>
      </trkpt>
      <trkpt lat="46.39408" lon="-0.34213">
        <ele>99</ele>
        <time>2012-10-26T15:31:08Z</time>
      </trkpt>
      <trkpt lat="46.39414" lon="-0.34217">
        <ele>100</ele>
        <time>2012-10-26T15:31:13Z</time>
      </trkpt>
      <trkpt lat="46.39421" lon="-0.34222">
        <ele>95</ele>
        <time>2012-10-26T15:31:18Z</time>
      </trkpt>
      <trkpt lat="46.39424" lon="-0.34227">
        <ele>95</ele>
        <time>2012-10-26T15:31:23Z</time>
      </trkpt>
      <trkpt lat="46.39428" lon="-0.34229">
        <ele>94</ele>
        <time>2012-10-26T15:31:28Z</time>
      </trkpt>
      <trkpt lat="46.39435" lon="-0.34234">
        <ele>96</ele>
        <time>2012-10-26T15:31:33Z</time>
      </trkpt>
      <trkpt lat="46.39439" lon="-0.34239">
        <ele>97</ele>
        <time>2012-10-26T15:31:38Z</time>
      </trkpt>
      <trkpt lat="46.39439" lon="-0.34242">
        <ele>98</ele>
        <time>2012-10-26T15:31:43Z</time>
      </trkpt>
      <trkpt lat="46.39435" lon="-0.34242">
        <ele>98</ele>
        <time>2012-10-26T15:31:48Z</time>
      </trkpt>
      <trkpt lat="46.39431" lon="-0.34242">
        <ele>99</ele>
        <time>2012-10-26T15:31:53Z</time>
      </trkpt>
      <trkpt lat="46.3943" lon="-0.34242">
        <ele>100</ele>
        <time>2012-10-26T15:31:58Z</time>
      </trkpt>
      <trkpt lat="46.39432" lon="-0.34241">
        <ele>99</ele>
        <time>2012-10-26T15:32:18Z</time>
      </trkpt>
      <trkpt lat="46.39434" lon="-0.34239">
        <ele>98</ele>
        <time>2012-10-26T15:32:23Z</time>
      </trkpt>
      <trkpt lat="46.39434" lon="-0.3424">
        <ele>97</ele>
        <time>2012-10-26T15:32:28Z</time>
      </trkpt>
      <trkpt lat="46.39434" lon="-0.34241">
        <ele>97</ele>
        <time>2012-10-26T15:32:33Z</time>
      </trkpt>
      <trkpt lat="46.39434" lon="-0.3424">
        <ele>97</ele>
        <time>2012-10-26T15:32:38Z</time>
      </trkpt>
      <trkpt lat="46.39434" lon="-0.3424">
        <ele>98</ele>
        <time>2012-10-26T15:33:28Z</time>
      </trkpt>
      <trkpt lat="46.39437" lon="-0.3424">
        <ele>98</ele>
        <time>2012-10-26T15:33:33Z</time>
      </trkpt>
      <trkpt lat="46.39441" lon="-0.34235">
        <ele>102</ele>
        <time>2012-10-26T15:33:38Z</time>
      </trkpt>
      <trkpt lat="46.39442" lon="-0.3423">
        <ele>102</ele>
        <time>2012-10-26T15:33:43Z</time>
      </trkpt>
      <trkpt lat="46.39442" lon="-0.34223">
        <ele>101</ele>
        <time>2012-10-26T15:33:48Z</time>
      </trkpt>
      <trkpt lat="46.39445" lon="-0.34219">
        <ele>102</ele>
        <time>2012-10-26T15:33:53Z</time>
      </trkpt>
      <trkpt lat="46.39444" lon="-0.34218">
        <ele>101</ele>
        <time>2012-10-26T15:33:58Z</time>
      </trkpt>
      <trkpt lat="46.39448" lon="-0.34213">
        <ele>102</ele>
        <time>2012-10-26T15:34:03Z</time>
      </trkpt>
      <trkpt lat="46.3945" lon="-0.34208">
        <ele>102</ele>
        <time>2012-10-26T15:34:08Z</time>
      </trkpt>
      <trkpt lat="46.3945" lon="-0.34192">
        <ele>102</ele>
        <time>2012-10-26T15:34:13Z</time>
      </trkpt>
      <trkpt lat="46.39452" lon="-0.34183">
        <ele>103</ele>
        <time>2012-10-26T15:34:18Z</time>
      </trkpt>
      <trkpt lat="46.39452" lon="-0.34172">
        <ele>106</ele>
        <time>2012-10-26T15:34:23Z</time>
      </trkpt>
      <trkpt lat="46.39453" lon="-0.34161">
        <ele>107</ele>
        <time>2012-10-26T15:34:28Z</time>
      </trkpt>
      <trkpt lat="46.39456" lon="-0.34157">
        <ele>106</ele>
        <time>2012-10-26T15:34:33Z</time>
      </trkpt>
      <trkpt lat="46.39456" lon="-0.3415">
        <ele>106</ele>
        <time>2012-10-26T15:34:38Z</time>
      </trkpt>
      <trkpt lat="46.39455" lon="-0.34142">
        <ele>106</ele>
        <time>2012-10-26T15:34:43Z</time>
      </trkpt>
      <trkpt lat="46.39455" lon="-0.34136">
        <ele>105</ele>
        <time>2012-10-26T15:34:48Z</time>
      </trkpt>
      <trkpt lat="46.39456" lon="-0.34126">
        <ele>104</ele>
        <time>2012-10-26T15:34:53Z</time>
      </trkpt>
      <trkpt lat="46.39456" lon="-0.34117">
        <ele>105</ele>
        <time>2012-10-26T15:34:58Z</time>
      </trkpt>
      <trkpt lat="46.39457" lon="-0.34112">
        <ele>104</ele>
        <time>2012-10-26T15:35:03Z</time>
      </trkpt>
      <trkpt lat="46.39457" lon="-0.34107">
        <ele>104</ele>
        <time>2012-10-26T15:35:08Z</time>
      </trkpt>
      <trkpt lat="46.39458" lon="-0.34097">
        <ele>103</ele>
        <time>2012-10-26T15:35:13Z</time>
      </trkpt>
      <trkpt lat="46.39459" lon="-0.34089">
        <ele>105</ele>
        <time>2012-10-26T15:35:18Z</time>
      </trkpt>
      <trkpt lat="46.3946" lon="-0.34082">
        <ele>103</ele>
        <time>2012-10-26T15:35:23Z</time>
      </trkpt>
      <trkpt lat="46.39462" lon="-0.34076">
        <ele>103</ele>
        <time>2012-10-26T15:35:28Z</time>
      </trkpt>
      <trkpt lat="46.39463" lon="-0.3407">
        <ele>102</ele>
        <time>2012-10-26T15:35:33Z</time>
      </trkpt>
      <trkpt lat="46.39464" lon="-0.34063">
        <ele>102</ele>
        <time>2012-10-26T15:35:38Z</time>
      </trkpt>
      <trkpt lat="46.39464" lon="-0.34061">
        <ele>101</ele>
        <time>2012-10-26T15:35:43Z</time>
      </trkpt>
      <trkpt lat="46.39467" lon="-0.3405">
        <ele>97</ele>
        <time>2012-10-26T15:35:48Z</time>
      </trkpt>
      <trkpt lat="46.39468" lon="-0.34044">
        <ele>96</ele>
        <time>2012-10-26T15:35:53Z</time>
      </trkpt>
      <trkpt lat="46.39471" lon="-0.34036">
        <ele>97</ele>
        <time>2012-10-26T15:35:58Z</time>
      </trkpt>
      <trkpt lat="46.39473" lon="-0.34025">
        <ele>99</ele>
        <time>2012-10-26T15:36:03Z</time>
      </trkpt>
      <trkpt lat="46.39474" lon="-0.34015">
        <ele>99</ele>
        <time>2012-10-26T15:36:08Z</time>
      </trkpt>
      <trkpt lat="46.39476" lon="-0.34009">
        <ele>99</ele>
        <time>2012-10-26T15:36:13Z</time>
      </trkpt>
      <trkpt lat="46.39478" lon="-0.34003">
        <ele>99</ele>
        <time>2012-10-26T15:36:18Z</time>
      </trkpt>
      <trkpt lat="46.39476" lon="-0.33994">
        <ele>101</ele>
        <time>2012-10-26T15:36:23Z</time>
      </trkpt>
      <trkpt lat="46.39474" lon="-0.3399">
        <ele>102</ele>
        <time>2012-10-26T15:36:28Z</time>
      </trkpt>
      <trkpt lat="46.39473" lon="-0.3399">
        <ele>102</ele>
        <time>2012-10-26T15:36:33Z</time>
      </trkpt>
      <trkpt lat="46.39472" lon="-0.33989">
        <ele>103</ele>
        <time>2012-10-26T15:36:38Z</time>
      </trkpt>
      <trkpt lat="46.39473" lon="-0.33992">
        <ele>102</ele>
        <time>2012-10-26T15:37:18Z</time>
      </trkpt>
      <trkpt lat="46.39473" lon="-0.33992">
        <ele>103</ele>
        <time>2012-10-26T15:37:23Z</time>
      </trkpt>
      <trkpt lat="46.39475" lon="-0.33995">
        <ele>104</ele>
        <time>2012-10-26T15:37:28Z</time>
      </trkpt>
      <trkpt lat="46.39475" lon="-0.33997">
        <ele>105</ele>
        <time>2012-10-26T15:37:33Z</time>
      </trkpt>
      <trkpt lat="46.39474" lon="-0.33998">
        <ele>105</ele>
        <time>2012-10-26T15:37:38Z</time>
      </trkpt>
      <trkpt lat="46.39474" lon="-0.33999">
        <ele>105</ele>
        <time>2012-10-26T15:37:43Z</time>
      </trkpt>
      <trkpt lat="46.39472" lon="-0.34001">
        <ele>104</ele>
        <time>2012-10-26T15:37:48Z</time>
      </trkpt>
      <trkpt lat="46.39473" lon="-0.34002">
        <ele>104</ele>
        <time>2012-10-26T15:37:53Z</time>
      </trkpt>
      <trkpt lat="46.39472" lon="-0.34002">
        <ele>104</ele>
        <time>2012-10-26T15:37:58Z</time>
      </trkpt>
      <trkpt lat="46.39473" lon="-0.34002">
        <ele>104</ele>
        <time>2012-10-26T15:38:23Z</time>
      </trkpt>
      <trkpt lat="46.39471" lon="-0.34002">
        <ele>106</ele>
        <time>2012-10-26T15:38:38Z</time>
      </trkpt>
      <trkpt lat="46.39472" lon="-0.34001">
        <ele>105</ele>
        <time>2012-10-26T15:38:43Z</time>
      </trkpt>
      <trkpt lat="46.39471" lon="-0.34">
        <ele>105</ele>
        <time>2012-10-26T15:38:48Z</time>
      </trkpt>
      <trkpt lat="46.3947" lon="-0.34">
        <ele>105</ele>
        <time>2012-10-26T15:38:53Z</time>
      </trkpt>
      <trkpt lat="46.3947" lon="-0.34001">
        <ele>105</ele>
        <time>2012-10-26T15:39:03Z</time>
      </trkpt>
      <trkpt lat="46.39473" lon="-0.34">
        <ele>106</ele>
        <time>2012-10-26T15:39:08Z</time>
      </trkpt>
      <trkpt lat="46.39473" lon="-0.34">
        <ele>107</ele>
        <time>2012-10-26T15:39:13Z</time>
      </trkpt>
      <trkpt lat="46.39472" lon="-0.34">
        <ele>107</ele>
        <time>2012-10-26T15:39:18Z</time>
      </trkpt>
      <trkpt lat="46.39472" lon="-0.34">
        <ele>107</ele>
        <time>2012-10-26T15:39:33Z</time>
      </trkpt>
      <trkpt lat="46.3947" lon="-0.33999">
        <ele>106</ele>
        <time>2012-10-26T15:39:38Z</time>
      </trkpt>
      <trkpt lat="46.3947" lon="-0.34">
        <ele>106</ele>
        <time>2012-10-26T15:39:43Z</time>
      </trkpt>
      <trkpt lat="46.3947" lon="-0.34001">
        <ele>106</ele>
        <time>2012-10-26T15:39:48Z</time>
      </trkpt>
      <trkpt lat="46.3947" lon="-0.34002">
        <ele>106</ele>
        <time>2012-10-26T15:39:53Z</time>
      </trkpt>
      <trkpt lat="46.39475" lon="-0.33997">
        <ele>107</ele>
        <time>2012-10-26T15:40:03Z</time>
      </trkpt>
      <trkpt lat="46.39479" lon="-0.33994">
        <ele>107</ele>
        <time>2012-10-26T15:40:08Z</time>
      </trkpt>
      <trkpt lat="46.39485" lon="-0.33988">
        <ele>106</ele>
        <time>2012-10-26T15:40:13Z</time>
      </trkpt>
      <trkpt lat="46.39488" lon="-0.33982">
        <ele>106</ele>
        <time>2012-10-26T15:40:18Z</time>
      </trkpt>
      <trkpt lat="46.39491" lon="-0.33977">
        <ele>105</ele>
        <time>2012-10-26T15:40:23Z</time>
      </trkpt>
      <trkpt lat="46.39495" lon="-0.33972">
        <ele>104</ele>
        <time>2012-10-26T15:40:28Z</time>
      </trkpt>
      <trkpt lat="46.39498" lon="-0.33967">
        <ele>104</ele>
        <time>2012-10-26T15:40:33Z</time>
      </trkpt>
      <trkpt lat="46.39503" lon="-0.33964">
        <ele>103</ele>
        <time>2012-10-26T15:40:38Z</time>
      </trkpt>
      <trkpt lat="46.39504" lon="-0.33961">
        <ele>103</ele>
        <time>2012-10-26T15:40:43Z</time>
      </trkpt>
      <trkpt lat="46.39509" lon="-0.33957">
        <ele>103</ele>
        <time>2012-10-26T15:40:48Z</time>
      </trkpt>
      <trkpt lat="46.39512" lon="-0.33952">
        <ele>101</ele>
        <time>2012-10-26T15:40:53Z</time>
      </trkpt>
      <trkpt lat="46.39516" lon="-0.3395">
        <ele>102</ele>
        <time>2012-10-26T15:40:58Z</time>
      </trkpt>
      <trkpt lat="46.3952" lon="-0.33947">
        <ele>102</ele>
        <time>2012-10-26T15:41:03Z</time>
      </trkpt>
      <trkpt lat="46.39524" lon="-0.33942">
        <ele>102</ele>
        <time>2012-10-26T15:41:08Z</time>
      </trkpt>
      <trkpt lat="46.39529" lon="-0.33937">
        <ele>102</ele>
        <time>2012-10-26T15:41:13Z</time>
      </trkpt>
      <trkpt lat="46.39537" lon="-0.33933">
        <ele>102</ele>
        <time>2012-10-26T15:41:18Z</time>
      </trkpt>
      <trkpt lat="46.3954" lon="-0.33927">
        <ele>102</ele>
        <time>2012-10-26T15:41:23Z</time>
      </trkpt>
      <trkpt lat="46.39547" lon="-0.33925">
        <ele>102</ele>
        <time>2012-10-26T15:41:28Z</time>
      </trkpt>
      <trkpt lat="46.39551" lon="-0.33917">
        <ele>100</ele>
        <time>2012-10-26T15:41:33Z</time>
      </trkpt>
      <trkpt lat="46.39554" lon="-0.33912">
        <ele>97</ele>
        <time>2012-10-26T15:41:38Z</time>
      </trkpt>
      <trkpt lat="46.39561" lon="-0.33905">
        <ele>101</ele>
        <time>2012-10-26T15:41:43Z</time>
      </trkpt>
      <trkpt lat="46.39565" lon="-0.33902">
        <ele>102</ele>
        <time>2012-10-26T15:41:48Z</time>
      </trkpt>
      <trkpt lat="46.39569" lon="-0.33898">
        <ele>102</ele>
        <time>2012-10-26T15:41:53Z</time>
      </trkpt>
      <trkpt lat="46.39575" lon="-0.33895">
        <ele>103</ele>
        <time>2012-10-26T15:41:58Z</time>
      </trkpt>
      <trkpt lat="46.3958" lon="-0.33889">
        <ele>102</ele>
        <time>2012-10-26T15:42:03Z</time>
      </trkpt>
      <trkpt lat="46.39585" lon="-0.33884">
        <ele>101</ele>
        <time>2012-10-26T15:42:08Z</time>
      </trkpt>
      <trkpt lat="46.3959" lon="-0.33881">
        <ele>103</ele>
        <time>2012-10-26T15:42:13Z</time>
      </trkpt>
      <trkpt lat="46.39596" lon="-0.33877">
        <ele>103</ele>
        <time>2012-10-26T15:42:18Z</time>
      </trkpt>
      <trkpt lat="46.396" lon="-0.33873">
        <ele>106</ele>
        <time>2012-10-26T15:42:23Z</time>
      </trkpt>
      <trkpt lat="46.39605" lon="-0.33868">
        <ele>111</ele>
        <time>2012-10-26T15:42:28Z</time>
      </trkpt>
      <trkpt lat="46.3961" lon="-0.33865">
        <ele>112</ele>
        <time>2012-10-26T15:42:33Z</time>
      </trkpt>
      <trkpt lat="46.39615" lon="-0.33862">
        <ele>110</ele>
        <time>2012-10-26T15:42:38Z</time>
      </trkpt>
      <trkpt lat="46.39621" lon="-0.33859">
        <ele>109</ele>
        <time>2012-10-26T15:42:43Z</time>
      </trkpt>
      <trkpt lat="46.39626" lon="-0.33856">
        <ele>104</ele>
        <time>2012-10-26T15:42:48Z</time>
      </trkpt>
      <trkpt lat="46.3963" lon="-0.33854">
        <ele>103</ele>
        <time>2012-10-26T15:42:53Z</time>
      </trkpt>
      <trkpt lat="46.39635" lon="-0.33851">
        <ele>103</ele>
        <time>2012-10-26T15:42:58Z</time>
      </trkpt>
      <trkpt lat="46.39638" lon="-0.33847">
        <ele>103</ele>
        <time>2012-10-26T15:43:03Z</time>
      </trkpt>
      <trkpt lat="46.39644" lon="-0.33844">
        <ele>104</ele>
        <time>2012-10-26T15:43:08Z</time>
      </trkpt>
      <trkpt lat="46.39649" lon="-0.33842">
        <ele>105</ele>
        <time>2012-10-26T15:43:13Z</time>
      </trkpt>
      <trkpt lat="46.39655" lon="-0.33842">
        <ele>104</ele>
        <time>2012-10-26T15:43:18Z</time>
      </trkpt>
      <trkpt lat="46.3966" lon="-0.3384">
        <ele>105</ele>
        <time>2012-10-26T15:43:23Z</time>
      </trkpt>
      <trkpt lat="46.39667" lon="-0.33836">
        <ele>103</ele>
        <time>2012-10-26T15:43:28Z</time>
      </trkpt>
      <trkpt lat="46.39671" lon="-0.33836">
        <ele>102</ele>
        <time>2012-10-26T15:43:33Z</time>
      </trkpt>
      <trkpt lat="46.39678" lon="-0.33834">
        <ele>101</ele>
        <time>2012-10-26T15:43:38Z</time>
      </trkpt>
      <trkpt lat="46.39681" lon="-0.33835">
        <ele>103</ele>
        <time>2012-10-26T15:43:43Z</time>
      </trkpt>
      <trkpt lat="46.39686" lon="-0.33839">
        <ele>103</ele>
        <time>2012-10-26T15:43:48Z</time>
      </trkpt>
      <trkpt lat="46.39693" lon="-0.33842">
        <ele>103</ele>
        <time>2012-10-26T15:43:53Z</time>
      </trkpt>
      <trkpt lat="46.39698" lon="-0.33847">
        <ele>103</ele>
        <time>2012-10-26T15:43:58Z</time>
      </trkpt>
      <trkpt lat="46.39703" lon="-0.33848">
        <ele>102</ele>
        <time>2012-10-26T15:44:03Z</time>
      </trkpt>
      <trkpt lat="46.39709" lon="-0.33851">
        <ele>102</ele>
        <time>2012-10-26T15:44:08Z</time>
      </trkpt>
      <trkpt lat="46.39713" lon="-0.33853">
        <ele>102</ele>
        <time>2012-10-26T15:44:13Z</time>
      </trkpt>
      <trkpt lat="46.39717" lon="-0.33855">
        <ele>101</ele>
        <time>2012-10-26T15:44:18Z</time>
      </trkpt>
      <trkpt lat="46.39724" lon="-0.33858">
        <ele>101</ele>
        <time>2012-10-26T15:44:23Z</time>
      </trkpt>
      <trkpt lat="46.39729" lon="-0.33862">
        <ele>101</ele>
        <time>2012-10-26T15:44:28Z</time>
      </trkpt>
      <trkpt lat="46.39737" lon="-0.33864">
        <ele>97</ele>
        <time>2012-10-26T15:44:33Z</time>
      </trkpt>
      <trkpt lat="46.39739" lon="-0.33871">
        <ele>97</ele>
        <time>2012-10-26T15:44:38Z</time>
      </trkpt>
      <trkpt lat="46.39737" lon="-0.33877">
        <ele>99</ele>
        <time>2012-10-26T15:44:43Z</time>
      </trkpt>
      <trkpt lat="46.39736" lon="-0.33882">
        <ele>100</ele>
        <time>2012-10-26T15:44:48Z</time>
      </trkpt>
      <trkpt lat="46.39737" lon="-0.33885">
        <ele>100</ele>
        <time>2012-10-26T15:44:53Z</time>
      </trkpt>
      <trkpt lat="46.39737" lon="-0.33885">
        <ele>100</ele>
        <time>2012-10-26T15:44:58Z</time>
      </trkpt>
      <trkpt lat="46.39736" lon="-0.33885">
        <ele>101</ele>
        <time>2012-10-26T15:45:03Z</time>
      </trkpt>
      <trkpt lat="46.39736" lon="-0.33885">
        <ele>101</ele>
        <time>2012-10-26T15:45:08Z</time>
      </trkpt>
      <trkpt lat="46.39735" lon="-0.33884">
        <ele>101</ele>
        <time>2012-10-26T15:45:13Z</time>
      </trkpt>
      <trkpt lat="46.39733" lon="-0.33884">
        <ele>101</ele>
        <time>2012-10-26T15:45:18Z</time>
      </trkpt>
      <trkpt lat="46.39733" lon="-0.33884">
        <ele>101</ele>
        <time>2012-10-26T15:45:23Z</time>
      </trkpt>
      <trkpt lat="46.39733" lon="-0.33884">
        <ele>101</ele>
        <time>2012-10-26T15:45:28Z</time>
      </trkpt>
      <trkpt lat="46.39736" lon="-0.33891">
        <ele>101</ele>
        <time>2012-10-26T15:45:33Z</time>
      </trkpt>
      <trkpt lat="46.39737" lon="-0.33897">
        <ele>102</ele>
        <time>2012-10-26T15:45:38Z</time>
      </trkpt>
      <trkpt lat="46.39739" lon="-0.33903">
        <ele>102</ele>
        <time>2012-10-26T15:45:43Z</time>
      </trkpt>
      <trkpt lat="46.39741" lon="-0.33907">
        <ele>102</ele>
        <time>2012-10-26T15:45:48Z</time>
      </trkpt>
      <trkpt lat="46.39742" lon="-0.33915">
        <ele>102</ele>
        <time>2012-10-26T15:45:53Z</time>
      </trkpt>
      <trkpt lat="46.39744" lon="-0.33919">
        <ele>103</ele>
        <time>2012-10-26T15:45:58Z</time>
      </trkpt>
      <trkpt lat="46.39745" lon="-0.33923">
        <ele>103</ele>
        <time>2012-10-26T15:46:03Z</time>
      </trkpt>
      <trkpt lat="46.39747" lon="-0.33932">
        <ele>103</ele>
        <time>2012-10-26T15:46:08Z</time>
      </trkpt>
      <trkpt lat="46.39752" lon="-0.33939">
        <ele>108</ele>
        <time>2012-10-26T15:46:13Z</time>
      </trkpt>
      <trkpt lat="46.39756" lon="-0.33946">
        <ele>107</ele>
        <time>2012-10-26T15:46:18Z</time>
      </trkpt>
      <trkpt lat="46.39756" lon="-0.33949">
        <ele>107</ele>
        <time>2012-10-26T15:46:23Z</time>
      </trkpt>
      <trkpt lat="46.39758" lon="-0.33958">
        <ele>107</ele>
        <time>2012-10-26T15:46:28Z</time>
      </trkpt>
      <trkpt lat="46.39761" lon="-0.33961">
        <ele>107</ele>
        <time>2012-10-26T15:46:33Z</time>
      </trkpt>
      <trkpt lat="46.39761" lon="-0.33965">
        <ele>107</ele>
        <time>2012-10-26T15:46:38Z</time>
      </trkpt>
      <trkpt lat="46.39766" lon="-0.33971">
        <ele>108</ele>
        <time>2012-10-26T15:46:43Z</time>
      </trkpt>
      <trkpt lat="46.39772" lon="-0.33976">
        <ele>107</ele>
        <time>2012-10-26T15:46:48Z</time>
      </trkpt>
      <trkpt lat="46.39777" lon="-0.3398">
        <ele>106</ele>
        <time>2012-10-26T15:46:53Z</time>
      </trkpt>
      <trkpt lat="46.39782" lon="-0.33984">
        <ele>106</ele>
        <time>2012-10-26T15:46:58Z</time>
      </trkpt>
      <trkpt lat="46.39783" lon="-0.33987">
        <ele>107</ele>
        <time>2012-10-26T15:47:03Z</time>
      </trkpt>
      <trkpt lat="46.39787" lon="-0.33991">
        <ele>106</ele>
        <time>2012-10-26T15:47:08Z</time>
      </trkpt>
      <trkpt lat="46.39789" lon="-0.33996">
        <ele>107</ele>
        <time>2012-10-26T15:47:13Z</time>
      </trkpt>
      <trkpt lat="46.39794" lon="-0.33998">
        <ele>106</ele>
        <time>2012-10-26T15:47:18Z</time>
      </trkpt>
      <trkpt lat="46.39797" lon="-0.34002">
        <ele>105</ele>
        <time>2012-10-26T15:47:23Z</time>
      </trkpt>
      <trkpt lat="46.39802" lon="-0.34007">
        <ele>106</ele>
        <time>2012-10-26T15:47:28Z</time>
      </trkpt>
      <trkpt lat="46.39807" lon="-0.3401">
        <ele>104</ele>
        <time>2012-10-26T15:47:33Z</time>
      </trkpt>
      <trkpt lat="46.39811" lon="-0.34015">
        <ele>105</ele>
        <time>2012-10-26T15:47:38Z</time>
      </trkpt>
      <trkpt lat="46.39819" lon="-0.3402">
        <ele>106</ele>
        <time>2012-10-26T15:47:43Z</time>
      </trkpt>
      <trkpt lat="46.39821" lon="-0.34023">
        <ele>108</ele>
        <time>2012-10-26T15:47:48Z</time>
      </trkpt>
      <trkpt lat="46.39825" lon="-0.34027">
        <ele>109</ele>
        <time>2012-10-26T15:47:53Z</time>
      </trkpt>
      <trkpt lat="46.39827" lon="-0.34029">
        <ele>108</ele>
        <time>2012-10-26T15:47:58Z</time>
      </trkpt>
      <trkpt lat="46.3983" lon="-0.34031">
        <ele>110</ele>
        <time>2012-10-26T15:48:03Z</time>
      </trkpt>
      <trkpt lat="46.39832" lon="-0.34032">
        <ele>111</ele>
        <time>2012-10-26T15:48:08Z</time>
      </trkpt>
      <trkpt lat="46.39832" lon="-0.34033">
        <ele>111</ele>
        <time>2012-10-26T15:48:13Z</time>
      </trkpt>
      <trkpt lat="46.39837" lon="-0.34036">
        <ele>114</ele>
        <time>2012-10-26T15:48:18Z</time>
      </trkpt>
      <trkpt lat="46.3984" lon="-0.34037">
        <ele>115</ele>
        <time>2012-10-26T15:48:23Z</time>
      </trkpt>
      <trkpt lat="46.39841" lon="-0.34037">
        <ele>115</ele>
        <time>2012-10-26T15:48:28Z</time>
      </trkpt>
      <trkpt lat="46.3984" lon="-0.34038">
        <ele>114</ele>
        <time>2012-10-26T15:49:18Z</time>
      </trkpt>
      <trkpt lat="46.39834" lon="-0.34037">
        <ele>117</ele>
        <time>2012-10-26T15:49:23Z</time>
      </trkpt>
      <trkpt lat="46.39833" lon="-0.34037">
        <ele>115</ele>
        <time>2012-10-26T15:49:28Z</time>
      </trkpt>
      <trkpt lat="46.39828" lon="-0.34035">
        <ele>114</ele>
        <time>2012-10-26T15:49:33Z</time>
      </trkpt>
      <trkpt lat="46.39822" lon="-0.34034">
        <ele>115</ele>
        <time>2012-10-26T15:49:38Z</time>
      </trkpt>
      <trkpt lat="46.39817" lon="-0.34033">
        <ele>116</ele>
        <time>2012-10-26T15:49:43Z</time>
      </trkpt>
      <trkpt lat="46.39813" lon="-0.34035">
        <ele>117</ele>
        <time>2012-10-26T15:49:48Z</time>
      </trkpt>
      <trkpt lat="46.39811" lon="-0.34038">
        <ele>117</ele>
        <time>2012-10-26T15:49:53Z</time>
      </trkpt>
      <trkpt lat="46.39807" lon="-0.34041">
        <ele>118</ele>
        <time>2012-10-26T15:49:58Z</time>
      </trkpt>
      <trkpt lat="46.39803" lon="-0.34045">
        <ele>118</ele>
        <time>2012-10-26T15:50:03Z</time>
      </trkpt>
      <trkpt lat="46.39798" lon="-0.3405">
        <ele>120</ele>
        <time>2012-10-26T15:50:08Z</time>
      </trkpt>
      <trkpt lat="46.39794" lon="-0.34054">
        <ele>120</ele>
        <time>2012-10-26T15:50:13Z</time>
      </trkpt>
      <trkpt lat="46.3979" lon="-0.34057">
        <ele>119</ele>
        <time>2012-10-26T15:50:18Z</time>
      </trkpt>
      <trkpt lat="46.39787" lon="-0.34059">
        <ele>119</ele>
        <time>2012-10-26T15:50:23Z</time>
      </trkpt>
      <trkpt lat="46.39784" lon="-0.34062">
        <ele>118</ele>
        <time>2012-10-26T15:50:28Z</time>
      </trkpt>
      <trkpt lat="46.39779" lon="-0.34067">
        <ele>119</ele>
        <time>2012-10-26T15:50:33Z</time>
      </trkpt>
      <trkpt lat="46.39774" lon="-0.3407">
        <ele>121</ele>
        <time>2012-10-26T15:50:38Z</time>
      </trkpt>
      <trkpt lat="46.3977" lon="-0.34073">
        <ele>121</ele>
        <time>2012-10-26T15:50:43Z</time>
      </trkpt>
      <trkpt lat="46.39766" lon="-0.34076">
        <ele>122</ele>
        <time>2012-10-26T15:50:48Z</time>
      </trkpt>
      <trkpt lat="46.39762" lon="-0.3408">
        <ele>122</ele>
        <time>2012-10-26T15:50:53Z</time>
      </trkpt>
      <trkpt lat="46.39758" lon="-0.34083">
        <ele>122</ele>
        <time>2012-10-26T15:50:58Z</time>
      </trkpt>
      <trkpt lat="46.39758" lon="-0.34083">
        <ele>122</ele>
        <time>2012-10-26T15:51:03Z</time>
      </trkpt>
      <trkpt lat="46.39755" lon="-0.34084">
        <ele>122</ele>
        <time>2012-10-26T15:51:08Z</time>
      </trkpt>
      <trkpt lat="46.39755" lon="-0.34085">
        <ele>122</ele>
        <time>2012-10-26T15:51:13Z</time>
      </trkpt>
      <trkpt lat="46.39756" lon="-0.34084">
        <ele>121</ele>
        <time>2012-10-26T15:51:18Z</time>
      </trkpt>
      <trkpt lat="46.39757" lon="-0.34084">
        <ele>121</ele>
        <time>2012-10-26T15:51:23Z</time>
      </trkpt>
      <trkpt lat="46.39752" lon="-0.34087">
        <ele>118</ele>
        <time>2012-10-26T15:51:28Z</time>
      </trkpt>
      <trkpt lat="46.39749" lon="-0.34091">
        <ele>118</ele>
        <time>2012-10-26T15:51:33Z</time>
      </trkpt>
      <trkpt lat="46.39745" lon="-0.34095">
        <ele>119</ele>
        <time>2012-10-26T15:51:38Z</time>
      </trkpt>
      <trkpt lat="46.39739" lon="-0.34099">
        <ele>123</ele>
        <time>2012-10-26T15:51:43Z</time>
      </trkpt>
      <trkpt lat="46.39733" lon="-0.34103">
        <ele>124</ele>
        <time>2012-10-26T15:51:48Z</time>
      </trkpt>
      <trkpt lat="46.39729" lon="-0.34106">
        <ele>124</ele>
        <time>2012-10-26T15:51:53Z</time>
      </trkpt>
      <trkpt lat="46.39724" lon="-0.3411">
        <ele>126</ele>
        <time>2012-10-26T15:51:58Z</time>
      </trkpt>
      <trkpt lat="46.39721" lon="-0.3411">
        <ele>123</ele>
        <time>2012-10-26T15:52:03Z</time>
      </trkpt>
      <trkpt lat="46.39717" lon="-0.34105">
        <ele>122</ele>
        <time>2012-10-26T15:52:08Z</time>
      </trkpt>
      <trkpt lat="46.39715" lon="-0.34098">
        <ele>122</ele>
        <time>2012-10-26T15:52:13Z</time>
      </trkpt>
      <trkpt lat="46.39712" lon="-0.34091">
        <ele>123</ele>
        <time>2012-10-26T15:52:18Z</time>
      </trkpt>
      <trkpt lat="46.39707" lon="-0.34086">
        <ele>121</ele>
        <time>2012-10-26T15:52:23Z</time>
      </trkpt>
      <trkpt lat="46.39702" lon="-0.34089">
        <ele>121</ele>
        <time>2012-10-26T15:52:28Z</time>
      </trkpt>
      <trkpt lat="46.39698" lon="-0.3409">
        <ele>120</ele>
        <time>2012-10-26T15:52:33Z</time>
      </trkpt>
      <trkpt lat="46.39693" lon="-0.34092">
        <ele>119</ele>
        <time>2012-10-26T15:52:38Z</time>
      </trkpt>
      <trkpt lat="46.39687" lon="-0.34095">
        <ele>120</ele>
        <time>2012-10-26T15:52:43Z</time>
      </trkpt>
      <trkpt lat="46.39685" lon="-0.34097">
        <ele>118</ele>
        <time>2012-10-26T15:52:48Z</time>
      </trkpt>
      <trkpt lat="46.3968" lon="-0.34101">
        <ele>117</ele>
        <time>2012-10-26T15:52:53Z</time>
      </trkpt>
      <trkpt lat="46.39675" lon="-0.34105">
        <ele>118</ele>
        <time>2012-10-26T15:52:58Z</time>
      </trkpt>
      <trkpt lat="46.39672" lon="-0.34109">
        <ele>118</ele>
        <time>2012-10-26T15:53:03Z</time>
      </trkpt>
      <trkpt lat="46.39668" lon="-0.34112">
        <ele>118</ele>
        <time>2012-10-26T15:53:08Z</time>
      </trkpt>
      <trkpt lat="46.39664" lon="-0.34115">
        <ele>118</ele>
        <time>2012-10-26T15:53:13Z</time>
      </trkpt>
      <trkpt lat="46.39658" lon="-0.34119">
        <ele>118</ele>
        <time>2012-10-26T15:53:18Z</time>
      </trkpt>
      <trkpt lat="46.39654" lon="-0.34123">
        <ele>119</ele>
        <time>2012-10-26T15:53:23Z</time>
      </trkpt>
      <trkpt lat="46.39649" lon="-0.34126">
        <ele>119</ele>
        <time>2012-10-26T15:53:28Z</time>
      </trkpt>
      <trkpt lat="46.39646" lon="-0.34129">
        <ele>119</ele>
        <time>2012-10-26T15:53:33Z</time>
      </trkpt>
      <trkpt lat="46.39641" lon="-0.34131">
        <ele>119</ele>
        <time>2012-10-26T15:53:38Z</time>
      </trkpt>
      <trkpt lat="46.39637" lon="-0.34132">
        <ele>119</ele>
        <time>2012-10-26T15:53:43Z</time>
      </trkpt>
      <trkpt lat="46.39633" lon="-0.34134">
        <ele>118</ele>
        <time>2012-10-26T15:53:48Z</time>
      </trkpt>
      <trkpt lat="46.39629" lon="-0.34138">
        <ele>118</ele>
        <time>2012-10-26T15:53:53Z</time>
      </trkpt>
      <trkpt lat="46.39625" lon="-0.3414">
        <ele>117</ele>
        <time>2012-10-26T15:53:58Z</time>
      </trkpt>
      <trkpt lat="46.39621" lon="-0.34138">
        <ele>117</ele>
        <time>2012-10-26T15:54:03Z</time>
      </trkpt>
      <trkpt lat="46.39618" lon="-0.34131">
        <ele>116</ele>
        <time>2012-10-26T15:54:08Z</time>
      </trkpt>
      <trkpt lat="46.39615" lon="-0.34125">
        <ele>116</ele>
        <time>2012-10-26T15:54:13Z</time>
      </trkpt>
      <trkpt lat="46.39614" lon="-0.34122">
        <ele>112</ele>
        <time>2012-10-26T15:54:18Z</time>
      </trkpt>
      <trkpt lat="46.39613" lon="-0.3413">
        <ele>100</ele>
        <time>2012-10-26T15:54:23Z</time>
      </trkpt>
      <trkpt lat="46.39608" lon="-0.34117">
        <ele>105</ele>
        <time>2012-10-26T15:54:28Z</time>
      </trkpt>
      <trkpt lat="46.39604" lon="-0.34116">
        <ele>108</ele>
        <time>2012-10-26T15:54:33Z</time>
      </trkpt>
      <trkpt lat="46.39599" lon="-0.3412">
        <ele>111</ele>
        <time>2012-10-26T15:54:38Z</time>
      </trkpt>
      <trkpt lat="46.39596" lon="-0.34121">
        <ele>112</ele>
        <time>2012-10-26T15:54:43Z</time>
      </trkpt>
      <trkpt lat="46.39592" lon="-0.34125">
        <ele>112</ele>
        <time>2012-10-26T15:54:48Z</time>
      </trkpt>
      <trkpt lat="46.39589" lon="-0.34129">
        <ele>113</ele>
        <time>2012-10-26T15:54:53Z</time>
      </trkpt>
      <trkpt lat="46.39588" lon="-0.3413">
        <ele>113</ele>
        <time>2012-10-26T15:54:58Z</time>
      </trkpt>
      <trkpt lat="46.39585" lon="-0.34133">
        <ele>114</ele>
        <time>2012-10-26T15:55:03Z</time>
      </trkpt>
      <trkpt lat="46.39584" lon="-0.34133">
        <ele>115</ele>
        <time>2012-10-26T15:55:08Z</time>
      </trkpt>
      <trkpt lat="46.39581" lon="-0.34132">
        <ele>115</ele>
        <time>2012-10-26T15:55:13Z</time>
      </trkpt>
      <trkpt lat="46.39577" lon="-0.34133">
        <ele>116</ele>
        <time>2012-10-26T15:55:18Z</time>
      </trkpt>
      <trkpt lat="46.39574" lon="-0.34139">
        <ele>115</ele>
        <time>2012-10-26T15:55:23Z</time>
      </trkpt>
      <trkpt lat="46.3957" lon="-0.34146">
        <ele>115</ele>
        <time>2012-10-26T15:55:28Z</time>
      </trkpt>
      <trkpt lat="46.39568" lon="-0.3415">
        <ele>113</ele>
        <time>2012-10-26T15:55:33Z</time>
      </trkpt>
      <trkpt lat="46.39565" lon="-0.34155">
        <ele>113</ele>
        <time>2012-10-26T15:55:38Z</time>
      </trkpt>
      <trkpt lat="46.39564" lon="-0.3416">
        <ele>114</ele>
        <time>2012-10-26T15:55:43Z</time>
      </trkpt>
      <trkpt lat="46.3956" lon="-0.34163">
        <ele>114</ele>
        <time>2012-10-26T15:55:48Z</time>
      </trkpt>
      <trkpt lat="46.3956" lon="-0.34165">
        <ele>112</ele>
        <time>2012-10-26T15:55:53Z</time>
      </trkpt>
      <trkpt lat="46.3956" lon="-0.34166">
        <ele>113</ele>
        <time>2012-10-26T15:55:58Z</time>
      </trkpt>
      <trkpt lat="46.39558" lon="-0.34167">
        <ele>112</ele>
        <time>2012-10-26T15:57:23Z</time>
      </trkpt>
      <trkpt lat="46.39557" lon="-0.34173">
        <ele>111</ele>
        <time>2012-10-26T15:57:28Z</time>
      </trkpt>
      <trkpt lat="46.39556" lon="-0.34178">
        <ele>109</ele>
        <time>2012-10-26T15:57:33Z</time>
      </trkpt>
      <trkpt lat="46.39555" lon="-0.3418">
        <ele>107</ele>
        <time>2012-10-26T15:57:38Z</time>
      </trkpt>
      <trkpt lat="46.39553" lon="-0.34186">
        <ele>106</ele>
        <time>2012-10-26T15:57:43Z</time>
      </trkpt>
      <trkpt lat="46.39553" lon="-0.34189">
        <ele>105</ele>
        <time>2012-10-26T15:57:48Z</time>
      </trkpt>
      <trkpt lat="46.39553" lon="-0.3419">
        <ele>106</ele>
        <time>2012-10-26T15:57:53Z</time>
      </trkpt>
      <trkpt lat="46.39552" lon="-0.34191">
        <ele>107</ele>
        <time>2012-10-26T15:57:58Z</time>
      </trkpt>
      <trkpt lat="46.39552" lon="-0.34191">
        <ele>108</ele>
        <time>2012-10-26T15:58:03Z</time>
      </trkpt>
      <trkpt lat="46.39551" lon="-0.34194">
        <ele>109</ele>
        <time>2012-10-26T15:58:13Z</time>
      </trkpt>
      <trkpt lat="46.39549" lon="-0.342">
        <ele>108</ele>
        <time>2012-10-26T15:58:18Z</time>
      </trkpt>
      <trkpt lat="46.39546" lon="-0.34205">
        <ele>108</ele>
        <time>2012-10-26T15:58:23Z</time>
      </trkpt>
      <trkpt lat="46.39546" lon="-0.3421">
        <ele>107</ele>
        <time>2012-10-26T15:58:28Z</time>
      </trkpt>
      <trkpt lat="46.39545" lon="-0.34214">
        <ele>109</ele>
        <time>2012-10-26T15:58:33Z</time>
      </trkpt>
      <trkpt lat="46.39543" lon="-0.34215">
        <ele>109</ele>
        <time>2012-10-26T15:58:38Z</time>
      </trkpt>
      <trkpt lat="46.39541" lon="-0.34219">
        <ele>109</ele>
        <time>2012-10-26T15:58:43Z</time>
      </trkpt>
      <trkpt lat="46.39538" lon="-0.34224">
        <ele>110</ele>
        <time>2012-10-26T15:58:48Z</time>
      </trkpt>
      <trkpt lat="46.39538" lon="-0.34226">
        <ele>110</ele>
        <time>2012-10-26T15:58:58Z</time>
      </trkpt>
      <trkpt lat="46.39536" lon="-0.3423">
        <ele>110</ele>
        <time>2012-10-26T15:59:03Z</time>
      </trkpt>
      <trkpt lat="46.39534" lon="-0.34231">
        <ele>110</ele>
        <time>2012-10-26T15:59:08Z</time>
      </trkpt>
      <trkpt lat="46.39532" lon="-0.34236">
        <ele>111</ele>
        <time>2012-10-26T15:59:13Z</time>
      </trkpt>
      <trkpt lat="46.39529" lon="-0.3424">
        <ele>110</ele>
        <time>2012-10-26T15:59:18Z</time>
      </trkpt>
      <trkpt lat="46.39527" lon="-0.34239">
        <ele>107</ele>
        <time>2012-10-26T15:59:23Z</time>
      </trkpt>
      <trkpt lat="46.39524" lon="-0.34233">
        <ele>106</ele>
        <time>2012-10-26T15:59:28Z</time>
      </trkpt>
      <trkpt lat="46.3952" lon="-0.34236">
        <ele>101</ele>
        <time>2012-10-26T15:59:33Z</time>
      </trkpt>
      <trkpt lat="46.39518" lon="-0.3423">
        <ele>101</ele>
        <time>2012-10-26T15:59:38Z</time>
      </trkpt>
      <trkpt lat="46.39514" lon="-0.34224">
        <ele>102</ele>
        <time>2012-10-26T15:59:43Z</time>
      </trkpt>
      <trkpt lat="46.39513" lon="-0.34222">
        <ele>103</ele>
        <time>2012-10-26T15:59:48Z</time>
      </trkpt>
      <trkpt lat="46.39513" lon="-0.34222">
        <ele>103</ele>
        <time>2012-10-26T15:59:53Z</time>
      </trkpt>
      <trkpt lat="46.39509" lon="-0.34219">
        <ele>102</ele>
        <time>2012-10-26T15:59:58Z</time>
      </trkpt>
      <trkpt lat="46.39509" lon="-0.34217">
        <ele>101</ele>
        <time>2012-10-26T16:00:03Z</time>
      </trkpt>
      <trkpt lat="46.3951" lon="-0.34217">
        <ele>101</ele>
        <time>2012-10-26T16:00:08Z</time>
      </trkpt>
      <trkpt lat="46.3951" lon="-0.34217">
        <ele>101</ele>
        <time>2012-10-26T16:00:13Z</time>
      </trkpt>
      <trkpt lat="46.39509" lon="-0.34217">
        <ele>99</ele>
        <time>2012-10-26T16:00:33Z</time>
      </trkpt>
      <trkpt lat="46.39512" lon="-0.34217">
        <ele>100</ele>
        <time>2012-10-26T16:00:38Z</time>
      </trkpt>
      <trkpt lat="46.39509" lon="-0.34219">
        <ele>100</ele>
        <time>2012-10-26T16:00:43Z</time>
      </trkpt>
      <trkpt lat="46.39507" lon="-0.34221">
        <ele>101</ele>
        <time>2012-10-26T16:00:48Z</time>
      </trkpt>
      <trkpt lat="46.39503" lon="-0.34221">
        <ele>101</ele>
        <time>2012-10-26T16:00:53Z</time>
      </trkpt>
      <trkpt lat="46.395" lon="-0.34216">
        <ele>101</ele>
        <time>2012-10-26T16:00:58Z</time>
      </trkpt>
      <trkpt lat="46.39495" lon="-0.34209">
        <ele>102</ele>
        <time>2012-10-26T16:01:03Z</time>
      </trkpt>
      <trkpt lat="46.39491" lon="-0.34206">
        <ele>102</ele>
        <time>2012-10-26T16:01:08Z</time>
      </trkpt>
      <trkpt lat="46.3949" lon="-0.34209">
        <ele>102</ele>
        <time>2012-10-26T16:01:13Z</time>
      </trkpt>
      <trkpt lat="46.39489" lon="-0.34214">
        <ele>104</ele>
        <time>2012-10-26T16:01:18Z</time>
      </trkpt>
      <trkpt lat="46.39487" lon="-0.34222">
        <ele>108</ele>
        <time>2012-10-26T16:01:23Z</time>
      </trkpt>
      <trkpt lat="46.39486" lon="-0.34227">
        <ele>107</ele>
        <time>2012-10-26T16:01:28Z</time>
      </trkpt>
      <trkpt lat="46.39481" lon="-0.34234">
        <ele>109</ele>
        <time>2012-10-26T16:01:33Z</time>
      </trkpt>
      <trkpt lat="46.39478" lon="-0.34239">
        <ele>109</ele>
        <time>2012-10-26T16:01:38Z</time>
      </trkpt>
      <trkpt lat="46.39474" lon="-0.34246">
        <ele>111</ele>
        <time>2012-10-26T16:01:43Z</time>
      </trkpt>
      <trkpt lat="46.39472" lon="-0.34253">
        <ele>112</ele>
        <time>2012-10-26T16:01:48Z</time>
      </trkpt>
      <trkpt lat="46.3947" lon="-0.34259">
        <ele>111</ele>
        <time>2012-10-26T16:01:53Z</time>
      </trkpt>
      <trkpt lat="46.39468" lon="-0.34268">
        <ele>114</ele>
        <time>2012-10-26T16:01:58Z</time>
      </trkpt>
      <trkpt lat="46.39465" lon="-0.3427">
        <ele>113</ele>
        <time>2012-10-26T16:02:03Z</time>
      </trkpt>
      <trkpt lat="46.3946" lon="-0.34274">
        <ele>113</ele>
        <time>2012-10-26T16:02:08Z</time>
      </trkpt>
      <trkpt lat="46.39457" lon="-0.34278">
        <ele>113</ele>
        <time>2012-10-26T16:02:13Z</time>
      </trkpt>
      <trkpt lat="46.39456" lon="-0.34278">
        <ele>110</ele>
        <time>2012-10-26T16:02:18Z</time>
      </trkpt>
      <trkpt lat="46.39457" lon="-0.34276">
        <ele>108</ele>
        <time>2012-10-26T16:02:23Z</time>
      </trkpt>
      <trkpt lat="46.39457" lon="-0.34279">
        <ele>107</ele>
        <time>2012-10-26T16:02:28Z</time>
      </trkpt>
      <trkpt lat="46.39454" lon="-0.34283">
        <ele>107</ele>
        <time>2012-10-26T16:02:33Z</time>
      </trkpt>
      <trkpt lat="46.39452" lon="-0.34289">
        <ele>107</ele>
        <time>2012-10-26T16:02:38Z</time>
      </trkpt>
      <trkpt lat="46.39449" lon="-0.34295">
        <ele>108</ele>
        <time>2012-10-26T16:02:43Z</time>
      </trkpt>
      <trkpt lat="46.39445" lon="-0.34301">
        <ele>110</ele>
        <time>2012-10-26T16:02:48Z</time>
      </trkpt>
      <trkpt lat="46.39442" lon="-0.34308">
        <ele>111</ele>
        <time>2012-10-26T16:02:53Z</time>
      </trkpt>
      <trkpt lat="46.39438" lon="-0.34316">
        <ele>112</ele>
        <time>2012-10-26T16:02:58Z</time>
      </trkpt>
      <trkpt lat="46.39436" lon="-0.34322">
        <ele>113</ele>
        <time>2012-10-26T16:03:03Z</time>
      </trkpt>
      <trkpt lat="46.39434" lon="-0.34329">
        <ele>114</ele>
        <time>2012-10-26T16:03:08Z</time>
      </trkpt>
      <trkpt lat="46.39431" lon="-0.34335">
        <ele>116</ele>
        <time>2012-10-26T16:03:13Z</time>
      </trkpt>
      <trkpt lat="46.3943" lon="-0.34341">
        <ele>114</ele>
        <time>2012-10-26T16:03:18Z</time>
      </trkpt>
      <trkpt lat="46.39428" lon="-0.34348">
        <ele>114</ele>
        <time>2012-10-26T16:03:23Z</time>
      </trkpt>
      <trkpt lat="46.39426" lon="-0.34355">
        <ele>116</ele>
        <time>2012-10-26T16:03:28Z</time>
      </trkpt>
      <trkpt lat="46.39423" lon="-0.34363">
        <ele>116</ele>
        <time>2012-10-26T16:03:33Z</time>
      </trkpt>
      <trkpt lat="46.39421" lon="-0.3437">
        <ele>116</ele>
        <time>2012-10-26T16:03:38Z</time>
      </trkpt>
      <trkpt lat="46.39419" lon="-0.34377">
        <ele>115</ele>
        <time>2012-10-26T16:03:43Z</time>
      </trkpt>
      <trkpt lat="46.39418" lon="-0.34383">
        <ele>116</ele>
        <time>2012-10-26T16:03:48Z</time>
      </trkpt>
      <trkpt lat="46.39415" lon="-0.3439">
        <ele>117</ele>
        <time>2012-10-26T16:03:53Z</time>
      </trkpt>
      <trkpt lat="46.39413" lon="-0.34397">
        <ele>117</ele>
        <time>2012-10-26T16:03:58Z</time>
      </trkpt>
      <trkpt lat="46.39412" lon="-0.34404">
        <ele>116</ele>
        <time>2012-10-26T16:04:03Z</time>
      </trkpt>
      <trkpt lat="46.39408" lon="-0.3441">
        <ele>116</ele>
        <time>2012-10-26T16:04:08Z</time>
      </trkpt>
      <trkpt lat="46.39406" lon="-0.34413">
        <ele>118</ele>
        <time>2012-10-26T16:04:13Z</time>
      </trkpt>
      <trkpt lat="46.394" lon="-0.34417">
        <ele>120</ele>
        <time>2012-10-26T16:04:18Z</time>
      </trkpt>
      <trkpt lat="46.39396" lon="-0.34419">
        <ele>120</ele>
        <time>2012-10-26T16:04:23Z</time>
      </trkpt>
      <trkpt lat="46.39391" lon="-0.34422">
        <ele>121</ele>
        <time>2012-10-26T16:04:28Z</time>
      </trkpt>
      <trkpt lat="46.39385" lon="-0.34423">
        <ele>121</ele>
        <time>2012-10-26T16:04:33Z</time>
      </trkpt>
      <trkpt lat="46.3938" lon="-0.34422">
        <ele>120</ele>
        <time>2012-10-26T16:04:38Z</time>
      </trkpt>
      <trkpt lat="46.39375" lon="-0.34423">
        <ele>119</ele>
        <time>2012-10-26T16:04:43Z</time>
      </trkpt>
      <trkpt lat="46.3937" lon="-0.34425">
        <ele>119</ele>
        <time>2012-10-26T16:04:48Z</time>
      </trkpt>
      <trkpt lat="46.39365" lon="-0.34428">
        <ele>119</ele>
        <time>2012-10-26T16:04:53Z</time>
      </trkpt>
      <trkpt lat="46.39357" lon="-0.34432">
        <ele>119</ele>
        <time>2012-10-26T16:04:58Z</time>
      </trkpt>
      <trkpt lat="46.39353" lon="-0.34435">
        <ele>119</ele>
        <time>2012-10-26T16:05:03Z</time>
      </trkpt>
      <trkpt lat="46.39347" lon="-0.34438">
        <ele>119</ele>
        <time>2012-10-26T16:05:08Z</time>
      </trkpt>
      <trkpt lat="46.39342" lon="-0.34441">
        <ele>118</ele>
        <time>2012-10-26T16:05:13Z</time>
      </trkpt>
      <trkpt lat="46.39338" lon="-0.34443">
        <ele>118</ele>
        <time>2012-10-26T16:05:18Z</time>
      </trkpt>
      <trkpt lat="46.39333" lon="-0.34443">
        <ele>117</ele>
        <time>2012-10-26T16:05:23Z</time>
      </trkpt>
      <trkpt lat="46.39328" lon="-0.34445">
        <ele>119</ele>
        <time>2012-10-26T16:05:28Z</time>
      </trkpt>
      <trkpt lat="46.39324" lon="-0.34445">
        <ele>118</ele>
        <time>2012-10-26T16:05:33Z</time>
      </trkpt>
      <trkpt lat="46.39321" lon="-0.3445">
        <ele>118</ele>
        <time>2012-10-26T16:05:38Z</time>
      </trkpt>
      <trkpt lat="46.39317" lon="-0.34458">
        <ele>118</ele>
        <time>2012-10-26T16:05:43Z</time>
      </trkpt>
      <trkpt lat="46.39314" lon="-0.34464">
        <ele>120</ele>
        <time>2012-10-26T16:05:48Z</time>
      </trkpt>
      <trkpt lat="46.39311" lon="-0.34474">
        <ele>120</ele>
        <time>2012-10-26T16:05:53Z</time>
      </trkpt>
      <trkpt lat="46.39311" lon="-0.34482">
        <ele>118</ele>
        <time>2012-10-26T16:05:58Z</time>
      </trkpt>
      <trkpt lat="46.3931" lon="-0.34489">
        <ele>118</ele>
        <time>2012-10-26T16:06:03Z</time>
      </trkpt>
      <trkpt lat="46.39312" lon="-0.34497">
        <ele>118</ele>
        <time>2012-10-26T16:06:08Z</time>
      </trkpt>
      <trkpt lat="46.39313" lon="-0.34504">
        <ele>118</ele>
        <time>2012-10-26T16:06:13Z</time>
      </trkpt>
      <trkpt lat="46.39314" lon="-0.34512">
        <ele>116</ele>
        <time>2012-10-26T16:06:18Z</time>
      </trkpt>
      <trkpt lat="46.39314" lon="-0.3452">
        <ele>116</ele>
        <time>2012-10-26T16:06:23Z</time>
      </trkpt>
      <trkpt lat="46.39316" lon="-0.34528">
        <ele>115</ele>
        <time>2012-10-26T16:06:28Z</time>
      </trkpt>
      <trkpt lat="46.39317" lon="-0.34535">
        <ele>113</ele>
        <time>2012-10-26T16:06:33Z</time>
      </trkpt>
      <trkpt lat="46.39321" lon="-0.34542">
        <ele>113</ele>
        <time>2012-10-26T16:06:38Z</time>
      </trkpt>
      <trkpt lat="46.39324" lon="-0.34548">
        <ele>113</ele>
        <time>2012-10-26T16:06:43Z</time>
      </trkpt>
      <trkpt lat="46.39326" lon="-0.34557">
        <ele>112</ele>
        <time>2012-10-26T16:06:48Z</time>
      </trkpt>
      <trkpt lat="46.39327" lon="-0.34563">
        <ele>112</ele>
        <time>2012-10-26T16:06:53Z</time>
      </trkpt>
      <trkpt lat="46.39329" lon="-0.3457">
        <ele>111</ele>
        <time>2012-10-26T16:06:58Z</time>
      </trkpt>
      <trkpt lat="46.39331" lon="-0.34577">
        <ele>112</ele>
        <time>2012-10-26T16:07:03Z</time>
      </trkpt>
      <trkpt lat="46.39333" lon="-0.34584">
        <ele>111</ele>
        <time>2012-10-26T16:07:08Z</time>
      </trkpt>
      <trkpt lat="46.39334" lon="-0.34591">
        <ele>110</ele>
        <time>2012-10-26T16:07:13Z</time>
      </trkpt>
      <trkpt lat="46.39336" lon="-0.34597">
        <ele>111</ele>
        <time>2012-10-26T16:07:18Z</time>
      </trkpt>
      <trkpt lat="46.39338" lon="-0.34608">
        <ele>113</ele>
        <time>2012-10-26T16:07:23Z</time>
      </trkpt>
      <trkpt lat="46.39341" lon="-0.34617">
        <ele>112</ele>
        <time>2012-10-26T16:07:28Z</time>
      </trkpt>
      <trkpt lat="46.39343" lon="-0.34624">
        <ele>110</ele>
        <time>2012-10-26T16:07:33Z</time>
      </trkpt>
      <trkpt lat="46.39345" lon="-0.34631">
        <ele>110</ele>
        <time>2012-10-26T16:07:38Z</time>
      </trkpt>
      <trkpt lat="46.39348" lon="-0.34637">
        <ele>111</ele>
        <time>2012-10-26T16:07:43Z</time>
      </trkpt>
      <trkpt lat="46.3935" lon="-0.34644">
        <ele>111</ele>
        <time>2012-10-26T16:07:48Z</time>
      </trkpt>
      <trkpt lat="46.39353" lon="-0.34656">
        <ele>112</ele>
        <time>2012-10-26T16:07:53Z</time>
      </trkpt>
      <trkpt lat="46.39355" lon="-0.3466">
        <ele>112</ele>
        <time>2012-10-26T16:07:58Z</time>
      </trkpt>
      <trkpt lat="46.39358" lon="-0.34665">
        <ele>112</ele>
        <time>2012-10-26T16:08:03Z</time>
      </trkpt>
      <trkpt lat="46.39361" lon="-0.34676">
        <ele>113</ele>
        <time>2012-10-26T16:08:08Z</time>
      </trkpt>
      <trkpt lat="46.39364" lon="-0.34681">
        <ele>113</ele>
        <time>2012-10-26T16:08:13Z</time>
      </trkpt>
      <trkpt lat="46.39368" lon="-0.34684">
        <ele>114</ele>
        <time>2012-10-26T16:08:18Z</time>
      </trkpt>
      <trkpt lat="46.39371" lon="-0.34692">
        <ele>114</ele>
        <time>2012-10-26T16:08:23Z</time>
      </trkpt>
      <trkpt lat="46.39376" lon="-0.34697">
        <ele>114</ele>
        <time>2012-10-26T16:08:28Z</time>
      </trkpt>
      <trkpt lat="46.3938" lon="-0.34702">
        <ele>115</ele>
        <time>2012-10-26T16:08:33Z</time>
      </trkpt>
      <trkpt lat="46.39384" lon="-0.34709">
        <ele>115</ele>
        <time>2012-10-26T16:08:38Z</time>
      </trkpt>
      <trkpt lat="46.3939" lon="-0.34714">
        <ele>115</ele>
        <time>2012-10-26T16:08:43Z</time>
      </trkpt>
      <trkpt lat="46.39392" lon="-0.3472">
        <ele>115</ele>
        <time>2012-10-26T16:08:48Z</time>
      </trkpt>
      <trkpt lat="46.39395" lon="-0.34724">
        <ele>116</ele>
        <time>2012-10-26T16:08:53Z</time>
      </trkpt>
      <trkpt lat="46.39401" lon="-0.34731">
        <ele>116</ele>
        <time>2012-10-26T16:08:58Z</time>
      </trkpt>
      <trkpt lat="46.39404" lon="-0.34737">
        <ele>116</ele>
        <time>2012-10-26T16:09:03Z</time>
      </trkpt>
      <trkpt lat="46.39409" lon="-0.34742">
        <ele>116</ele>
        <time>2012-10-26T16:09:08Z</time>
      </trkpt>
      <trkpt lat="46.39412" lon="-0.34746">
        <ele>114</ele>
        <time>2012-10-26T16:09:13Z</time>
      </trkpt>
      <trkpt lat="46.39416" lon="-0.34753">
        <ele>115</ele>
        <time>2012-10-26T16:09:18Z</time>
      </trkpt>
      <trkpt lat="46.3942" lon="-0.34757">
        <ele>116</ele>
        <time>2012-10-26T16:09:23Z</time>
      </trkpt>
      <trkpt lat="46.39424" lon="-0.34764">
        <ele>116</ele>
        <time>2012-10-26T16:09:28Z</time>
      </trkpt>
      <trkpt lat="46.39426" lon="-0.34771">
        <ele>114</ele>
        <time>2012-10-26T16:09:33Z</time>
      </trkpt>
      <trkpt lat="46.39423" lon="-0.34779">
        <ele>113</ele>
        <time>2012-10-26T16:09:38Z</time>
      </trkpt>
      <trkpt lat="46.39421" lon="-0.34784">
        <ele>113</ele>
        <time>2012-10-26T16:09:43Z</time>
      </trkpt>
      <trkpt lat="46.39419" lon="-0.3479">
        <ele>113</ele>
        <time>2012-10-26T16:09:48Z</time>
      </trkpt>
      <trkpt lat="46.39416" lon="-0.34796">
        <ele>114</ele>
        <time>2012-10-26T16:09:53Z</time>
      </trkpt>
      <trkpt lat="46.39413" lon="-0.34802">
        <ele>115</ele>
        <time>2012-10-26T16:09:58Z</time>
      </trkpt>
      <trkpt lat="46.3941" lon="-0.34809">
        <ele>116</ele>
        <time>2012-10-26T16:10:03Z</time>
      </trkpt>
      <trkpt lat="46.39407" lon="-0.34816">
        <ele>116</ele>
        <time>2012-10-26T16:10:08Z</time>
      </trkpt>
      <trkpt lat="46.39404" lon="-0.34822">
        <ele>116</ele>
        <time>2012-10-26T16:10:13Z</time>
      </trkpt>
      <trkpt lat="46.394" lon="-0.34829">
        <ele>115</ele>
        <time>2012-10-26T16:10:18Z</time>
      </trkpt>
      <trkpt lat="46.39397" lon="-0.34834">
        <ele>115</ele>
        <time>2012-10-26T16:10:23Z</time>
      </trkpt>
      <trkpt lat="46.39393" lon="-0.34841">
        <ele>115</ele>
        <time>2012-10-26T16:10:28Z</time>
      </trkpt>
      <trkpt lat="46.3939" lon="-0.34848">
        <ele>115</ele>
        <time>2012-10-26T16:10:33Z</time>
      </trkpt>
      <trkpt lat="46.39387" lon="-0.34854">
        <ele>113</ele>
        <time>2012-10-26T16:10:38Z</time>
      </trkpt>
      <trkpt lat="46.39386" lon="-0.34861">
        <ele>116</ele>
        <time>2012-10-26T16:10:43Z</time>
      </trkpt>
      <trkpt lat="46.39384" lon="-0.34867">
        <ele>117</ele>
        <time>2012-10-26T16:10:48Z</time>
      </trkpt>
      <trkpt lat="46.3938" lon="-0.34874">
        <ele>119</ele>
        <time>2012-10-26T16:10:53Z</time>
      </trkpt>
      <trkpt lat="46.39375" lon="-0.34882">
        <ele>119</ele>
        <time>2012-10-26T16:10:58Z</time>
      </trkpt>
      <trkpt lat="46.3937" lon="-0.34889">
        <ele>119</ele>
        <time>2012-10-26T16:11:03Z</time>
      </trkpt>
      <trkpt lat="46.39367" lon="-0.34895">
        <ele>117</ele>
        <time>2012-10-26T16:11:08Z</time>
      </trkpt>
      <trkpt lat="46.39362" lon="-0.34901">
        <ele>117</ele>
        <time>2012-10-26T16:11:13Z</time>
      </trkpt>
      <trkpt lat="46.39359" lon="-0.34907">
        <ele>115</ele>
        <time>2012-10-26T16:11:18Z</time>
      </trkpt>
      <trkpt lat="46.39356" lon="-0.34914">
        <ele>114</ele>
        <time>2012-10-26T16:11:23Z</time>
      </trkpt>
      <trkpt lat="46.39353" lon="-0.3492">
        <ele>114</ele>
        <time>2012-10-26T16:11:28Z</time>
      </trkpt>
      <trkpt lat="46.39349" lon="-0.34927">
        <ele>114</ele>
        <time>2012-10-26T16:11:33Z</time>
      </trkpt>
      <trkpt lat="46.39346" lon="-0.34934">
        <ele>114</ele>
        <time>2012-10-26T16:11:38Z</time>
      </trkpt>
      <trkpt lat="46.39343" lon="-0.3494">
        <ele>114</ele>
        <time>2012-10-26T16:11:43Z</time>
      </trkpt>
      <trkpt lat="46.39341" lon="-0.34947">
        <ele>115</ele>
        <time>2012-10-26T16:11:48Z</time>
      </trkpt>
      <trkpt lat="46.39339" lon="-0.34953">
        <ele>118</ele>
        <time>2012-10-26T16:11:53Z</time>
      </trkpt>
      <trkpt lat="46.39335" lon="-0.3496">
        <ele>118</ele>
        <time>2012-10-26T16:11:58Z</time>
      </trkpt>
      <trkpt lat="46.39332" lon="-0.34967">
        <ele>118</ele>
        <time>2012-10-26T16:12:03Z</time>
      </trkpt>
      <trkpt lat="46.39327" lon="-0.34975">
        <ele>121</ele>
        <time>2012-10-26T16:12:08Z</time>
      </trkpt>
      <trkpt lat="46.39324" lon="-0.34982">
        <ele>122</ele>
        <time>2012-10-26T16:12:13Z</time>
      </trkpt>
      <trkpt lat="46.39319" lon="-0.3499">
        <ele>123</ele>
        <time>2012-10-26T16:12:18Z</time>
      </trkpt>
      <trkpt lat="46.39315" lon="-0.34999">
        <ele>125</ele>
        <time>2012-10-26T16:12:23Z</time>
      </trkpt>
      <trkpt lat="46.39311" lon="-0.35004">
        <ele>125</ele>
        <time>2012-10-26T16:12:28Z</time>
      </trkpt>
      <trkpt lat="46.39308" lon="-0.35012">
        <ele>125</ele>
        <time>2012-10-26T16:12:33Z</time>
      </trkpt>
      <trkpt lat="46.39303" lon="-0.3502">
        <ele>126</ele>
        <time>2012-10-26T16:12:38Z</time>
      </trkpt>
      <trkpt lat="46.39298" lon="-0.35028">
        <ele>126</ele>
        <time>2012-10-26T16:12:43Z</time>
      </trkpt>
      <trkpt lat="46.39295" lon="-0.35034">
        <ele>126</ele>
        <time>2012-10-26T16:12:48Z</time>
      </trkpt>
      <trkpt lat="46.39291" lon="-0.35039">
        <ele>127</ele>
        <time>2012-10-26T16:12:53Z</time>
      </trkpt>
      <trkpt lat="46.39288" lon="-0.35046">
        <ele>128</ele>
        <time>2012-10-26T16:12:58Z</time>
      </trkpt>
      <trkpt lat="46.39285" lon="-0.35052">
        <ele>125</ele>
        <time>2012-10-26T16:13:03Z</time>
      </trkpt>
      <trkpt lat="46.39281" lon="-0.35059">
        <ele>122</ele>
        <time>2012-10-26T16:13:08Z</time>
      </trkpt>
      <trkpt lat="46.39278" lon="-0.35063">
        <ele>120</ele>
        <time>2012-10-26T16:13:13Z</time>
      </trkpt>
      <trkpt lat="46.39276" lon="-0.35069">
        <ele>118</ele>
        <time>2012-10-26T16:13:18Z</time>
      </trkpt>
      <trkpt lat="46.39273" lon="-0.35076">
        <ele>115</ele>
        <time>2012-10-26T16:13:23Z</time>
      </trkpt>
      <trkpt lat="46.3927" lon="-0.35083">
        <ele>113</ele>
        <time>2012-10-26T16:13:28Z</time>
      </trkpt>
      <trkpt lat="46.39268" lon="-0.35088">
        <ele>111</ele>
        <time>2012-10-26T16:13:33Z</time>
      </trkpt>
      <trkpt lat="46.39265" lon="-0.35094">
        <ele>111</ele>
        <time>2012-10-26T16:13:38Z</time>
      </trkpt>
      <trkpt lat="46.39264" lon="-0.35097">
        <ele>108</ele>
        <time>2012-10-26T16:13:43Z</time>
      </trkpt>
      <trkpt lat="46.3926" lon="-0.35102">
        <ele>107</ele>
        <time>2012-10-26T16:13:48Z</time>
      </trkpt>
      <trkpt lat="46.39257" lon="-0.35109">
        <ele>106</ele>
        <time>2012-10-26T16:13:53Z</time>
      </trkpt>
      <trkpt lat="46.39255" lon="-0.35114">
        <ele>105</ele>
        <time>2012-10-26T16:13:58Z</time>
      </trkpt>
      <trkpt lat="46.39251" lon="-0.35122">
        <ele>105</ele>
        <time>2012-10-26T16:14:03Z</time>
      </trkpt>
      <trkpt lat="46.39248" lon="-0.35128">
        <ele>105</ele>
        <time>2012-10-26T16:14:08Z</time>
      </trkpt>
      <trkpt lat="46.39244" lon="-0.35135">
        <ele>105</ele>
        <time>2012-10-26T16:14:13Z</time>
      </trkpt>
      <trkpt lat="46.39241" lon="-0.35142">
        <ele>106</ele>
        <time>2012-10-26T16:14:18Z</time>
      </trkpt>
      <trkpt lat="46.39238" lon="-0.35148">
        <ele>104</ele>
        <time>2012-10-26T16:14:23Z</time>
      </trkpt>
      <trkpt lat="46.39235" lon="-0.35155">
        <ele>106</ele>
        <time>2012-10-26T16:14:28Z</time>
      </trkpt>
      <trkpt lat="46.39232" lon="-0.35161">
        <ele>105</ele>
        <time>2012-10-26T16:14:33Z</time>
      </trkpt>
      <trkpt lat="46.39229" lon="-0.35166">
        <ele>106</ele>
        <time>2012-10-26T16:14:38Z</time>
      </trkpt>
      <trkpt lat="46.39226" lon="-0.35173">
        <ele>106</ele>
        <time>2012-10-26T16:14:43Z</time>
      </trkpt>
      <trkpt lat="46.39223" lon="-0.35179">
        <ele>106</ele>
        <time>2012-10-26T16:14:48Z</time>
      </trkpt>
      <trkpt lat="46.39217" lon="-0.35187">
        <ele>107</ele>
        <time>2012-10-26T16:14:53Z</time>
      </trkpt>
      <trkpt lat="46.39215" lon="-0.35193">
        <ele>106</ele>
        <time>2012-10-26T16:14:58Z</time>
      </trkpt>
      <trkpt lat="46.39211" lon="-0.352">
        <ele>104</ele>
        <time>2012-10-26T16:15:03Z</time>
      </trkpt>
      <trkpt lat="46.39209" lon="-0.35206">
        <ele>103</ele>
        <time>2012-10-26T16:15:08Z</time>
      </trkpt>
      <trkpt lat="46.39204" lon="-0.35214">
        <ele>106</ele>
        <time>2012-10-26T16:15:13Z</time>
      </trkpt>
      <trkpt lat="46.39202" lon="-0.35219">
        <ele>105</ele>
        <time>2012-10-26T16:15:18Z</time>
      </trkpt>
      <trkpt lat="46.392" lon="-0.35225">
        <ele>103</ele>
        <time>2012-10-26T16:15:23Z</time>
      </trkpt>
      <trkpt lat="46.39194" lon="-0.35234">
        <ele>105</ele>
        <time>2012-10-26T16:15:28Z</time>
      </trkpt>
      <trkpt lat="46.39192" lon="-0.3524">
        <ele>104</ele>
        <time>2012-10-26T16:15:33Z</time>
      </trkpt>
      <trkpt lat="46.39189" lon="-0.35247">
        <ele>104</ele>
        <time>2012-10-26T16:15:38Z</time>
      </trkpt>
      <trkpt lat="46.39185" lon="-0.35254">
        <ele>105</ele>
        <time>2012-10-26T16:15:43Z</time>
      </trkpt>
      <trkpt lat="46.39181" lon="-0.35262">
        <ele>105</ele>
        <time>2012-10-26T16:15:48Z</time>
      </trkpt>
      <trkpt lat="46.39178" lon="-0.35269">
        <ele>107</ele>
        <time>2012-10-26T16:15:53Z</time>
      </trkpt>
      <trkpt lat="46.39175" lon="-0.35274">
        <ele>106</ele>
        <time>2012-10-26T16:15:58Z</time>
      </trkpt>
      <trkpt lat="46.39173" lon="-0.35279">
        <ele>102</ele>
        <time>2012-10-26T16:16:03Z</time>
      </trkpt>
      <trkpt lat="46.39169" lon="-0.35287">
        <ele>103</ele>
        <time>2012-10-26T16:16:08Z</time>
      </trkpt>
      <trkpt lat="46.39166" lon="-0.35292">
        <ele>102</ele>
        <time>2012-10-26T16:16:13Z</time>
      </trkpt>
      <trkpt lat="46.39163" lon="-0.35298">
        <ele>102</ele>
        <time>2012-10-26T16:16:18Z</time>
      </trkpt>
      <trkpt lat="46.39161" lon="-0.35305">
        <ele>102</ele>
        <time>2012-10-26T16:16:23Z</time>
      </trkpt>
      <trkpt lat="46.39157" lon="-0.35312">
        <ele>102</ele>
        <time>2012-10-26T16:16:28Z</time>
      </trkpt>
      <trkpt lat="46.39153" lon="-0.35319">
        <ele>104</ele>
        <time>2012-10-26T16:16:33Z</time>
      </trkpt>
      <trkpt lat="46.39149" lon="-0.35325">
        <ele>105</ele>
        <time>2012-10-26T16:16:38Z</time>
      </trkpt>
      <trkpt lat="46.39145" lon="-0.35332">
        <ele>105</ele>
        <time>2012-10-26T16:16:43Z</time>
      </trkpt>
      <trkpt lat="46.39142" lon="-0.35338">
        <ele>105</ele>
        <time>2012-10-26T16:16:48Z</time>
      </trkpt>
      <trkpt lat="46.39139" lon="-0.35345">
        <ele>105</ele>
        <time>2012-10-26T16:16:53Z</time>
      </trkpt>
      <trkpt lat="46.39136" lon="-0.35353">
        <ele>105</ele>
        <time>2012-10-26T16:16:58Z</time>
      </trkpt>
      <trkpt lat="46.39133" lon="-0.35359">
        <ele>105</ele>
        <time>2012-10-26T16:17:03Z</time>
      </trkpt>
      <trkpt lat="46.39129" lon="-0.35367">
        <ele>105</ele>
        <time>2012-10-26T16:17:08Z</time>
      </trkpt>
      <trkpt lat="46.39127" lon="-0.35373">
        <ele>103</ele>
        <time>2012-10-26T16:17:13Z</time>
      </trkpt>
      <trkpt lat="46.39125" lon="-0.35379">
        <ele>102</ele>
        <time>2012-10-26T16:17:18Z</time>
      </trkpt>
      <trkpt lat="46.39121" lon="-0.35386">
        <ele>102</ele>
        <time>2012-10-26T16:17:23Z</time>
      </trkpt>
      <trkpt lat="46.39118" lon="-0.35392">
        <ele>102</ele>
        <time>2012-10-26T16:17:28Z</time>
      </trkpt>
      <trkpt lat="46.39113" lon="-0.35399">
        <ele>103</ele>
        <time>2012-10-26T16:17:33Z</time>
      </trkpt>
      <trkpt lat="46.3911" lon="-0.35404">
        <ele>102</ele>
        <time>2012-10-26T16:17:38Z</time>
      </trkpt>
      <trkpt lat="46.39107" lon="-0.35407">
        <ele>102</ele>
        <time>2012-10-26T16:17:43Z</time>
      </trkpt>
      <trkpt lat="46.39104" lon="-0.35412">
        <ele>102</ele>
        <time>2012-10-26T16:17:48Z</time>
      </trkpt>
      <trkpt lat="46.391" lon="-0.35417">
        <ele>103</ele>
        <time>2012-10-26T16:17:53Z</time>
      </trkpt>
      <trkpt lat="46.39096" lon="-0.35422">
        <ele>101</ele>
        <time>2012-10-26T16:17:58Z</time>
      </trkpt>
      <trkpt lat="46.39092" lon="-0.35427">
        <ele>102</ele>
        <time>2012-10-26T16:18:03Z</time>
      </trkpt>
      <trkpt lat="46.39088" lon="-0.35433">
        <ele>102</ele>
        <time>2012-10-26T16:18:08Z</time>
      </trkpt>
      <trkpt lat="46.39083" lon="-0.35438">
        <ele>103</ele>
        <time>2012-10-26T16:18:13Z</time>
      </trkpt>
      <trkpt lat="46.39079" lon="-0.35443">
        <ele>103</ele>
        <time>2012-10-26T16:18:18Z</time>
      </trkpt>
      <trkpt lat="46.39076" lon="-0.35448">
        <ele>102</ele>
        <time>2012-10-26T16:18:23Z</time>
      </trkpt>
      <trkpt lat="46.39074" lon="-0.35453">
        <ele>102</ele>
        <time>2012-10-26T16:18:28Z</time>
      </trkpt>
      <trkpt lat="46.39071" lon="-0.35456">
        <ele>101</ele>
        <time>2012-10-26T16:18:33Z</time>
      </trkpt>
      <trkpt lat="46.39067" lon="-0.3546">
        <ele>101</ele>
        <time>2012-10-26T16:18:38Z</time>
      </trkpt>
      <trkpt lat="46.39063" lon="-0.35466">
        <ele>101</ele>
        <time>2012-10-26T16:18:43Z</time>
      </trkpt>
      <trkpt lat="46.39059" lon="-0.35472">
        <ele>101</ele>
        <time>2012-10-26T16:18:48Z</time>
      </trkpt>
      <trkpt lat="46.39055" lon="-0.35479">
        <ele>101</ele>
        <time>2012-10-26T16:18:53Z</time>
      </trkpt>
      <trkpt lat="46.39052" lon="-0.35483">
        <ele>100</ele>
        <time>2012-10-26T16:18:58Z</time>
      </trkpt>
      <trkpt lat="46.39047" lon="-0.35489">
        <ele>99</ele>
        <time>2012-10-26T16:19:03Z</time>
      </trkpt>
      <trkpt lat="46.39044" lon="-0.35494">
        <ele>100</ele>
        <time>2012-10-26T16:19:08Z</time>
      </trkpt>
      <trkpt lat="46.39039" lon="-0.355">
        <ele>100</ele>
        <time>2012-10-26T16:19:13Z</time>
      </trkpt>
      <trkpt lat="46.39036" lon="-0.35504">
        <ele>101</ele>
        <time>2012-10-26T16:19:18Z</time>
      </trkpt>
      <trkpt lat="46.39032" lon="-0.35509">
        <ele>101</ele>
        <time>2012-10-26T16:19:23Z</time>
      </trkpt>
      <trkpt lat="46.39029" lon="-0.35515">
        <ele>100</ele>
        <time>2012-10-26T16:19:28Z</time>
      </trkpt>
      <trkpt lat="46.39025" lon="-0.35519">
        <ele>97</ele>
        <time>2012-10-26T16:19:33Z</time>
      </trkpt>
      <trkpt lat="46.39021" lon="-0.35525">
        <ele>99</ele>
        <time>2012-10-26T16:19:38Z</time>
      </trkpt>
      <trkpt lat="46.39017" lon="-0.35532">
        <ele>99</ele>
        <time>2012-10-26T16:19:43Z</time>
      </trkpt>
      <trkpt lat="46.39014" lon="-0.35535">
        <ele>100</ele>
        <time>2012-10-26T16:19:48Z</time>
      </trkpt>
      <trkpt lat="46.39014" lon="-0.35536">
        <ele>101</ele>
        <time>2012-10-26T16:19:53Z</time>
      </trkpt>
      <trkpt lat="46.39013" lon="-0.35536">
        <ele>102</ele>
        <time>2012-10-26T16:20:03Z</time>
      </trkpt>
      <trkpt lat="46.39013" lon="-0.35537">
        <ele>102</ele>
        <time>2012-10-26T16:20:13Z</time>
      </trkpt>
      <trkpt lat="46.39012" lon="-0.35537">
        <ele>103</ele>
        <time>2012-10-26T16:20:18Z</time>
      </trkpt>
      <trkpt lat="46.39012" lon="-0.35538">
        <ele>103</ele>
        <time>2012-10-26T16:20:23Z</time>
      </trkpt>
      <trkpt lat="46.39012" lon="-0.35538">
        <ele>103</ele>
        <time>2012-10-26T16:20:28Z</time>
      </trkpt>
      <trkpt lat="46.3901" lon="-0.3554">
        <ele>103</ele>
        <time>2012-10-26T16:20:33Z</time>
      </trkpt>
      <trkpt lat="46.39005" lon="-0.35545">
        <ele>103</ele>
        <time>2012-10-26T16:20:38Z</time>
      </trkpt>
      <trkpt lat="46.39002" lon="-0.35551">
        <ele>103</ele>
        <time>2012-10-26T16:20:43Z</time>
      </trkpt>
      <trkpt lat="46.38999" lon="-0.35557">
        <ele>103</ele>
        <time>2012-10-26T16:20:48Z</time>
      </trkpt>
      <trkpt lat="46.38994" lon="-0.35563">
        <ele>102</ele>
        <time>2012-10-26T16:20:53Z</time>
      </trkpt>
      <trkpt lat="46.3899" lon="-0.35568">
        <ele>103</ele>
        <time>2012-10-26T16:20:58Z</time>
      </trkpt>
      <trkpt lat="46.38986" lon="-0.35574">
        <ele>102</ele>
        <time>2012-10-26T16:21:03Z</time>
      </trkpt>
      <trkpt lat="46.38982" lon="-0.35581">
        <ele>102</ele>
        <time>2012-10-26T16:21:08Z</time>
      </trkpt>
      <trkpt lat="46.38977" lon="-0.35588">
        <ele>101</ele>
        <time>2012-10-26T16:21:13Z</time>
      </trkpt>
      <trkpt lat="46.38973" lon="-0.35593">
        <ele>101</ele>
        <time>2012-10-26T16:21:18Z</time>
      </trkpt>
      <trkpt lat="46.38969" lon="-0.35599">
        <ele>101</ele>
        <time>2012-10-26T16:21:23Z</time>
      </trkpt>
      <trkpt lat="46.38964" lon="-0.35605">
        <ele>102</ele>
        <time>2012-10-26T16:21:28Z</time>
      </trkpt>
      <trkpt lat="46.3896" lon="-0.35612">
        <ele>101</ele>
        <time>2012-10-26T16:21:33Z</time>
      </trkpt>
      <trkpt lat="46.38955" lon="-0.35618">
        <ele>101</ele>
        <time>2012-10-26T16:21:38Z</time>
      </trkpt>
      <trkpt lat="46.38951" lon="-0.35624">
        <ele>101</ele>
        <time>2012-10-26T16:21:43Z</time>
      </trkpt>
      <trkpt lat="46.38946" lon="-0.35632">
        <ele>103</ele>
        <time>2012-10-26T16:21:48Z</time>
      </trkpt>
      <trkpt lat="46.38941" lon="-0.35636">
        <ele>105</ele>
        <time>2012-10-26T16:21:53Z</time>
      </trkpt>
      <trkpt lat="46.38937" lon="-0.35643">
        <ele>105</ele>
        <time>2012-10-26T16:21:58Z</time>
      </trkpt>
      <trkpt lat="46.38934" lon="-0.35649">
        <ele>104</ele>
        <time>2012-10-26T16:22:03Z</time>
      </trkpt>
      <trkpt lat="46.38929" lon="-0.35655">
        <ele>103</ele>
        <time>2012-10-26T16:22:08Z</time>
      </trkpt>
      <trkpt lat="46.38924" lon="-0.35661">
        <ele>102</ele>
        <time>2012-10-26T16:22:13Z</time>
      </trkpt>
      <trkpt lat="46.38916" lon="-0.35665">
        <ele>102</ele>
        <time>2012-10-26T16:22:18Z</time>
      </trkpt>
      <trkpt lat="46.38915" lon="-0.35672">
        <ele>101</ele>
        <time>2012-10-26T16:22:23Z</time>
      </trkpt>
      <trkpt lat="46.38911" lon="-0.35677">
        <ele>101</ele>
        <time>2012-10-26T16:22:28Z</time>
      </trkpt>
      <trkpt lat="46.38906" lon="-0.35682">
        <ele>103</ele>
        <time>2012-10-26T16:22:33Z</time>
      </trkpt>
      <trkpt lat="46.38903" lon="-0.35687">
        <ele>103</ele>
        <time>2012-10-26T16:22:38Z</time>
      </trkpt>
      <trkpt lat="46.38899" lon="-0.35692">
        <ele>103</ele>
        <time>2012-10-26T16:22:43Z</time>
      </trkpt>
      <trkpt lat="46.38896" lon="-0.35698">
        <ele>102</ele>
        <time>2012-10-26T16:22:48Z</time>
      </trkpt>
      <trkpt lat="46.38894" lon="-0.357">
        <ele>102</ele>
        <time>2012-10-26T16:22:53Z</time>
      </trkpt>
      <trkpt lat="46.38891" lon="-0.35706">
        <ele>102</ele>
        <time>2012-10-26T16:22:58Z</time>
      </trkpt>
      <trkpt lat="46.38887" lon="-0.35711">
        <ele>103</ele>
        <time>2012-10-26T16:23:03Z</time>
      </trkpt>
      <trkpt lat="46.38882" lon="-0.35718">
        <ele>103</ele>
        <time>2012-10-26T16:23:08Z</time>
      </trkpt>
      <trkpt lat="46.38877" lon="-0.35724">
        <ele>102</ele>
        <time>2012-10-26T16:23:13Z</time>
      </trkpt>
      <trkpt lat="46.38873" lon="-0.35729">
        <ele>102</ele>
        <time>2012-10-26T16:23:18Z</time>
      </trkpt>
      <trkpt lat="46.38869" lon="-0.35735">
        <ele>102</ele>
        <time>2012-10-26T16:23:23Z</time>
      </trkpt>
      <trkpt lat="46.38865" lon="-0.3574">
        <ele>102</ele>
        <time>2012-10-26T16:23:28Z</time>
      </trkpt>
      <trkpt lat="46.38861" lon="-0.35746">
        <ele>102</ele>
        <time>2012-10-26T16:23:33Z</time>
      </trkpt>
      <trkpt lat="46.38857" lon="-0.35751">
        <ele>101</ele>
        <time>2012-10-26T16:23:38Z</time>
      </trkpt>
      <trkpt lat="46.38853" lon="-0.35758">
        <ele>102</ele>
        <time>2012-10-26T16:23:43Z</time>
      </trkpt>
      <trkpt lat="46.38849" lon="-0.35765">
        <ele>101</ele>
        <time>2012-10-26T16:23:48Z</time>
      </trkpt>
      <trkpt lat="46.38846" lon="-0.3577">
        <ele>100</ele>
        <time>2012-10-26T16:23:53Z</time>
      </trkpt>
      <trkpt lat="46.38841" lon="-0.35778">
        <ele>101</ele>
        <time>2012-10-26T16:23:58Z</time>
      </trkpt>
      <trkpt lat="46.38836" lon="-0.35787">
        <ele>101</ele>
        <time>2012-10-26T16:24:03Z</time>
      </trkpt>
      <trkpt lat="46.38832" lon="-0.35791">
        <ele>102</ele>
        <time>2012-10-26T16:24:08Z</time>
      </trkpt>
      <trkpt lat="46.38827" lon="-0.35797">
        <ele>102</ele>
        <time>2012-10-26T16:24:13Z</time>
      </trkpt>
      <trkpt lat="46.38825" lon="-0.35801">
        <ele>102</ele>
        <time>2012-10-26T16:24:18Z</time>
      </trkpt>
      <trkpt lat="46.38819" lon="-0.3581">
        <ele>103</ele>
        <time>2012-10-26T16:24:23Z</time>
      </trkpt>
      <trkpt lat="46.38815" lon="-0.35818">
        <ele>104</ele>
        <time>2012-10-26T16:24:28Z</time>
      </trkpt>
      <trkpt lat="46.3881" lon="-0.35824">
        <ele>104</ele>
        <time>2012-10-26T16:24:33Z</time>
      </trkpt>
      <trkpt lat="46.38804" lon="-0.3583">
        <ele>106</ele>
        <time>2012-10-26T16:24:38Z</time>
      </trkpt>
      <trkpt lat="46.38802" lon="-0.35839">
        <ele>107</ele>
        <time>2012-10-26T16:24:43Z</time>
      </trkpt>
      <trkpt lat="46.38799" lon="-0.35844">
        <ele>107</ele>
        <time>2012-10-26T16:24:48Z</time>
      </trkpt>
      <trkpt lat="46.38794" lon="-0.35849">
        <ele>107</ele>
        <time>2012-10-26T16:24:53Z</time>
      </trkpt>
      <trkpt lat="46.38791" lon="-0.35852">
        <ele>107</ele>
        <time>2012-10-26T16:24:58Z</time>
      </trkpt>
      <trkpt lat="46.38787" lon="-0.35856">
        <ele>107</ele>
        <time>2012-10-26T16:25:03Z</time>
      </trkpt>
      <trkpt lat="46.38783" lon="-0.35863">
        <ele>107</ele>
        <time>2012-10-26T16:25:08Z</time>
      </trkpt>
      <trkpt lat="46.3878" lon="-0.35869">
        <ele>105</ele>
        <time>2012-10-26T16:25:13Z</time>
      </trkpt>
      <trkpt lat="46.38776" lon="-0.35873">
        <ele>103</ele>
        <time>2012-10-26T16:25:18Z</time>
      </trkpt>
      <trkpt lat="46.38773" lon="-0.35877">
        <ele>101</ele>
        <time>2012-10-26T16:25:23Z</time>
      </trkpt>
      <trkpt lat="46.38768" lon="-0.35882">
        <ele>100</ele>
        <time>2012-10-26T16:25:28Z</time>
      </trkpt>
      <trkpt lat="46.38764" lon="-0.35887">
        <ele>99</ele>
        <time>2012-10-26T16:25:33Z</time>
      </trkpt>
      <trkpt lat="46.38759" lon="-0.35894">
        <ele>99</ele>
        <time>2012-10-26T16:25:38Z</time>
      </trkpt>
      <trkpt lat="46.38755" lon="-0.359">
        <ele>98</ele>
        <time>2012-10-26T16:25:43Z</time>
      </trkpt>
      <trkpt lat="46.38753" lon="-0.35904">
        <ele>95</ele>
        <time>2012-10-26T16:25:48Z</time>
      </trkpt>
      <trkpt lat="46.38751" lon="-0.35911">
        <ele>94</ele>
        <time>2012-10-26T16:25:53Z</time>
      </trkpt>
      <trkpt lat="46.38747" lon="-0.35921">
        <ele>95</ele>
        <time>2012-10-26T16:25:58Z</time>
      </trkpt>
      <trkpt lat="46.38748" lon="-0.35934">
        <ele>97</ele>
        <time>2012-10-26T16:26:03Z</time>
      </trkpt>
      <trkpt lat="46.38751" lon="-0.35941">
        <ele>98</ele>
        <time>2012-10-26T16:26:08Z</time>
      </trkpt>
      <trkpt lat="46.38752" lon="-0.35949">
        <ele>100</ele>
        <time>2012-10-26T16:26:13Z</time>
      </trkpt>
      <trkpt lat="46.38754" lon="-0.35956">
        <ele>100</ele>
        <time>2012-10-26T16:26:18Z</time>
      </trkpt>
      <trkpt lat="46.38757" lon="-0.35962">
        <ele>101</ele>
        <time>2012-10-26T16:26:23Z</time>
      </trkpt>
      <trkpt lat="46.3876" lon="-0.35968">
        <ele>100</ele>
        <time>2012-10-26T16:26:28Z</time>
      </trkpt>
      <trkpt lat="46.38761" lon="-0.35978">
        <ele>100</ele>
        <time>2012-10-26T16:26:33Z</time>
      </trkpt>
      <trkpt lat="46.38762" lon="-0.35988">
        <ele>100</ele>
        <time>2012-10-26T16:26:38Z</time>
      </trkpt>
      <trkpt lat="46.38764" lon="-0.35996">
        <ele>100</ele>
        <time>2012-10-26T16:26:43Z</time>
      </trkpt>
      <trkpt lat="46.38765" lon="-0.36005">
        <ele>100</ele>
        <time>2012-10-26T16:26:48Z</time>
      </trkpt>
      <trkpt lat="46.38766" lon="-0.36013">
        <ele>100</ele>
        <time>2012-10-26T16:26:53Z</time>
      </trkpt>
      <trkpt lat="46.38767" lon="-0.3602">
        <ele>99</ele>
        <time>2012-10-26T16:26:58Z</time>
      </trkpt>
      <trkpt lat="46.3877" lon="-0.36028">
        <ele>97</ele>
        <time>2012-10-26T16:27:03Z</time>
      </trkpt>
      <trkpt lat="46.38772" lon="-0.36035">
        <ele>98</ele>
        <time>2012-10-26T16:27:08Z</time>
      </trkpt>
      <trkpt lat="46.38773" lon="-0.36043">
        <ele>96</ele>
        <time>2012-10-26T16:27:13Z</time>
      </trkpt>
      <trkpt lat="46.38774" lon="-0.3605">
        <ele>95</ele>
        <time>2012-10-26T16:27:18Z</time>
      </trkpt>
      <trkpt lat="46.38775" lon="-0.36058">
        <ele>95</ele>
        <time>2012-10-26T16:27:23Z</time>
      </trkpt>
      <trkpt lat="46.38776" lon="-0.36066">
        <ele>94</ele>
        <time>2012-10-26T16:27:28Z</time>
      </trkpt>
      <trkpt lat="46.38774" lon="-0.36073">
        <ele>91</ele>
        <time>2012-10-26T16:27:33Z</time>
      </trkpt>
      <trkpt lat="46.38775" lon="-0.36083">
        <ele>90</ele>
        <time>2012-10-26T16:27:38Z</time>
      </trkpt>
      <trkpt lat="46.38775" lon="-0.36091">
        <ele>91</ele>
        <time>2012-10-26T16:27:43Z</time>
      </trkpt>
      <trkpt lat="46.38774" lon="-0.36098">
        <ele>91</ele>
        <time>2012-10-26T16:27:48Z</time>
      </trkpt>
      <trkpt lat="46.38773" lon="-0.36106">
        <ele>90</ele>
        <time>2012-10-26T16:27:53Z</time>
      </trkpt>
      <trkpt lat="46.38771" lon="-0.36112">
        <ele>90</ele>
        <time>2012-10-26T16:27:58Z</time>
      </trkpt>
      <trkpt lat="46.38767" lon="-0.3612">
        <ele>89</ele>
        <time>2012-10-26T16:28:03Z</time>
      </trkpt>
      <trkpt lat="46.38764" lon="-0.36126">
        <ele>88</ele>
        <time>2012-10-26T16:28:08Z</time>
      </trkpt>
      <trkpt lat="46.3876" lon="-0.3613">
        <ele>87</ele>
        <time>2012-10-26T16:28:13Z</time>
      </trkpt>
      <trkpt lat="46.38758" lon="-0.36137">
        <ele>86</ele>
        <time>2012-10-26T16:28:18Z</time>
      </trkpt>
      <trkpt lat="46.38755" lon="-0.36143">
        <ele>83</ele>
        <time>2012-10-26T16:28:23Z</time>
      </trkpt>
      <trkpt lat="46.38753" lon="-0.36148">
        <ele>80</ele>
        <time>2012-10-26T16:28:28Z</time>
      </trkpt>
      <trkpt lat="46.38748" lon="-0.36155">
        <ele>79</ele>
        <time>2012-10-26T16:28:33Z</time>
      </trkpt>
      <trkpt lat="46.38744" lon="-0.3616">
        <ele>79</ele>
        <time>2012-10-26T16:28:38Z</time>
      </trkpt>
      <trkpt lat="46.38742" lon="-0.36162">
        <ele>79</ele>
        <time>2012-10-26T16:28:43Z</time>
      </trkpt>
      <trkpt lat="46.38735" lon="-0.36165">
        <ele>79</ele>
        <time>2012-10-26T16:28:48Z</time>
      </trkpt>
      <trkpt lat="46.3873" lon="-0.36169">
        <ele>78</ele>
        <time>2012-10-26T16:28:53Z</time>
      </trkpt>
      <trkpt lat="46.38724" lon="-0.36171">
        <ele>78</ele>
        <time>2012-10-26T16:28:58Z</time>
      </trkpt>
      <trkpt lat="46.38717" lon="-0.36174">
        <ele>77</ele>
        <time>2012-10-26T16:29:03Z</time>
      </trkpt>
      <trkpt lat="46.38711" lon="-0.36175">
        <ele>78</ele>
        <time>2012-10-26T16:29:08Z</time>
      </trkpt>
      <trkpt lat="46.38705" lon="-0.36177">
        <ele>80</ele>
        <time>2012-10-26T16:29:13Z</time>
      </trkpt>
      <trkpt lat="46.38699" lon="-0.3618">
        <ele>78</ele>
        <time>2012-10-26T16:29:18Z</time>
      </trkpt>
      <trkpt lat="46.38695" lon="-0.36184">
        <ele>79</ele>
        <time>2012-10-26T16:29:23Z</time>
      </trkpt>
      <trkpt lat="46.3869" lon="-0.36186">
        <ele>80</ele>
        <time>2012-10-26T16:29:28Z</time>
      </trkpt>
      <trkpt lat="46.38685" lon="-0.36189">
        <ele>80</ele>
        <time>2012-10-26T16:29:33Z</time>
      </trkpt>
      <trkpt lat="46.3868" lon="-0.36192">
        <ele>80</ele>
        <time>2012-10-26T16:29:38Z</time>
      </trkpt>
      <trkpt lat="46.38675" lon="-0.36195">
        <ele>81</ele>
        <time>2012-10-26T16:29:43Z</time>
      </trkpt>
      <trkpt lat="46.38669" lon="-0.36199">
        <ele>81</ele>
        <time>2012-10-26T16:29:48Z</time>
      </trkpt>
      <trkpt lat="46.38663" lon="-0.362">
        <ele>83</ele>
        <time>2012-10-26T16:29:53Z</time>
      </trkpt>
      <trkpt lat="46.38657" lon="-0.36203">
        <ele>84</ele>
        <time>2012-10-26T16:29:58Z</time>
      </trkpt>
      <trkpt lat="46.38651" lon="-0.36207">
        <ele>84</ele>
        <time>2012-10-26T16:30:03Z</time>
      </trkpt>
      <trkpt lat="46.38647" lon="-0.36211">
        <ele>82</ele>
        <time>2012-10-26T16:30:08Z</time>
      </trkpt>
      <trkpt lat="46.38642" lon="-0.36216">
        <ele>83</ele>
        <time>2012-10-26T16:30:13Z</time>
      </trkpt>
      <trkpt lat="46.38637" lon="-0.3622">
        <ele>82</ele>
        <time>2012-10-26T16:30:18Z</time>
      </trkpt>
      <trkpt lat="46.38636" lon="-0.36223">
        <ele>83</ele>
        <time>2012-10-26T16:30:23Z</time>
      </trkpt>
      <trkpt lat="46.38632" lon="-0.36227">
        <ele>80</ele>
        <time>2012-10-26T16:30:28Z</time>
      </trkpt>
      <trkpt lat="46.38627" lon="-0.36232">
        <ele>80</ele>
        <time>2012-10-26T16:30:33Z</time>
      </trkpt>
      <trkpt lat="46.38622" lon="-0.36237">
        <ele>80</ele>
        <time>2012-10-26T16:30:38Z</time>
      </trkpt>
      <trkpt lat="46.38616" lon="-0.36243">
        <ele>81</ele>
        <time>2012-10-26T16:30:43Z</time>
      </trkpt>
      <trkpt lat="46.38611" lon="-0.36245">
        <ele>80</ele>
        <time>2012-10-26T16:30:48Z</time>
      </trkpt>
      <trkpt lat="46.38606" lon="-0.36251">
        <ele>82</ele>
        <time>2012-10-26T16:30:53Z</time>
      </trkpt>
      <trkpt lat="46.38603" lon="-0.36255">
        <ele>82</ele>
        <time>2012-10-26T16:30:58Z</time>
      </trkpt>
      <trkpt lat="46.38599" lon="-0.36261">
        <ele>82</ele>
        <time>2012-10-26T16:31:03Z</time>
      </trkpt>
      <trkpt lat="46.38593" lon="-0.36268">
        <ele>82</ele>
        <time>2012-10-26T16:31:08Z</time>
      </trkpt>
      <trkpt lat="46.3859" lon="-0.36274">
        <ele>81</ele>
        <time>2012-10-26T16:31:13Z</time>
      </trkpt>
      <trkpt lat="46.38588" lon="-0.36279">
        <ele>81</ele>
        <time>2012-10-26T16:31:18Z</time>
      </trkpt>
      <trkpt lat="46.38582" lon="-0.36288">
        <ele>82</ele>
        <time>2012-10-26T16:31:23Z</time>
      </trkpt>
      <trkpt lat="46.38577" lon="-0.36293">
        <ele>83</ele>
        <time>2012-10-26T16:31:28Z</time>
      </trkpt>
      <trkpt lat="46.38574" lon="-0.36302">
        <ele>84</ele>
        <time>2012-10-26T16:31:33Z</time>
      </trkpt>
      <trkpt lat="46.38571" lon="-0.36309">
        <ele>82</ele>
        <time>2012-10-26T16:31:38Z</time>
      </trkpt>
      <trkpt lat="46.38568" lon="-0.36313">
        <ele>79</ele>
        <time>2012-10-26T16:31:43Z</time>
      </trkpt>
      <trkpt lat="46.38564" lon="-0.36317">
        <ele>77</ele>
        <time>2012-10-26T16:31:48Z</time>
      </trkpt>
      <trkpt lat="46.38559" lon="-0.36325">
        <ele>78</ele>
        <time>2012-10-26T16:31:53Z</time>
      </trkpt>
      <trkpt lat="46.38555" lon="-0.36332">
        <ele>74</ele>
        <time>2012-10-26T16:31:58Z</time>
      </trkpt>
      <trkpt lat="46.38552" lon="-0.36336">
        <ele>75</ele>
        <time>2012-10-26T16:32:03Z</time>
      </trkpt>
      <trkpt lat="46.38546" lon="-0.36341">
        <ele>77</ele>
        <time>2012-10-26T16:32:08Z</time>
      </trkpt>
      <trkpt lat="46.38543" lon="-0.36347">
        <ele>77</ele>
        <time>2012-10-26T16:32:13Z</time>
      </trkpt>
      <trkpt lat="46.38542" lon="-0.36352">
        <ele>79</ele>
        <time>2012-10-26T16:32:18Z</time>
      </trkpt>
      <trkpt lat="46.38541" lon="-0.36353">
        <ele>78</ele>
        <time>2012-10-26T16:32:23Z</time>
      </trkpt>
      <trkpt lat="46.38541" lon="-0.36352">
        <ele>77</ele>
        <time>2012-10-26T16:32:28Z</time>
      </trkpt>
      <trkpt lat="46.38541" lon="-0.36351">
        <ele>77</ele>
        <time>2012-10-26T16:32:33Z</time>
      </trkpt>
      <trkpt lat="46.38541" lon="-0.36354">
        <ele>78</ele>
        <time>2012-10-26T16:32:38Z</time>
      </trkpt>
      <trkpt lat="46.38541" lon="-0.36354">
        <ele>79</ele>
        <time>2012-10-26T16:32:43Z</time>
      </trkpt>
      <trkpt lat="46.38539" lon="-0.36354">
        <ele>80</ele>
        <time>2012-10-26T16:32:48Z</time>
      </trkpt>
      <trkpt lat="46.38536" lon="-0.36346">
        <ele>81</ele>
        <time>2012-10-26T16:32:53Z</time>
      </trkpt>
      <trkpt lat="46.38533" lon="-0.36339">
        <ele>82</ele>
        <time>2012-10-26T16:32:58Z</time>
      </trkpt>
      <trkpt lat="46.38531" lon="-0.36335">
        <ele>83</ele>
        <time>2012-10-26T16:33:03Z</time>
      </trkpt>
      <trkpt lat="46.3853" lon="-0.36334">
        <ele>83</ele>
        <time>2012-10-26T16:33:08Z</time>
      </trkpt>
      <trkpt lat="46.3853" lon="-0.36336">
        <ele>83</ele>
        <time>2012-10-26T16:33:13Z</time>
      </trkpt>
      <trkpt lat="46.38531" lon="-0.36334">
        <ele>83</ele>
        <time>2012-10-26T16:33:18Z</time>
      </trkpt>
      <trkpt lat="46.38529" lon="-0.36326">
        <ele>83</ele>
        <time>2012-10-26T16:33:23Z</time>
      </trkpt>
      <trkpt lat="46.38528" lon="-0.36327">
        <ele>83</ele>
        <time>2012-10-26T16:33:28Z</time>
      </trkpt>
      <trkpt lat="46.38528" lon="-0.36326">
        <ele>83</ele>
        <time>2012-10-26T16:33:33Z</time>
      </trkpt>
      <trkpt lat="46.38528" lon="-0.36325">
        <ele>82</ele>
        <time>2012-10-26T16:33:38Z</time>
      </trkpt>
      <trkpt lat="46.38526" lon="-0.36322">
        <ele>82</ele>
        <time>2012-10-26T16:33:48Z</time>
      </trkpt>
      <trkpt lat="46.38525" lon="-0.36321">
        <ele>84</ele>
        <time>2012-10-26T16:33:53Z</time>
      </trkpt>
      <trkpt lat="46.38524" lon="-0.3632">
        <ele>84</ele>
        <time>2012-10-26T16:33:58Z</time>
      </trkpt>
      <trkpt lat="46.38524" lon="-0.36319">
        <ele>84</ele>
        <time>2012-10-26T16:34:03Z</time>
      </trkpt>
      <trkpt lat="46.38522" lon="-0.36318">
        <ele>83</ele>
        <time>2012-10-26T16:34:13Z</time>
      </trkpt>
      <trkpt lat="46.38523" lon="-0.36316">
        <ele>83</ele>
        <time>2012-10-26T16:34:18Z</time>
      </trkpt>
      <trkpt lat="46.38523" lon="-0.36316">
        <ele>83</ele>
        <time>2012-10-26T16:34:23Z</time>
      </trkpt>
      <trkpt lat="46.38522" lon="-0.36314">
        <ele>84</ele>
        <time>2012-10-26T16:34:28Z</time>
      </trkpt>
      <trkpt lat="46.38521" lon="-0.36309">
        <ele>83</ele>
        <time>2012-10-26T16:34:38Z</time>
      </trkpt>
      <trkpt lat="46.38519" lon="-0.36304">
        <ele>83</ele>
        <time>2012-10-26T16:34:43Z</time>
      </trkpt>
      <trkpt lat="46.38517" lon="-0.363">
        <ele>82</ele>
        <time>2012-10-26T16:34:48Z</time>
      </trkpt>
      <trkpt lat="46.38512" lon="-0.36291">
        <ele>81</ele>
        <time>2012-10-26T16:34:53Z</time>
      </trkpt>
      <trkpt lat="46.3851" lon="-0.36286">
        <ele>78</ele>
        <time>2012-10-26T16:34:58Z</time>
      </trkpt>
      <trkpt lat="46.38507" lon="-0.36277">
        <ele>76</ele>
        <time>2012-10-26T16:35:03Z</time>
      </trkpt>
      <trkpt lat="46.38503" lon="-0.36268">
        <ele>77</ele>
        <time>2012-10-26T16:35:08Z</time>
      </trkpt>
      <trkpt lat="46.385" lon="-0.36262">
        <ele>77</ele>
        <time>2012-10-26T16:35:13Z</time>
      </trkpt>
      <trkpt lat="46.38497" lon="-0.36256">
        <ele>75</ele>
        <time>2012-10-26T16:35:18Z</time>
      </trkpt>
      <trkpt lat="46.38493" lon="-0.36249">
        <ele>76</ele>
        <time>2012-10-26T16:35:23Z</time>
      </trkpt>
      <trkpt lat="46.3849" lon="-0.36241">
        <ele>76</ele>
        <time>2012-10-26T16:35:28Z</time>
      </trkpt>
      <trkpt lat="46.38485" lon="-0.36232">
        <ele>76</ele>
        <time>2012-10-26T16:35:33Z</time>
      </trkpt>
      <trkpt lat="46.38481" lon="-0.36226">
        <ele>76</ele>
        <time>2012-10-26T16:35:38Z</time>
      </trkpt>
      <trkpt lat="46.38477" lon="-0.36219">
        <ele>77</ele>
        <time>2012-10-26T16:35:43Z</time>
      </trkpt>
      <trkpt lat="46.38473" lon="-0.36213">
        <ele>77</ele>
        <time>2012-10-26T16:35:48Z</time>
      </trkpt>
      <trkpt lat="46.3847" lon="-0.36209">
        <ele>75</ele>
        <time>2012-10-26T16:35:53Z</time>
      </trkpt>
      <trkpt lat="46.38466" lon="-0.36205">
        <ele>77</ele>
        <time>2012-10-26T16:35:58Z</time>
      </trkpt>
      <trkpt lat="46.38462" lon="-0.362">
        <ele>76</ele>
        <time>2012-10-26T16:36:03Z</time>
      </trkpt>
      <trkpt lat="46.38457" lon="-0.36197">
        <ele>76</ele>
        <time>2012-10-26T16:36:08Z</time>
      </trkpt>
      <trkpt lat="46.38452" lon="-0.36188">
        <ele>78</ele>
        <time>2012-10-26T16:36:13Z</time>
      </trkpt>
      <trkpt lat="46.38449" lon="-0.36185">
        <ele>77</ele>
        <time>2012-10-26T16:36:18Z</time>
      </trkpt>
      <trkpt lat="46.38445" lon="-0.3618">
        <ele>77</ele>
        <time>2012-10-26T16:36:23Z</time>
      </trkpt>
      <trkpt lat="46.38442" lon="-0.36172">
        <ele>78</ele>
        <time>2012-10-26T16:36:28Z</time>
      </trkpt>
      <trkpt lat="46.38438" lon="-0.36166">
        <ele>80</ele>
        <time>2012-10-26T16:36:33Z</time>
      </trkpt>
      <trkpt lat="46.38437" lon="-0.36165">
        <ele>81</ele>
        <time>2012-10-26T16:36:38Z</time>
      </trkpt>
      <trkpt lat="46.38437" lon="-0.36164">
        <ele>82</ele>
        <time>2012-10-26T16:36:43Z</time>
      </trkpt>
      <trkpt lat="46.38437" lon="-0.36164">
        <ele>82</ele>
        <time>2012-10-26T16:36:48Z</time>
      </trkpt>
      <trkpt lat="46.38437" lon="-0.36165">
        <ele>83</ele>
        <time>2012-10-26T16:36:58Z</time>
      </trkpt>
      <trkpt lat="46.38438" lon="-0.36164">
        <ele>84</ele>
        <time>2012-10-26T16:37:08Z</time>
      </trkpt>
      <trkpt lat="46.38438" lon="-0.36164">
        <ele>84</ele>
        <time>2012-10-26T16:37:13Z</time>
      </trkpt>
      <trkpt lat="46.38439" lon="-0.36158">
        <ele>87</ele>
        <time>2012-10-26T16:37:23Z</time>
      </trkpt>
      <trkpt lat="46.38441" lon="-0.3615">
        <ele>87</ele>
        <time>2012-10-26T16:37:28Z</time>
      </trkpt>
      <trkpt lat="46.38442" lon="-0.36143">
        <ele>88</ele>
        <time>2012-10-26T16:37:33Z</time>
      </trkpt>
      <trkpt lat="46.38445" lon="-0.36139">
        <ele>88</ele>
        <time>2012-10-26T16:37:38Z</time>
      </trkpt>
      <trkpt lat="46.38449" lon="-0.36128">
        <ele>88</ele>
        <time>2012-10-26T16:37:43Z</time>
      </trkpt>
      <trkpt lat="46.38447" lon="-0.36122">
        <ele>88</ele>
        <time>2012-10-26T16:37:48Z</time>
      </trkpt>
      <trkpt lat="46.38445" lon="-0.36113">
        <ele>88</ele>
        <time>2012-10-26T16:37:53Z</time>
      </trkpt>
      <trkpt lat="46.38445" lon="-0.36113">
        <ele>88</ele>
        <time>2012-10-26T16:37:58Z</time>
      </trkpt>
      <trkpt lat="46.3844" lon="-0.3611">
        <ele>86</ele>
        <time>2012-10-26T16:38:03Z</time>
      </trkpt>
      <trkpt lat="46.38437" lon="-0.36107">
        <ele>86</ele>
        <time>2012-10-26T16:38:08Z</time>
      </trkpt>
      <trkpt lat="46.38431" lon="-0.36101">
        <ele>88</ele>
        <time>2012-10-26T16:38:13Z</time>
      </trkpt>
      <trkpt lat="46.38427" lon="-0.36099">
        <ele>87</ele>
        <time>2012-10-26T16:38:18Z</time>
      </trkpt>
      <trkpt lat="46.3842" lon="-0.36095">
        <ele>92</ele>
        <time>2012-10-26T16:38:23Z</time>
      </trkpt>
      <trkpt lat="46.38413" lon="-0.36095">
        <ele>92</ele>
        <time>2012-10-26T16:38:28Z</time>
      </trkpt>
      <trkpt lat="46.38408" lon="-0.36093">
        <ele>91</ele>
        <time>2012-10-26T16:38:33Z</time>
      </trkpt>
      <trkpt lat="46.38404" lon="-0.36094">
        <ele>91</ele>
        <time>2012-10-26T16:38:38Z</time>
      </trkpt>
      <trkpt lat="46.38399" lon="-0.36093">
        <ele>91</ele>
        <time>2012-10-26T16:38:43Z</time>
      </trkpt>
      <trkpt lat="46.38394" lon="-0.36093">
        <ele>92</ele>
        <time>2012-10-26T16:38:48Z</time>
      </trkpt>
      <trkpt lat="46.38389" lon="-0.3609">
        <ele>93</ele>
        <time>2012-10-26T16:38:53Z</time>
      </trkpt>
      <trkpt lat="46.38383" lon="-0.36088">
        <ele>93</ele>
        <time>2012-10-26T16:38:58Z</time>
      </trkpt>
      <trkpt lat="46.38378" lon="-0.36084">
        <ele>96</ele>
        <time>2012-10-26T16:39:03Z</time>
      </trkpt>
      <trkpt lat="46.38373" lon="-0.36081">
        <ele>95</ele>
        <time>2012-10-26T16:39:08Z</time>
      </trkpt>
      <trkpt lat="46.38369" lon="-0.36078">
        <ele>95</ele>
        <time>2012-10-26T16:39:13Z</time>
      </trkpt>
      <trkpt lat="46.38366" lon="-0.36073">
        <ele>95</ele>
        <time>2012-10-26T16:39:18Z</time>
      </trkpt>
      <trkpt lat="46.38361" lon="-0.36068">
        <ele>94</ele>
        <time>2012-10-26T16:39:23Z</time>
      </trkpt>
      <trkpt lat="46.38356" lon="-0.36063">
        <ele>95</ele>
        <time>2012-10-26T16:39:28Z</time>
      </trkpt>
      <trkpt lat="46.38352" lon="-0.36059">
        <ele>96</ele>
        <time>2012-10-26T16:39:33Z</time>
      </trkpt>
      <trkpt lat="46.38348" lon="-0.36054">
        <ele>97</ele>
        <time>2012-10-26T16:39:38Z</time>
      </trkpt>
      <trkpt lat="46.38344" lon="-0.36049">
        <ele>96</ele>
        <time>2012-10-26T16:39:43Z</time>
      </trkpt>
      <trkpt lat="46.3834" lon="-0.36044">
        <ele>97</ele>
        <time>2012-10-26T16:39:48Z</time>
      </trkpt>
      <trkpt lat="46.38336" lon="-0.36039">
        <ele>98</ele>
        <time>2012-10-26T16:39:53Z</time>
      </trkpt>
      <trkpt lat="46.38332" lon="-0.36035">
        <ele>96</ele>
        <time>2012-10-26T16:39:58Z</time>
      </trkpt>
      <trkpt lat="46.38328" lon="-0.36028">
        <ele>96</ele>
        <time>2012-10-26T16:40:03Z</time>
      </trkpt>
      <trkpt lat="46.38324" lon="-0.36025">
        <ele>96</ele>
        <time>2012-10-26T16:40:08Z</time>
      </trkpt>
      <trkpt lat="46.3832" lon="-0.36018">
        <ele>97</ele>
        <time>2012-10-26T16:40:13Z</time>
      </trkpt>
      <trkpt lat="46.38315" lon="-0.36012">
        <ele>99</ele>
        <time>2012-10-26T16:40:18Z</time>
      </trkpt>
      <trkpt lat="46.38312" lon="-0.36008">
        <ele>99</ele>
        <time>2012-10-26T16:40:23Z</time>
      </trkpt>
      <trkpt lat="46.38308" lon="-0.36003">
        <ele>100</ele>
        <time>2012-10-26T16:40:28Z</time>
      </trkpt>
      <trkpt lat="46.38304" lon="-0.35997">
        <ele>101</ele>
        <time>2012-10-26T16:40:33Z</time>
      </trkpt>
      <trkpt lat="46.383" lon="-0.35992">
        <ele>101</ele>
        <time>2012-10-26T16:40:38Z</time>
      </trkpt>
      <trkpt lat="46.38297" lon="-0.35987">
        <ele>101</ele>
        <time>2012-10-26T16:40:43Z</time>
      </trkpt>
      <trkpt lat="46.38293" lon="-0.35981">
        <ele>101</ele>
        <time>2012-10-26T16:40:48Z</time>
      </trkpt>
      <trkpt lat="46.3829" lon="-0.35976">
        <ele>100</ele>
        <time>2012-10-26T16:40:53Z</time>
      </trkpt>
      <trkpt lat="46.38287" lon="-0.35971">
        <ele>99</ele>
        <time>2012-10-26T16:40:58Z</time>
      </trkpt>
      <trkpt lat="46.38283" lon="-0.35965">
        <ele>100</ele>
        <time>2012-10-26T16:41:03Z</time>
      </trkpt>
      <trkpt lat="46.38278" lon="-0.35961">
        <ele>100</ele>
        <time>2012-10-26T16:41:08Z</time>
      </trkpt>
      <trkpt lat="46.38274" lon="-0.35956">
        <ele>101</ele>
        <time>2012-10-26T16:41:13Z</time>
      </trkpt>
      <trkpt lat="46.3827" lon="-0.35947">
        <ele>102</ele>
        <time>2012-10-26T16:41:18Z</time>
      </trkpt>
      <trkpt lat="46.38267" lon="-0.35938">
        <ele>104</ele>
        <time>2012-10-26T16:41:23Z</time>
      </trkpt>
      <trkpt lat="46.38264" lon="-0.35934">
        <ele>105</ele>
        <time>2012-10-26T16:41:28Z</time>
      </trkpt>
      <trkpt lat="46.3826" lon="-0.35927">
        <ele>106</ele>
        <time>2012-10-26T16:41:33Z</time>
      </trkpt>
      <trkpt lat="46.38257" lon="-0.35922">
        <ele>105</ele>
        <time>2012-10-26T16:41:38Z</time>
      </trkpt>
      <trkpt lat="46.38254" lon="-0.35915">
        <ele>106</ele>
        <time>2012-10-26T16:41:43Z</time>
      </trkpt>
      <trkpt lat="46.38251" lon="-0.35908">
        <ele>105</ele>
        <time>2012-10-26T16:41:48Z</time>
      </trkpt>
      <trkpt lat="46.38248" lon="-0.35902">
        <ele>104</ele>
        <time>2012-10-26T16:41:53Z</time>
      </trkpt>
      <trkpt lat="46.38245" lon="-0.35895">
        <ele>104</ele>
        <time>2012-10-26T16:41:58Z</time>
      </trkpt>
      <trkpt lat="46.38242" lon="-0.35889">
        <ele>103</ele>
        <time>2012-10-26T16:42:03Z</time>
      </trkpt>
      <trkpt lat="46.3824" lon="-0.35883">
        <ele>103</ele>
        <time>2012-10-26T16:42:08Z</time>
      </trkpt>
      <trkpt lat="46.38237" lon="-0.35876">
        <ele>103</ele>
        <time>2012-10-26T16:42:13Z</time>
      </trkpt>
      <trkpt lat="46.38234" lon="-0.3587">
        <ele>104</ele>
        <time>2012-10-26T16:42:18Z</time>
      </trkpt>
      <trkpt lat="46.38232" lon="-0.35863">
        <ele>105</ele>
        <time>2012-10-26T16:42:23Z</time>
      </trkpt>
      <trkpt lat="46.3823" lon="-0.35855">
        <ele>104</ele>
        <time>2012-10-26T16:42:28Z</time>
      </trkpt>
      <trkpt lat="46.38227" lon="-0.35846">
        <ele>103</ele>
        <time>2012-10-26T16:42:33Z</time>
      </trkpt>
      <trkpt lat="46.38224" lon="-0.35837">
        <ele>104</ele>
        <time>2012-10-26T16:42:38Z</time>
      </trkpt>
      <trkpt lat="46.38221" lon="-0.35828">
        <ele>104</ele>
        <time>2012-10-26T16:42:43Z</time>
      </trkpt>
      <trkpt lat="46.38218" lon="-0.35819">
        <ele>103</ele>
        <time>2012-10-26T16:42:48Z</time>
      </trkpt>
      <trkpt lat="46.38215" lon="-0.35812">
        <ele>105</ele>
        <time>2012-10-26T16:42:53Z</time>
      </trkpt>
      <trkpt lat="46.38213" lon="-0.35804">
        <ele>104</ele>
        <time>2012-10-26T16:42:58Z</time>
      </trkpt>
      <trkpt lat="46.38211" lon="-0.35796">
        <ele>103</ele>
        <time>2012-10-26T16:43:03Z</time>
      </trkpt>
      <trkpt lat="46.38208" lon="-0.35787">
        <ele>103</ele>
        <time>2012-10-26T16:43:08Z</time>
      </trkpt>
      <trkpt lat="46.38206" lon="-0.35779">
        <ele>104</ele>
        <time>2012-10-26T16:43:13Z</time>
      </trkpt>
      <trkpt lat="46.38204" lon="-0.35772">
        <ele>103</ele>
        <time>2012-10-26T16:43:18Z</time>
      </trkpt>
      <trkpt lat="46.38201" lon="-0.35763">
        <ele>103</ele>
        <time>2012-10-26T16:43:23Z</time>
      </trkpt>
      <trkpt lat="46.38198" lon="-0.35758">
        <ele>102</ele>
        <time>2012-10-26T16:43:28Z</time>
      </trkpt>
      <trkpt lat="46.38196" lon="-0.35751">
        <ele>103</ele>
        <time>2012-10-26T16:43:33Z</time>
      </trkpt>
      <trkpt lat="46.38195" lon="-0.35742">
        <ele>104</ele>
        <time>2012-10-26T16:43:38Z</time>
      </trkpt>
      <trkpt lat="46.38194" lon="-0.35734">
        <ele>104</ele>
        <time>2012-10-26T16:43:43Z</time>
      </trkpt>
      <trkpt lat="46.38193" lon="-0.35724">
        <ele>105</ele>
        <time>2012-10-26T16:43:48Z</time>
      </trkpt>
      <trkpt lat="46.38192" lon="-0.35713">
        <ele>107</ele>
        <time>2012-10-26T16:43:53Z</time>
      </trkpt>
      <trkpt lat="46.38193" lon="-0.35707">
        <ele>106</ele>
        <time>2012-10-26T16:43:58Z</time>
      </trkpt>
      <trkpt lat="46.38195" lon="-0.357">
        <ele>106</ele>
        <time>2012-10-26T16:44:03Z</time>
      </trkpt>
      <trkpt lat="46.38195" lon="-0.35693">
        <ele>106</ele>
        <time>2012-10-26T16:44:08Z</time>
      </trkpt>
      <trkpt lat="46.38195" lon="-0.35685">
        <ele>106</ele>
        <time>2012-10-26T16:44:13Z</time>
      </trkpt>
      <trkpt lat="46.38196" lon="-0.35677">
        <ele>107</ele>
        <time>2012-10-26T16:44:18Z</time>
      </trkpt>
      <trkpt lat="46.38196" lon="-0.35667">
        <ele>107</ele>
        <time>2012-10-26T16:44:23Z</time>
      </trkpt>
      <trkpt lat="46.38196" lon="-0.35659">
        <ele>107</ele>
        <time>2012-10-26T16:44:28Z</time>
      </trkpt>
      <trkpt lat="46.38196" lon="-0.3565">
        <ele>107</ele>
        <time>2012-10-26T16:44:33Z</time>
      </trkpt>
      <trkpt lat="46.38197" lon="-0.35642">
        <ele>106</ele>
        <time>2012-10-26T16:44:38Z</time>
      </trkpt>
      <trkpt lat="46.38195" lon="-0.35633">
        <ele>106</ele>
        <time>2012-10-26T16:44:43Z</time>
      </trkpt>
      <trkpt lat="46.38195" lon="-0.35625">
        <ele>104</ele>
        <time>2012-10-26T16:44:48Z</time>
      </trkpt>
      <trkpt lat="46.38197" lon="-0.35617">
        <ele>104</ele>
        <time>2012-10-26T16:44:53Z</time>
      </trkpt>
      <trkpt lat="46.38196" lon="-0.35607">
        <ele>107</ele>
        <time>2012-10-26T16:44:58Z</time>
      </trkpt>
      <trkpt lat="46.38196" lon="-0.356">
        <ele>107</ele>
        <time>2012-10-26T16:45:03Z</time>
      </trkpt>
      <trkpt lat="46.38196" lon="-0.3559">
        <ele>107</ele>
        <time>2012-10-26T16:45:08Z</time>
      </trkpt>
      <trkpt lat="46.38198" lon="-0.35582">
        <ele>107</ele>
        <time>2012-10-26T16:45:13Z</time>
      </trkpt>
      <trkpt lat="46.38199" lon="-0.3557">
        <ele>107</ele>
        <time>2012-10-26T16:45:18Z</time>
      </trkpt>
      <trkpt lat="46.382" lon="-0.35561">
        <ele>107</ele>
        <time>2012-10-26T16:45:23Z</time>
      </trkpt>
      <trkpt lat="46.38201" lon="-0.35553">
        <ele>107</ele>
        <time>2012-10-26T16:45:28Z</time>
      </trkpt>
      <trkpt lat="46.38202" lon="-0.35545">
        <ele>106</ele>
        <time>2012-10-26T16:45:33Z</time>
      </trkpt>
      <trkpt lat="46.38204" lon="-0.35538">
        <ele>108</ele>
        <time>2012-10-26T16:45:38Z</time>
      </trkpt>
      <trkpt lat="46.38205" lon="-0.3553">
        <ele>107</ele>
        <time>2012-10-26T16:45:43Z</time>
      </trkpt>
      <trkpt lat="46.38207" lon="-0.35521">
        <ele>106</ele>
        <time>2012-10-26T16:45:48Z</time>
      </trkpt>
      <trkpt lat="46.38208" lon="-0.35512">
        <ele>107</ele>
        <time>2012-10-26T16:45:53Z</time>
      </trkpt>
      <trkpt lat="46.38208" lon="-0.35502">
        <ele>108</ele>
        <time>2012-10-26T16:45:58Z</time>
      </trkpt>
      <trkpt lat="46.38209" lon="-0.35494">
        <ele>108</ele>
        <time>2012-10-26T16:46:03Z</time>
      </trkpt>
      <trkpt lat="46.3821" lon="-0.35483">
        <ele>111</ele>
        <time>2012-10-26T16:46:08Z</time>
      </trkpt>
      <trkpt lat="46.3821" lon="-0.35477">
        <ele>108</ele>
        <time>2012-10-26T16:46:13Z</time>
      </trkpt>
      <trkpt lat="46.38212" lon="-0.35469">
        <ele>108</ele>
        <time>2012-10-26T16:46:18Z</time>
      </trkpt>
      <trkpt lat="46.38213" lon="-0.35464">
        <ele>108</ele>
        <time>2012-10-26T16:46:23Z</time>
      </trkpt>
      <trkpt lat="46.38214" lon="-0.35456">
        <ele>108</ele>
        <time>2012-10-26T16:46:28Z</time>
      </trkpt>
      <trkpt lat="46.38214" lon="-0.35446">
        <ele>107</ele>
        <time>2012-10-26T16:46:33Z</time>
      </trkpt>
      <trkpt lat="46.38214" lon="-0.35439">
        <ele>107</ele>
        <time>2012-10-26T16:46:38Z</time>
      </trkpt>
      <trkpt lat="46.38214" lon="-0.3543">
        <ele>107</ele>
        <time>2012-10-26T16:46:43Z</time>
      </trkpt>
      <trkpt lat="46.38213" lon="-0.35419">
        <ele>107</ele>
        <time>2012-10-26T16:46:48Z</time>
      </trkpt>
      <trkpt lat="46.38213" lon="-0.35409">
        <ele>107</ele>
        <time>2012-10-26T16:46:53Z</time>
      </trkpt>
      <trkpt lat="46.38215" lon="-0.35406">
        <ele>104</ele>
        <time>2012-10-26T16:46:58Z</time>
      </trkpt>
      <trkpt lat="46.38217" lon="-0.35396">
        <ele>103</ele>
        <time>2012-10-26T16:47:03Z</time>
      </trkpt>
      <trkpt lat="46.38216" lon="-0.35388">
        <ele>102</ele>
        <time>2012-10-26T16:47:08Z</time>
      </trkpt>
      <trkpt lat="46.38216" lon="-0.3538">
        <ele>103</ele>
        <time>2012-10-26T16:47:13Z</time>
      </trkpt>
      <trkpt lat="46.38217" lon="-0.35373">
        <ele>103</ele>
        <time>2012-10-26T16:47:18Z</time>
      </trkpt>
      <trkpt lat="46.38217" lon="-0.35363">
        <ele>105</ele>
        <time>2012-10-26T16:47:23Z</time>
      </trkpt>
      <trkpt lat="46.38218" lon="-0.35354">
        <ele>107</ele>
        <time>2012-10-26T16:47:28Z</time>
      </trkpt>
      <trkpt lat="46.3822" lon="-0.35347">
        <ele>107</ele>
        <time>2012-10-26T16:47:33Z</time>
      </trkpt>
      <trkpt lat="46.3822" lon="-0.35339">
        <ele>105</ele>
        <time>2012-10-26T16:47:38Z</time>
      </trkpt>
      <trkpt lat="46.38223" lon="-0.35331">
        <ele>107</ele>
        <time>2012-10-26T16:47:43Z</time>
      </trkpt>
      <trkpt lat="46.38222" lon="-0.35323">
        <ele>106</ele>
        <time>2012-10-26T16:47:48Z</time>
      </trkpt>
      <trkpt lat="46.38223" lon="-0.35317">
        <ele>106</ele>
        <time>2012-10-26T16:47:53Z</time>
      </trkpt>
      <trkpt lat="46.38223" lon="-0.35307">
        <ele>107</ele>
        <time>2012-10-26T16:47:58Z</time>
      </trkpt>
      <trkpt lat="46.38223" lon="-0.35299">
        <ele>107</ele>
        <time>2012-10-26T16:48:03Z</time>
      </trkpt>
      <trkpt lat="46.38223" lon="-0.35292">
        <ele>106</ele>
        <time>2012-10-26T16:48:08Z</time>
      </trkpt>
      <trkpt lat="46.38223" lon="-0.35284">
        <ele>106</ele>
        <time>2012-10-26T16:48:13Z</time>
      </trkpt>
      <trkpt lat="46.38222" lon="-0.35273">
        <ele>106</ele>
        <time>2012-10-26T16:48:18Z</time>
      </trkpt>
      <trkpt lat="46.3822" lon="-0.35264">
        <ele>106</ele>
        <time>2012-10-26T16:48:23Z</time>
      </trkpt>
      <trkpt lat="46.38217" lon="-0.3525">
        <ele>106</ele>
        <time>2012-10-26T16:48:28Z</time>
      </trkpt>
      <trkpt lat="46.38216" lon="-0.35243">
        <ele>107</ele>
        <time>2012-10-26T16:48:33Z</time>
      </trkpt>
      <trkpt lat="46.38216" lon="-0.35238">
        <ele>106</ele>
        <time>2012-10-26T16:48:38Z</time>
      </trkpt>
      <trkpt lat="46.38215" lon="-0.3523">
        <ele>106</ele>
        <time>2012-10-26T16:48:43Z</time>
      </trkpt>
      <trkpt lat="46.38213" lon="-0.35223">
        <ele>105</ele>
        <time>2012-10-26T16:48:48Z</time>
      </trkpt>
      <trkpt lat="46.38212" lon="-0.35213">
        <ele>106</ele>
        <time>2012-10-26T16:48:53Z</time>
      </trkpt>
      <trkpt lat="46.38211" lon="-0.35206">
        <ele>106</ele>
        <time>2012-10-26T16:48:58Z</time>
      </trkpt>
      <trkpt lat="46.38209" lon="-0.35193">
        <ele>106</ele>
        <time>2012-10-26T16:49:03Z</time>
      </trkpt>
      <trkpt lat="46.38208" lon="-0.3519">
        <ele>105</ele>
        <time>2012-10-26T16:49:08Z</time>
      </trkpt>
      <trkpt lat="46.38205" lon="-0.35178">
        <ele>105</ele>
        <time>2012-10-26T16:49:13Z</time>
      </trkpt>
      <trkpt lat="46.38205" lon="-0.35169">
        <ele>110</ele>
        <time>2012-10-26T16:49:18Z</time>
      </trkpt>
      <trkpt lat="46.38203" lon="-0.3516">
        <ele>111</ele>
        <time>2012-10-26T16:49:23Z</time>
      </trkpt>
      <trkpt lat="46.38203" lon="-0.35157">
        <ele>111</ele>
        <time>2012-10-26T16:49:28Z</time>
      </trkpt>
      <trkpt lat="46.38201" lon="-0.35149">
        <ele>110</ele>
        <time>2012-10-26T16:49:33Z</time>
      </trkpt>
      <trkpt lat="46.382" lon="-0.35144">
        <ele>109</ele>
        <time>2012-10-26T16:49:38Z</time>
      </trkpt>
      <trkpt lat="46.38199" lon="-0.35136">
        <ele>108</ele>
        <time>2012-10-26T16:49:43Z</time>
      </trkpt>
      <trkpt lat="46.38198" lon="-0.35129">
        <ele>106</ele>
        <time>2012-10-26T16:49:48Z</time>
      </trkpt>
      <trkpt lat="46.38195" lon="-0.35122">
        <ele>107</ele>
        <time>2012-10-26T16:49:53Z</time>
      </trkpt>
      <trkpt lat="46.38195" lon="-0.35118">
        <ele>107</ele>
        <time>2012-10-26T16:49:58Z</time>
      </trkpt>
      <trkpt lat="46.38193" lon="-0.35106">
        <ele>107</ele>
        <time>2012-10-26T16:50:03Z</time>
      </trkpt>
      <trkpt lat="46.38186" lon="-0.35102">
        <ele>105</ele>
        <time>2012-10-26T16:50:08Z</time>
      </trkpt>
      <trkpt lat="46.38185" lon="-0.35101">
        <ele>106</ele>
        <time>2012-10-26T16:50:13Z</time>
      </trkpt>
      <trkpt lat="46.38182" lon="-0.35105">
        <ele>108</ele>
        <time>2012-10-26T16:50:18Z</time>
      </trkpt>
      <trkpt lat="46.38178" lon="-0.35107">
        <ele>109</ele>
        <time>2012-10-26T16:50:23Z</time>
      </trkpt>
      <trkpt lat="46.38173" lon="-0.3511">
        <ele>111</ele>
        <time>2012-10-26T16:50:28Z</time>
      </trkpt>
      <trkpt lat="46.38168" lon="-0.35112">
        <ele>111</ele>
        <time>2012-10-26T16:50:33Z</time>
      </trkpt>
      <trkpt lat="46.38165" lon="-0.35114">
        <ele>111</ele>
        <time>2012-10-26T16:50:38Z</time>
      </trkpt>
      <trkpt lat="46.38161" lon="-0.35115">
        <ele>110</ele>
        <time>2012-10-26T16:50:43Z</time>
      </trkpt>
      <trkpt lat="46.38154" lon="-0.35118">
        <ele>109</ele>
        <time>2012-10-26T16:50:48Z</time>
      </trkpt>
      <trkpt lat="46.38148" lon="-0.35121">
        <ele>108</ele>
        <time>2012-10-26T16:50:53Z</time>
      </trkpt>
      <trkpt lat="46.38141" lon="-0.35125">
        <ele>108</ele>
        <time>2012-10-26T16:50:58Z</time>
      </trkpt>
      <trkpt lat="46.38136" lon="-0.35127">
        <ele>108</ele>
        <time>2012-10-26T16:51:03Z</time>
      </trkpt>
      <trkpt lat="46.38131" lon="-0.35129">
        <ele>107</ele>
        <time>2012-10-26T16:51:08Z</time>
      </trkpt>
      <trkpt lat="46.38127" lon="-0.35129">
        <ele>107</ele>
        <time>2012-10-26T16:51:13Z</time>
      </trkpt>
      <trkpt lat="46.3812" lon="-0.35133">
        <ele>107</ele>
        <time>2012-10-26T16:51:18Z</time>
      </trkpt>
      <trkpt lat="46.38113" lon="-0.35135">
        <ele>106</ele>
        <time>2012-10-26T16:51:23Z</time>
      </trkpt>
      <trkpt lat="46.38105" lon="-0.35135">
        <ele>104</ele>
        <time>2012-10-26T16:51:28Z</time>
      </trkpt>
      <trkpt lat="46.38101" lon="-0.35136">
        <ele>103</ele>
        <time>2012-10-26T16:51:33Z</time>
      </trkpt>
      <trkpt lat="46.38094" lon="-0.35137">
        <ele>104</ele>
        <time>2012-10-26T16:51:38Z</time>
      </trkpt>
      <trkpt lat="46.38088" lon="-0.35138">
        <ele>103</ele>
        <time>2012-10-26T16:51:43Z</time>
      </trkpt>
      <trkpt lat="46.38083" lon="-0.3514">
        <ele>102</ele>
        <time>2012-10-26T16:51:48Z</time>
      </trkpt>
      <trkpt lat="46.38076" lon="-0.35142">
        <ele>101</ele>
        <time>2012-10-26T16:51:53Z</time>
      </trkpt>
      <trkpt lat="46.38071" lon="-0.35142">
        <ele>100</ele>
        <time>2012-10-26T16:51:58Z</time>
      </trkpt>
      <trkpt lat="46.38064" lon="-0.35143">
        <ele>99</ele>
        <time>2012-10-26T16:52:03Z</time>
      </trkpt>
      <trkpt lat="46.3806" lon="-0.35142">
        <ele>98</ele>
        <time>2012-10-26T16:52:08Z</time>
      </trkpt>
      <trkpt lat="46.38058" lon="-0.35144">
        <ele>97</ele>
        <time>2012-10-26T16:52:13Z</time>
      </trkpt>
      <trkpt lat="46.38053" lon="-0.35148">
        <ele>96</ele>
        <time>2012-10-26T16:52:18Z</time>
      </trkpt>
      <trkpt lat="46.38046" lon="-0.35149">
        <ele>97</ele>
        <time>2012-10-26T16:52:23Z</time>
      </trkpt>
      <trkpt lat="46.3804" lon="-0.35151">
        <ele>94</ele>
        <time>2012-10-26T16:52:28Z</time>
      </trkpt>
      <trkpt lat="46.38034" lon="-0.35155">
        <ele>93</ele>
        <time>2012-10-26T16:52:33Z</time>
      </trkpt>
      <trkpt lat="46.38032" lon="-0.35155">
        <ele>94</ele>
        <time>2012-10-26T16:52:38Z</time>
      </trkpt>
      <trkpt lat="46.38025" lon="-0.35159">
        <ele>92</ele>
        <time>2012-10-26T16:52:43Z</time>
      </trkpt>
      <trkpt lat="46.3802" lon="-0.35162">
        <ele>90</ele>
        <time>2012-10-26T16:52:48Z</time>
      </trkpt>
      <trkpt lat="46.38017" lon="-0.35164">
        <ele>89</ele>
        <time>2012-10-26T16:52:53Z</time>
      </trkpt>
      <trkpt lat="46.38013" lon="-0.35165">
        <ele>86</ele>
        <time>2012-10-26T16:52:58Z</time>
      </trkpt>
      <trkpt lat="46.38007" lon="-0.35168">
        <ele>86</ele>
        <time>2012-10-26T16:53:03Z</time>
      </trkpt>
      <trkpt lat="46.38003" lon="-0.3517">
        <ele>85</ele>
        <time>2012-10-26T16:53:08Z</time>
      </trkpt>
      <trkpt lat="46.37998" lon="-0.35172">
        <ele>81</ele>
        <time>2012-10-26T16:53:13Z</time>
      </trkpt>
      <trkpt lat="46.37994" lon="-0.35173">
        <ele>80</ele>
        <time>2012-10-26T16:53:18Z</time>
      </trkpt>
      <trkpt lat="46.37983" lon="-0.35173">
        <ele>82</ele>
        <time>2012-10-26T16:53:23Z</time>
      </trkpt>
      <trkpt lat="46.37977" lon="-0.35173">
        <ele>82</ele>
        <time>2012-10-26T16:53:28Z</time>
      </trkpt>
      <trkpt lat="46.3797" lon="-0.35176">
        <ele>84</ele>
        <time>2012-10-26T16:53:33Z</time>
      </trkpt>
      <trkpt lat="46.37964" lon="-0.35175">
        <ele>83</ele>
        <time>2012-10-26T16:53:38Z</time>
      </trkpt>
      <trkpt lat="46.37957" lon="-0.35173">
        <ele>84</ele>
        <time>2012-10-26T16:53:43Z</time>
      </trkpt>
      <trkpt lat="46.37954" lon="-0.35177">
        <ele>82</ele>
        <time>2012-10-26T16:53:48Z</time>
      </trkpt>
      <trkpt lat="46.37947" lon="-0.35181">
        <ele>81</ele>
        <time>2012-10-26T16:53:53Z</time>
      </trkpt>
      <trkpt lat="46.37941" lon="-0.35183">
        <ele>79</ele>
        <time>2012-10-26T16:53:58Z</time>
      </trkpt>
      <trkpt lat="46.37936" lon="-0.35184">
        <ele>79</ele>
        <time>2012-10-26T16:54:03Z</time>
      </trkpt>
      <trkpt lat="46.3793" lon="-0.35186">
        <ele>80</ele>
        <time>2012-10-26T16:54:08Z</time>
      </trkpt>
      <trkpt lat="46.37924" lon="-0.35187">
        <ele>79</ele>
        <time>2012-10-26T16:54:13Z</time>
      </trkpt>
      <trkpt lat="46.37919" lon="-0.35188">
        <ele>81</ele>
        <time>2012-10-26T16:54:18Z</time>
      </trkpt>
      <trkpt lat="46.37913" lon="-0.35191">
        <ele>81</ele>
        <time>2012-10-26T16:54:23Z</time>
      </trkpt>
      <trkpt lat="46.37908" lon="-0.35194">
        <ele>81</ele>
        <time>2012-10-26T16:54:28Z</time>
      </trkpt>
      <trkpt lat="46.37907" lon="-0.35195">
        <ele>80</ele>
        <time>2012-10-26T16:54:33Z</time>
      </trkpt>
      <trkpt lat="46.37903" lon="-0.35198">
        <ele>80</ele>
        <time>2012-10-26T16:54:38Z</time>
      </trkpt>
      <trkpt lat="46.37896" lon="-0.352">
        <ele>81</ele>
        <time>2012-10-26T16:54:43Z</time>
      </trkpt>
      <trkpt lat="46.3789" lon="-0.35202">
        <ele>81</ele>
        <time>2012-10-26T16:54:48Z</time>
      </trkpt>
      <trkpt lat="46.37884" lon="-0.35205">
        <ele>81</ele>
        <time>2012-10-26T16:54:53Z</time>
      </trkpt>
      <trkpt lat="46.37879" lon="-0.35207">
        <ele>81</ele>
        <time>2012-10-26T16:54:58Z</time>
      </trkpt>
      <trkpt lat="46.37874" lon="-0.3521">
        <ele>80</ele>
        <time>2012-10-26T16:55:03Z</time>
      </trkpt>
      <trkpt lat="46.37868" lon="-0.35212">
        <ele>80</ele>
        <time>2012-10-26T16:55:08Z</time>
      </trkpt>
      <trkpt lat="46.37862" lon="-0.35215">
        <ele>80</ele>
        <time>2012-10-26T16:55:13Z</time>
      </trkpt>
      <trkpt lat="46.37856" lon="-0.35216">
        <ele>80</ele>
        <time>2012-10-26T16:55:18Z</time>
      </trkpt>
      <trkpt lat="46.37849" lon="-0.3522">
        <ele>80</ele>
        <time>2012-10-26T16:55:23Z</time>
      </trkpt>
      <trkpt lat="46.37842" lon="-0.35221">
        <ele>80</ele>
        <time>2012-10-26T16:55:28Z</time>
      </trkpt>
      <trkpt lat="46.37836" lon="-0.35223">
        <ele>81</ele>
        <time>2012-10-26T16:55:33Z</time>
      </trkpt>
      <trkpt lat="46.37831" lon="-0.35224">
        <ele>81</ele>
        <time>2012-10-26T16:55:38Z</time>
      </trkpt>
      <trkpt lat="46.37826" lon="-0.35229">
        <ele>80</ele>
        <time>2012-10-26T16:55:43Z</time>
      </trkpt>
      <trkpt lat="46.37821" lon="-0.35231">
        <ele>80</ele>
        <time>2012-10-26T16:55:48Z</time>
      </trkpt>
      <trkpt lat="46.37815" lon="-0.35233">
        <ele>81</ele>
        <time>2012-10-26T16:55:53Z</time>
      </trkpt>
      <trkpt lat="46.37811" lon="-0.35234">
        <ele>81</ele>
        <time>2012-10-26T16:55:58Z</time>
      </trkpt>
      <trkpt lat="46.37804" lon="-0.35237">
        <ele>81</ele>
        <time>2012-10-26T16:56:03Z</time>
      </trkpt>
      <trkpt lat="46.37798" lon="-0.35239">
        <ele>80</ele>
        <time>2012-10-26T16:56:08Z</time>
      </trkpt>
      <trkpt lat="46.37789" lon="-0.35243">
        <ele>79</ele>
        <time>2012-10-26T16:56:13Z</time>
      </trkpt>
      <trkpt lat="46.37783" lon="-0.35246">
        <ele>81</ele>
        <time>2012-10-26T16:56:18Z</time>
      </trkpt>
      <trkpt lat="46.37779" lon="-0.35247">
        <ele>81</ele>
        <time>2012-10-26T16:56:23Z</time>
      </trkpt>
      <trkpt lat="46.37772" lon="-0.35252">
        <ele>80</ele>
        <time>2012-10-26T16:56:28Z</time>
      </trkpt>
      <trkpt lat="46.37768" lon="-0.35251">
        <ele>80</ele>
        <time>2012-10-26T16:56:33Z</time>
      </trkpt>
      <trkpt lat="46.37766" lon="-0.35256">
        <ele>78</ele>
        <time>2012-10-26T16:56:38Z</time>
      </trkpt>
      <trkpt lat="46.37762" lon="-0.35259">
        <ele>78</ele>
        <time>2012-10-26T16:56:43Z</time>
      </trkpt>
      <trkpt lat="46.37756" lon="-0.3526">
        <ele>77</ele>
        <time>2012-10-26T16:56:48Z</time>
      </trkpt>
      <trkpt lat="46.3775" lon="-0.35265">
        <ele>76</ele>
        <time>2012-10-26T16:56:53Z</time>
      </trkpt>
      <trkpt lat="46.37744" lon="-0.35264">
        <ele>76</ele>
        <time>2012-10-26T16:56:58Z</time>
      </trkpt>
      <trkpt lat="46.3774" lon="-0.35262">
        <ele>77</ele>
        <time>2012-10-26T16:57:03Z</time>
      </trkpt>
      <trkpt lat="46.37739" lon="-0.35261">
        <ele>78</ele>
        <time>2012-10-26T16:57:08Z</time>
      </trkpt>
      <trkpt lat="46.37738" lon="-0.35261">
        <ele>78</ele>
        <time>2012-10-26T16:57:13Z</time>
      </trkpt>
      <trkpt lat="46.37737" lon="-0.35258">
        <ele>80</ele>
        <time>2012-10-26T16:57:38Z</time>
      </trkpt>
      <trkpt lat="46.37737" lon="-0.35257">
        <ele>80</ele>
        <time>2012-10-26T16:57:43Z</time>
      </trkpt>
      <trkpt lat="46.37735" lon="-0.35249">
        <ele>80</ele>
        <time>2012-10-26T16:57:48Z</time>
      </trkpt>
      <trkpt lat="46.37734" lon="-0.3524">
        <ele>80</ele>
        <time>2012-10-26T16:57:53Z</time>
      </trkpt>
      <trkpt lat="46.37732" lon="-0.35232">
        <ele>80</ele>
        <time>2012-10-26T16:57:58Z</time>
      </trkpt>
      <trkpt lat="46.3773" lon="-0.35223">
        <ele>80</ele>
        <time>2012-10-26T16:58:03Z</time>
      </trkpt>
      <trkpt lat="46.37728" lon="-0.35215">
        <ele>80</ele>
        <time>2012-10-26T16:58:08Z</time>
      </trkpt>
      <trkpt lat="46.37727" lon="-0.35207">
        <ele>79</ele>
        <time>2012-10-26T16:58:13Z</time>
      </trkpt>
      <trkpt lat="46.37726" lon="-0.35199">
        <ele>78</ele>
        <time>2012-10-26T16:58:18Z</time>
      </trkpt>
      <trkpt lat="46.37723" lon="-0.35191">
        <ele>78</ele>
        <time>2012-10-26T16:58:23Z</time>
      </trkpt>
      <trkpt lat="46.37722" lon="-0.35181">
        <ele>78</ele>
        <time>2012-10-26T16:58:28Z</time>
      </trkpt>
      <trkpt lat="46.37721" lon="-0.35172">
        <ele>78</ele>
        <time>2012-10-26T16:58:33Z</time>
      </trkpt>
      <trkpt lat="46.37719" lon="-0.35163">
        <ele>78</ele>
        <time>2012-10-26T16:58:38Z</time>
      </trkpt>
      <trkpt lat="46.37717" lon="-0.35155">
        <ele>79</ele>
        <time>2012-10-26T16:58:43Z</time>
      </trkpt>
      <trkpt lat="46.37715" lon="-0.35147">
        <ele>79</ele>
        <time>2012-10-26T16:58:48Z</time>
      </trkpt>
      <trkpt lat="46.37714" lon="-0.3514">
        <ele>80</ele>
        <time>2012-10-26T16:58:53Z</time>
      </trkpt>
      <trkpt lat="46.37713" lon="-0.35133">
        <ele>80</ele>
        <time>2012-10-26T16:58:58Z</time>
      </trkpt>
      <trkpt lat="46.37712" lon="-0.35124">
        <ele>80</ele>
        <time>2012-10-26T16:59:03Z</time>
      </trkpt>
      <trkpt lat="46.37711" lon="-0.35116">
        <ele>80</ele>
        <time>2012-10-26T16:59:08Z</time>
      </trkpt>
      <trkpt lat="46.37711" lon="-0.35112">
        <ele>80</ele>
        <time>2012-10-26T16:59:13Z</time>
      </trkpt>
      <trkpt lat="46.37708" lon="-0.35101">
        <ele>80</ele>
        <time>2012-10-26T16:59:18Z</time>
      </trkpt>
      <trkpt lat="46.37707" lon="-0.35095">
        <ele>81</ele>
        <time>2012-10-26T16:59:23Z</time>
      </trkpt>
      <trkpt lat="46.37706" lon="-0.35086">
        <ele>81</ele>
        <time>2012-10-26T16:59:28Z</time>
      </trkpt>
      <trkpt lat="46.37705" lon="-0.3508">
        <ele>81</ele>
        <time>2012-10-26T16:59:33Z</time>
      </trkpt>
      <trkpt lat="46.37704" lon="-0.35071">
        <ele>80</ele>
        <time>2012-10-26T16:59:38Z</time>
      </trkpt>
      <trkpt lat="46.37702" lon="-0.35064">
        <ele>80</ele>
        <time>2012-10-26T16:59:43Z</time>
      </trkpt>
      <trkpt lat="46.37699" lon="-0.35055">
        <ele>79</ele>
        <time>2012-10-26T16:59:48Z</time>
      </trkpt>
      <trkpt lat="46.37697" lon="-0.35049">
        <ele>79</ele>
        <time>2012-10-26T16:59:53Z</time>
      </trkpt>
      <trkpt lat="46.37695" lon="-0.35041">
        <ele>80</ele>
        <time>2012-10-26T16:59:58Z</time>
      </trkpt>
      <trkpt lat="46.37693" lon="-0.35029">
        <ele>79</ele>
        <time>2012-10-26T17:00:03Z</time>
      </trkpt>
      <trkpt lat="46.37692" lon="-0.35019">
        <ele>81</ele>
        <time>2012-10-26T17:00:08Z</time>
      </trkpt>
      <trkpt lat="46.37691" lon="-0.35015">
        <ele>81</ele>
        <time>2012-10-26T17:00:13Z</time>
      </trkpt>
      <trkpt lat="46.3769" lon="-0.3501">
        <ele>81</ele>
        <time>2012-10-26T17:00:18Z</time>
      </trkpt>
      <trkpt lat="46.37689" lon="-0.35004">
        <ele>81</ele>
        <time>2012-10-26T17:00:23Z</time>
      </trkpt>
      <trkpt lat="46.37687" lon="-0.34995">
        <ele>83</ele>
        <time>2012-10-26T17:00:28Z</time>
      </trkpt>
      <trkpt lat="46.37686" lon="-0.34989">
        <ele>83</ele>
        <time>2012-10-26T17:00:33Z</time>
      </trkpt>
      <trkpt lat="46.37684" lon="-0.3498">
        <ele>82</ele>
        <time>2012-10-26T17:00:38Z</time>
      </trkpt>
      <trkpt lat="46.37683" lon="-0.34973">
        <ele>82</ele>
        <time>2012-10-26T17:00:43Z</time>
      </trkpt>
      <trkpt lat="46.3768" lon="-0.34965">
        <ele>82</ele>
        <time>2012-10-26T17:00:48Z</time>
      </trkpt>
      <trkpt lat="46.37679" lon="-0.34958">
        <ele>82</ele>
        <time>2012-10-26T17:00:53Z</time>
      </trkpt>
      <trkpt lat="46.37677" lon="-0.34949">
        <ele>82</ele>
        <time>2012-10-26T17:00:58Z</time>
      </trkpt>
      <trkpt lat="46.37677" lon="-0.34945">
        <ele>82</ele>
        <time>2012-10-26T17:01:03Z</time>
      </trkpt>
      <trkpt lat="46.37675" lon="-0.34937">
        <ele>82</ele>
        <time>2012-10-26T17:01:08Z</time>
      </trkpt>
      <trkpt lat="46.37673" lon="-0.3493">
        <ele>82</ele>
        <time>2012-10-26T17:01:13Z</time>
      </trkpt>
      <trkpt lat="46.37671" lon="-0.3492">
        <ele>83</ele>
        <time>2012-10-26T17:01:18Z</time>
      </trkpt>
      <trkpt lat="46.3767" lon="-0.34912">
        <ele>84</ele>
        <time>2012-10-26T17:01:23Z</time>
      </trkpt>
      <trkpt lat="46.3767" lon="-0.34903">
        <ele>84</ele>
        <time>2012-10-26T17:01:28Z</time>
      </trkpt>
      <trkpt lat="46.37669" lon="-0.34898">
        <ele>83</ele>
        <time>2012-10-26T17:01:33Z</time>
      </trkpt>
      <trkpt lat="46.37667" lon="-0.34889">
        <ele>84</ele>
        <time>2012-10-26T17:01:38Z</time>
      </trkpt>
      <trkpt lat="46.37663" lon="-0.34876">
        <ele>84</ele>
        <time>2012-10-26T17:01:43Z</time>
      </trkpt>
      <trkpt lat="46.37663" lon="-0.34872">
        <ele>84</ele>
        <time>2012-10-26T17:01:48Z</time>
      </trkpt>
      <trkpt lat="46.37661" lon="-0.34861">
        <ele>84</ele>
        <time>2012-10-26T17:01:53Z</time>
      </trkpt>
      <trkpt lat="46.3766" lon="-0.34853">
        <ele>84</ele>
        <time>2012-10-26T17:01:58Z</time>
      </trkpt>
      <trkpt lat="46.3766" lon="-0.34851">
        <ele>82</ele>
        <time>2012-10-26T17:02:03Z</time>
      </trkpt>
      <trkpt lat="46.37658" lon="-0.34846">
        <ele>82</ele>
        <time>2012-10-26T17:02:08Z</time>
      </trkpt>
      <trkpt lat="46.37657" lon="-0.34839">
        <ele>81</ele>
        <time>2012-10-26T17:02:13Z</time>
      </trkpt>
      <trkpt lat="46.37655" lon="-0.34831">
        <ele>82</ele>
        <time>2012-10-26T17:02:18Z</time>
      </trkpt>
      <trkpt lat="46.37655" lon="-0.34822">
        <ele>83</ele>
        <time>2012-10-26T17:02:23Z</time>
      </trkpt>
      <trkpt lat="46.37652" lon="-0.34811">
        <ele>83</ele>
        <time>2012-10-26T17:02:28Z</time>
      </trkpt>
      <trkpt lat="46.37649" lon="-0.34805">
        <ele>81</ele>
        <time>2012-10-26T17:02:33Z</time>
      </trkpt>
      <trkpt lat="46.37646" lon="-0.34798">
        <ele>82</ele>
        <time>2012-10-26T17:02:38Z</time>
      </trkpt>
      <trkpt lat="46.37646" lon="-0.34789">
        <ele>82</ele>
        <time>2012-10-26T17:02:43Z</time>
      </trkpt>
      <trkpt lat="46.37642" lon="-0.3478">
        <ele>81</ele>
        <time>2012-10-26T17:02:48Z</time>
      </trkpt>
      <trkpt lat="46.37643" lon="-0.34773">
        <ele>83</ele>
        <time>2012-10-26T17:02:53Z</time>
      </trkpt>
      <trkpt lat="46.3764" lon="-0.34763">
        <ele>83</ele>
        <time>2012-10-26T17:02:58Z</time>
      </trkpt>
      <trkpt lat="46.3764" lon="-0.34757">
        <ele>83</ele>
        <time>2012-10-26T17:03:03Z</time>
      </trkpt>
      <trkpt lat="46.37638" lon="-0.3475">
        <ele>82</ele>
        <time>2012-10-26T17:03:08Z</time>
      </trkpt>
      <trkpt lat="46.37636" lon="-0.34742">
        <ele>83</ele>
        <time>2012-10-26T17:03:13Z</time>
      </trkpt>
      <trkpt lat="46.37635" lon="-0.34735">
        <ele>84</ele>
        <time>2012-10-26T17:03:18Z</time>
      </trkpt>
      <trkpt lat="46.37635" lon="-0.34729">
        <ele>84</ele>
        <time>2012-10-26T17:03:23Z</time>
      </trkpt>
      <trkpt lat="46.37634" lon="-0.3472">
        <ele>84</ele>
        <time>2012-10-26T17:03:28Z</time>
      </trkpt>
      <trkpt lat="46.37631" lon="-0.34714">
        <ele>82</ele>
        <time>2012-10-26T17:03:33Z</time>
      </trkpt>
      <trkpt lat="46.3763" lon="-0.34708">
        <ele>81</ele>
        <time>2012-10-26T17:03:38Z</time>
      </trkpt>
      <trkpt lat="46.37628" lon="-0.347">
        <ele>82</ele>
        <time>2012-10-26T17:03:43Z</time>
      </trkpt>
      <trkpt lat="46.37627" lon="-0.34691">
        <ele>82</ele>
        <time>2012-10-26T17:03:48Z</time>
      </trkpt>
      <trkpt lat="46.37626" lon="-0.34685">
        <ele>82</ele>
        <time>2012-10-26T17:03:53Z</time>
      </trkpt>
      <trkpt lat="46.37625" lon="-0.34678">
        <ele>81</ele>
        <time>2012-10-26T17:03:58Z</time>
      </trkpt>
      <trkpt lat="46.37621" lon="-0.34665">
        <ele>82</ele>
        <time>2012-10-26T17:04:03Z</time>
      </trkpt>
      <trkpt lat="46.3762" lon="-0.34657">
        <ele>82</ele>
        <time>2012-10-26T17:04:08Z</time>
      </trkpt>
      <trkpt lat="46.37618" lon="-0.34648">
        <ele>83</ele>
        <time>2012-10-26T17:04:13Z</time>
      </trkpt>
      <trkpt lat="46.37615" lon="-0.34639">
        <ele>82</ele>
        <time>2012-10-26T17:04:18Z</time>
      </trkpt>
      <trkpt lat="46.37613" lon="-0.3463">
        <ele>82</ele>
        <time>2012-10-26T17:04:23Z</time>
      </trkpt>
      <trkpt lat="46.37613" lon="-0.34624">
        <ele>81</ele>
        <time>2012-10-26T17:04:28Z</time>
      </trkpt>
      <trkpt lat="46.37611" lon="-0.34618">
        <ele>81</ele>
        <time>2012-10-26T17:04:33Z</time>
      </trkpt>
      <trkpt lat="46.37611" lon="-0.3461">
        <ele>83</ele>
        <time>2012-10-26T17:04:38Z</time>
      </trkpt>
      <trkpt lat="46.3761" lon="-0.34604">
        <ele>82</ele>
        <time>2012-10-26T17:04:43Z</time>
      </trkpt>
      <trkpt lat="46.37609" lon="-0.34597">
        <ele>83</ele>
        <time>2012-10-26T17:04:48Z</time>
      </trkpt>
      <trkpt lat="46.37605" lon="-0.34588">
        <ele>83</ele>
        <time>2012-10-26T17:04:53Z</time>
      </trkpt>
      <trkpt lat="46.37606" lon="-0.34582">
        <ele>84</ele>
        <time>2012-10-26T17:04:58Z</time>
      </trkpt>
      <trkpt lat="46.37605" lon="-0.34575">
        <ele>82</ele>
        <time>2012-10-26T17:05:03Z</time>
      </trkpt>
      <trkpt lat="46.37603" lon="-0.34567">
        <ele>82</ele>
        <time>2012-10-26T17:05:08Z</time>
      </trkpt>
      <trkpt lat="46.37601" lon="-0.34558">
        <ele>82</ele>
        <time>2012-10-26T17:05:13Z</time>
      </trkpt>
      <trkpt lat="46.37599" lon="-0.34548">
        <ele>82</ele>
        <time>2012-10-26T17:05:18Z</time>
      </trkpt>
      <trkpt lat="46.37597" lon="-0.34537">
        <ele>82</ele>
        <time>2012-10-26T17:05:23Z</time>
      </trkpt>
      <trkpt lat="46.37593" lon="-0.3453">
        <ele>82</ele>
        <time>2012-10-26T17:05:28Z</time>
      </trkpt>
      <trkpt lat="46.37594" lon="-0.34521">
        <ele>80</ele>
        <time>2012-10-26T17:05:33Z</time>
      </trkpt>
      <trkpt lat="46.37591" lon="-0.34511">
        <ele>82</ele>
        <time>2012-10-26T17:05:38Z</time>
      </trkpt>
      <trkpt lat="46.37592" lon="-0.34509">
        <ele>81</ele>
        <time>2012-10-26T17:05:43Z</time>
      </trkpt>
      <trkpt lat="46.37591" lon="-0.34502">
        <ele>82</ele>
        <time>2012-10-26T17:05:48Z</time>
      </trkpt>
      <trkpt lat="46.37589" lon="-0.34495">
        <ele>82</ele>
        <time>2012-10-26T17:05:53Z</time>
      </trkpt>
      <trkpt lat="46.37589" lon="-0.34493">
        <ele>82</ele>
        <time>2012-10-26T17:05:58Z</time>
      </trkpt>
      <trkpt lat="46.37586" lon="-0.34479">
        <ele>83</ele>
        <time>2012-10-26T17:06:03Z</time>
      </trkpt>
      <trkpt lat="46.37584" lon="-0.34467">
        <ele>84</ele>
        <time>2012-10-26T17:06:08Z</time>
      </trkpt>
      <trkpt lat="46.37584" lon="-0.34461">
        <ele>84</ele>
        <time>2012-10-26T17:06:13Z</time>
      </trkpt>
      <trkpt lat="46.37584" lon="-0.34457">
        <ele>85</ele>
        <time>2012-10-26T17:06:18Z</time>
      </trkpt>
      <trkpt lat="46.37581" lon="-0.3445">
        <ele>84</ele>
        <time>2012-10-26T17:06:23Z</time>
      </trkpt>
      <trkpt lat="46.37579" lon="-0.34441">
        <ele>85</ele>
        <time>2012-10-26T17:06:28Z</time>
      </trkpt>
      <trkpt lat="46.37578" lon="-0.34432">
        <ele>86</ele>
        <time>2012-10-26T17:06:33Z</time>
      </trkpt>
      <trkpt lat="46.37574" lon="-0.34422">
        <ele>86</ele>
        <time>2012-10-26T17:06:38Z</time>
      </trkpt>
      <trkpt lat="46.37573" lon="-0.34418">
        <ele>85</ele>
        <time>2012-10-26T17:06:43Z</time>
      </trkpt>
      <trkpt lat="46.37572" lon="-0.34406">
        <ele>85</ele>
        <time>2012-10-26T17:06:48Z</time>
      </trkpt>
      <trkpt lat="46.3757" lon="-0.34399">
        <ele>85</ele>
        <time>2012-10-26T17:06:53Z</time>
      </trkpt>
      <trkpt lat="46.37568" lon="-0.34391">
        <ele>84</ele>
        <time>2012-10-26T17:06:58Z</time>
      </trkpt>
      <trkpt lat="46.37565" lon="-0.34379">
        <ele>84</ele>
        <time>2012-10-26T17:07:03Z</time>
      </trkpt>
      <trkpt lat="46.37564" lon="-0.34373">
        <ele>84</ele>
        <time>2012-10-26T17:07:08Z</time>
      </trkpt>
      <trkpt lat="46.37561" lon="-0.34362">
        <ele>87</ele>
        <time>2012-10-26T17:07:13Z</time>
      </trkpt>
      <trkpt lat="46.37562" lon="-0.34357">
        <ele>86</ele>
        <time>2012-10-26T17:07:18Z</time>
      </trkpt>
      <trkpt lat="46.37561" lon="-0.34349">
        <ele>85</ele>
        <time>2012-10-26T17:07:23Z</time>
      </trkpt>
      <trkpt lat="46.37557" lon="-0.34341">
        <ele>85</ele>
        <time>2012-10-26T17:07:28Z</time>
      </trkpt>
      <trkpt lat="46.37558" lon="-0.34339">
        <ele>85</ele>
        <time>2012-10-26T17:07:33Z</time>
      </trkpt>
      <trkpt lat="46.37559" lon="-0.34335">
        <ele>84</ele>
        <time>2012-10-26T17:07:38Z</time>
      </trkpt>
      <trkpt lat="46.37554" lon="-0.34322">
        <ele>84</ele>
        <time>2012-10-26T17:07:43Z</time>
      </trkpt>
      <trkpt lat="46.37553" lon="-0.34314">
        <ele>84</ele>
        <time>2012-10-26T17:07:48Z</time>
      </trkpt>
      <trkpt lat="46.37554" lon="-0.3431">
        <ele>85</ele>
        <time>2012-10-26T17:07:53Z</time>
      </trkpt>
      <trkpt lat="46.37551" lon="-0.34304">
        <ele>83</ele>
        <time>2012-10-26T17:07:58Z</time>
      </trkpt>
      <trkpt lat="46.37549" lon="-0.34296">
        <ele>83</ele>
        <time>2012-10-26T17:08:03Z</time>
      </trkpt>
      <trkpt lat="46.37547" lon="-0.34289">
        <ele>83</ele>
        <time>2012-10-26T17:08:08Z</time>
      </trkpt>
      <trkpt lat="46.37546" lon="-0.34284">
        <ele>83</ele>
        <time>2012-10-26T17:08:13Z</time>
      </trkpt>
      <trkpt lat="46.37544" lon="-0.3428">
        <ele>83</ele>
        <time>2012-10-26T17:08:18Z</time>
      </trkpt>
      <trkpt lat="46.37542" lon="-0.34273">
        <ele>84</ele>
        <time>2012-10-26T17:08:23Z</time>
      </trkpt>
      <trkpt lat="46.37539" lon="-0.34268">
        <ele>83</ele>
        <time>2012-10-26T17:08:28Z</time>
      </trkpt>
      <trkpt lat="46.37536" lon="-0.34262">
        <ele>84</ele>
        <time>2012-10-26T17:08:33Z</time>
      </trkpt>
      <trkpt lat="46.37532" lon="-0.34254">
        <ele>83</ele>
        <time>2012-10-26T17:08:38Z</time>
      </trkpt>
      <trkpt lat="46.3753" lon="-0.34247">
        <ele>84</ele>
        <time>2012-10-26T17:08:43Z</time>
      </trkpt>
      <trkpt lat="46.37529" lon="-0.34241">
        <ele>85</ele>
        <time>2012-10-26T17:08:48Z</time>
      </trkpt>
      <trkpt lat="46.37528" lon="-0.34239">
        <ele>84</ele>
        <time>2012-10-26T17:08:53Z</time>
      </trkpt>
      <trkpt lat="46.3752" lon="-0.34227">
        <ele>81</ele>
        <time>2012-10-26T17:08:58Z</time>
      </trkpt>
      <trkpt lat="46.37519" lon="-0.34223">
        <ele>81</ele>
        <time>2012-10-26T17:09:03Z</time>
      </trkpt>
      <trkpt lat="46.37518" lon="-0.34222">
        <ele>81</ele>
        <time>2012-10-26T17:09:08Z</time>
      </trkpt>
      <trkpt lat="46.37518" lon="-0.34224">
        <ele>81</ele>
        <time>2012-10-26T17:09:13Z</time>
      </trkpt>
      <trkpt lat="46.37521" lon="-0.34224">
        <ele>81</ele>
        <time>2012-10-26T17:09:18Z</time>
      </trkpt>
      <trkpt lat="46.37521" lon="-0.34222">
        <ele>82</ele>
        <time>2012-10-26T17:09:28Z</time>
      </trkpt>
      <trkpt lat="46.37518" lon="-0.34215">
        <ele>82</ele>
        <time>2012-10-26T17:09:33Z</time>
      </trkpt>
      <trkpt lat="46.37512" lon="-0.34211">
        <ele>81</ele>
        <time>2012-10-26T17:09:38Z</time>
      </trkpt>
      <trkpt lat="46.37507" lon="-0.34213">
        <ele>80</ele>
        <time>2012-10-26T17:09:43Z</time>
      </trkpt>
      <trkpt lat="46.37501" lon="-0.34216">
        <ele>81</ele>
        <time>2012-10-26T17:09:48Z</time>
      </trkpt>
      <trkpt lat="46.37493" lon="-0.34221">
        <ele>82</ele>
        <time>2012-10-26T17:09:53Z</time>
      </trkpt>
      <trkpt lat="46.37487" lon="-0.34221">
        <ele>82</ele>
        <time>2012-10-26T17:09:58Z</time>
      </trkpt>
      <trkpt lat="46.37481" lon="-0.34224">
        <ele>82</ele>
        <time>2012-10-26T17:10:03Z</time>
      </trkpt>
      <trkpt lat="46.37473" lon="-0.34229">
        <ele>83</ele>
        <time>2012-10-26T17:10:08Z</time>
      </trkpt>
      <trkpt lat="46.37469" lon="-0.34232">
        <ele>82</ele>
        <time>2012-10-26T17:10:13Z</time>
      </trkpt>
      <trkpt lat="46.37463" lon="-0.34234">
        <ele>83</ele>
        <time>2012-10-26T17:10:18Z</time>
      </trkpt>
      <trkpt lat="46.37457" lon="-0.34235">
        <ele>83</ele>
        <time>2012-10-26T17:10:23Z</time>
      </trkpt>
      <trkpt lat="46.37454" lon="-0.34239">
        <ele>81</ele>
        <time>2012-10-26T17:10:28Z</time>
      </trkpt>
      <trkpt lat="46.37446" lon="-0.34244">
        <ele>83</ele>
        <time>2012-10-26T17:10:33Z</time>
      </trkpt>
      <trkpt lat="46.37441" lon="-0.3425">
        <ele>83</ele>
        <time>2012-10-26T17:10:38Z</time>
      </trkpt>
      <trkpt lat="46.37436" lon="-0.34253">
        <ele>83</ele>
        <time>2012-10-26T17:10:43Z</time>
      </trkpt>
      <trkpt lat="46.37431" lon="-0.34257">
        <ele>82</ele>
        <time>2012-10-26T17:10:48Z</time>
      </trkpt>
      <trkpt lat="46.37425" lon="-0.34261">
        <ele>87</ele>
        <time>2012-10-26T17:10:53Z</time>
      </trkpt>
      <trkpt lat="46.37416" lon="-0.34266">
        <ele>87</ele>
        <time>2012-10-26T17:10:58Z</time>
      </trkpt>
      <trkpt lat="46.37413" lon="-0.3427">
        <ele>86</ele>
        <time>2012-10-26T17:11:03Z</time>
      </trkpt>
      <trkpt lat="46.37411" lon="-0.34276">
        <ele>86</ele>
        <time>2012-10-26T17:11:08Z</time>
      </trkpt>
      <trkpt lat="46.37405" lon="-0.3428">
        <ele>87</ele>
        <time>2012-10-26T17:11:13Z</time>
      </trkpt>
      <trkpt lat="46.37401" lon="-0.34281">
        <ele>88</ele>
        <time>2012-10-26T17:11:18Z</time>
      </trkpt>
      <trkpt lat="46.37397" lon="-0.34285">
        <ele>90</ele>
        <time>2012-10-26T17:11:23Z</time>
      </trkpt>
      <trkpt lat="46.37393" lon="-0.34292">
        <ele>89</ele>
        <time>2012-10-26T17:11:28Z</time>
      </trkpt>
      <trkpt lat="46.37387" lon="-0.34295">
        <ele>90</ele>
        <time>2012-10-26T17:11:33Z</time>
      </trkpt>
      <trkpt lat="46.37381" lon="-0.343">
        <ele>91</ele>
        <time>2012-10-26T17:11:38Z</time>
      </trkpt>
      <trkpt lat="46.37374" lon="-0.34302">
        <ele>90</ele>
        <time>2012-10-26T17:11:43Z</time>
      </trkpt>
      <trkpt lat="46.37373" lon="-0.34304">
        <ele>91</ele>
        <time>2012-10-26T17:11:48Z</time>
      </trkpt>
      <trkpt lat="46.37367" lon="-0.34306">
        <ele>91</ele>
        <time>2012-10-26T17:11:53Z</time>
      </trkpt>
      <trkpt lat="46.37363" lon="-0.34315">
        <ele>92</ele>
        <time>2012-10-26T17:11:58Z</time>
      </trkpt>
      <trkpt lat="46.37359" lon="-0.34316">
        <ele>91</ele>
        <time>2012-10-26T17:12:03Z</time>
      </trkpt>
      <trkpt lat="46.37351" lon="-0.3432">
        <ele>90</ele>
        <time>2012-10-26T17:12:08Z</time>
      </trkpt>
      <trkpt lat="46.37345" lon="-0.34323">
        <ele>89</ele>
        <time>2012-10-26T17:12:13Z</time>
      </trkpt>
      <trkpt lat="46.37343" lon="-0.34327">
        <ele>89</ele>
        <time>2012-10-26T17:12:18Z</time>
      </trkpt>
      <trkpt lat="46.37341" lon="-0.34333">
        <ele>89</ele>
        <time>2012-10-26T17:12:23Z</time>
      </trkpt>
      <trkpt lat="46.37338" lon="-0.34336">
        <ele>88</ele>
        <time>2012-10-26T17:12:28Z</time>
      </trkpt>
      <trkpt lat="46.37333" lon="-0.3434">
        <ele>88</ele>
        <time>2012-10-26T17:12:33Z</time>
      </trkpt>
      <trkpt lat="46.37328" lon="-0.34344">
        <ele>88</ele>
        <time>2012-10-26T17:12:38Z</time>
      </trkpt>
      <trkpt lat="46.37323" lon="-0.34347">
        <ele>87</ele>
        <time>2012-10-26T17:12:43Z</time>
      </trkpt>
      <trkpt lat="46.37318" lon="-0.34352">
        <ele>87</ele>
        <time>2012-10-26T17:12:48Z</time>
      </trkpt>
      <trkpt lat="46.37311" lon="-0.34357">
        <ele>89</ele>
        <time>2012-10-26T17:12:53Z</time>
      </trkpt>
      <trkpt lat="46.37308" lon="-0.34363">
        <ele>89</ele>
        <time>2012-10-26T17:12:58Z</time>
      </trkpt>
      <trkpt lat="46.37303" lon="-0.34369">
        <ele>87</ele>
        <time>2012-10-26T17:13:03Z</time>
      </trkpt>
      <trkpt lat="46.37299" lon="-0.34372">
        <ele>87</ele>
        <time>2012-10-26T17:13:08Z</time>
      </trkpt>
      <trkpt lat="46.37293" lon="-0.34371">
        <ele>87</ele>
        <time>2012-10-26T17:13:13Z</time>
      </trkpt>
      <trkpt lat="46.37286" lon="-0.34374">
        <ele>88</ele>
        <time>2012-10-26T17:13:18Z</time>
      </trkpt>
      <trkpt lat="46.37282" lon="-0.34376">
        <ele>88</ele>
        <time>2012-10-26T17:13:23Z</time>
      </trkpt>
      <trkpt lat="46.37278" lon="-0.34377">
        <ele>87</ele>
        <time>2012-10-26T17:13:28Z</time>
      </trkpt>
      <trkpt lat="46.37274" lon="-0.34379">
        <ele>86</ele>
        <time>2012-10-26T17:13:33Z</time>
      </trkpt>
      <trkpt lat="46.37267" lon="-0.34383">
        <ele>88</ele>
        <time>2012-10-26T17:13:38Z</time>
      </trkpt>
      <trkpt lat="46.37265" lon="-0.34385">
        <ele>86</ele>
        <time>2012-10-26T17:13:43Z</time>
      </trkpt>
      <trkpt lat="46.37258" lon="-0.34388">
        <ele>83</ele>
        <time>2012-10-26T17:13:48Z</time>
      </trkpt>
      <trkpt lat="46.37254" lon="-0.34386">
        <ele>83</ele>
        <time>2012-10-26T17:13:53Z</time>
      </trkpt>
      <trkpt lat="46.37251" lon="-0.34384">
        <ele>83</ele>
        <time>2012-10-26T17:13:58Z</time>
      </trkpt>
      <trkpt lat="46.37248" lon="-0.34383">
        <ele>83</ele>
        <time>2012-10-26T17:14:03Z</time>
      </trkpt>
      <trkpt lat="46.37249" lon="-0.34382">
        <ele>84</ele>
        <time>2012-10-26T17:14:08Z</time>
      </trkpt>
      <trkpt lat="46.37249" lon="-0.34382">
        <ele>84</ele>
        <time>2012-10-26T17:14:18Z</time>
      </trkpt>
      <trkpt lat="46.37249" lon="-0.34383">
        <ele>84</ele>
        <time>2012-10-26T17:14:23Z</time>
      </trkpt>
      <trkpt lat="46.37249" lon="-0.34383">
        <ele>84</ele>
        <time>2012-10-26T17:14:28Z</time>
      </trkpt>
    </trkseg>
  </trk>
</gpx>